[[{"header":{"parameterUnit":"m.s-1","parameterCategory":1,"la1":30.6,"la2":29.2853,"lo1":-89.7004,"lo2":-87.6739,"dy":0.0162,"dx":0.0183,"nx":112,"ny":82,"refTime":"2023-03-17T18:00:00:Z","depth":0,"parameterNumber":2,"parameterNumberName":"U-component_of_WINDS"},"data":[0.0,0.0,0.0,0.0,0.0,0.0,0.0,0.0,0.0,0.0,0.0,0.0,0.0,0.0,0.0,0.0,0.0,0.0,0.0,0.0,0.0,0.0,0.0,0.0,0.0,0.0,0.0,0.0,0.0,0.0,0.0,0.0,0.0,0.0,0.0,0.0,0.0,0.0,0.0,0.0,0.0,0.0,0.0,0.0,0.0,0.0,0.0,0.0,0.0,0.0,0.0,0.0,0.0,0.0,0.0,0.0,0.0,0.0,0.0,0.0,0.0,0.0,0.0,0.0,0.0,0.0,0.0,0.0,0.0,0.0,0.0,0.0,0.0,0.0,0.0,0.0,0.0,0.0,0.0,0.0,0.0,0.0,0.0,0.0,0.0,0.0,0.0,0.0,0.0,0.0,-5.5142,-5.5621,-6.0242,-6.3705,-6.4705,-6.6612,-6.6861,-6.4709,0.0,0.0,0.0,0.0,0.0,0.0,0.0,0.0,0.0,0.0,0.0,0.0,0.0,0.0,0.0,0.0,0.0,0.0,0.0,0.0,0.0,0.0,0.0,0.0,0.0,0.0,0.0,0.0,0.0,0.0,0.0,0.0,0.0,0.0,0.0,0.0,0.0,0.0,0.0,0.0,0.0,0.0,0.0,0.0,0.0,0.0,0.0,0.0,0.0,0.0,0.0,0.0,0.0,0.0,0.0,0.0,0.0,0.0,0.0,0.0,0.0,0.0,0.0,0.0,0.0,0.0,0.0,0.0,0.0,0.0,0.0,0.0,0.0,0.0,0.0,0.0,0.0,0.0,0.0,0.0,0.0,0.0,0.0,0.0,0.0,0.0,0.0,0.0,0.0,0.0,0.0,0.0,0.0,0.0,0.0,0.0,0.0,0.0,0.0,0.0,0.0,0.0,0.0,0.0,-5.7734,-6.0657,-6.2358,-6.3935,-6.5551,-6.6277,-6.6281,-6.5464,0.0,0.0,0.0,0.0,0.0,0.0,0.0,0.0,0.0,0.0,0.0,0.0,0.0,0.0,0.0,0.0,0.0,0.0,0.0,0.0,0.0,0.0,0.0,0.0,0.0,0.0,0.0,0.0,0.0,0.0,0.0,0.0,0.0,0.0,0.0,0.0,0.0,0.0,0.0,0.0,0.0,0.0,0.0,0.0,0.0,0.0,0.0,0.0,0.0,0.0,0.0,0.0,0.0,0.0,0.0,0.0,0.0,0.0,0.0,0.0,0.0,0.0,0.0,0.0,0.0,0.0,0.0,0.0,0.0,0.0,0.0,0.0,0.0,0.0,0.0,0.0,0.0,0.0,0.0,0.0,0.0,0.0,0.0,0.0,0.0,0.0,0.0,0.0,0.0,0.0,0.0,0.0,0.0,0.0,0.0,0.0,0.0,0.0,0.0,0.0,0.0,0.0,0.0,-5.5209,-5.7315,-6.1642,-6.282,-6.4012,-6.5743,-6.6613,-6.6755,-6.6091,-6.6207,0.0,0.0,0.0,0.0,0.0,0.0,0.0,0.0,0.0,0.0,0.0,0.0,0.0,0.0,0.0,0.0,0.0,0.0,0.0,0.0,0.0,0.0,0.0,0.0,0.0,0.0,0.0,0.0,0.0,0.0,0.0,0.0,0.0,0.0,0.0,0.0,0.0,0.0,0.0,0.0,0.0,0.0,0.0,0.0,0.0,0.0,0.0,0.0,0.0,0.0,0.0,0.0,0.0,0.0,0.0,0.0,0.0,0.0,0.0,0.0,0.0,0.0,0.0,0.0,0.0,0.0,0.0,0.0,0.0,0.0,0.0,0.0,0.0,0.0,0.0,0.0,0.0,0.0,0.0,0.0,0.0,0.0,0.0,0.0,0.0,0.0,0.0,0.0,0.0,0.0,0.0,0.0,0.0,0.0,0.0,0.0,0.0,0.0,0.0,0.0,0.0,0.0,-5.5658,-5.7627,-6.1897,-6.2935,-6.4089,-6.6013,-6.7161,-6.7407,-6.6434,-6.6329,0.0,0.0,0.0,0.0,0.0,0.0,0.0,0.0,0.0,0.0,0.0,0.0,0.0,0.0,0.0,0.0,0.0,0.0,0.0,0.0,0.0,0.0,0.0,0.0,0.0,0.0,0.0,0.0,0.0,0.0,0.0,0.0,0.0,0.0,0.0,0.0,0.0,0.0,0.0,0.0,0.0,0.0,0.0,0.0,0.0,0.0,0.0,0.0,0.0,0.0,0.0,0.0,0.0,0.0,0.0,0.0,0.0,0.0,0.0,0.0,0.0,0.0,0.0,0.0,0.0,0.0,0.0,0.0,0.0,0.0,0.0,0.0,0.0,0.0,0.0,0.0,0.0,0.0,0.0,0.0,0.0,0.0,0.0,0.0,0.0,0.0,0.0,0.0,0.0,0.0,0.0,0.0,0.0,0.0,0.0,0.0,0.0,0.0,0.0,0.0,0.0,0.0,-5.8907,-6.1089,-6.3012,-6.3281,-6.432,-6.6782,-6.7833,-6.7784,-6.6466,-6.6671,0.0,0.0,0.0,0.0,0.0,0.0,0.0,0.0,0.0,0.0,0.0,0.0,0.0,0.0,0.0,0.0,0.0,0.0,0.0,0.0,0.0,0.0,0.0,0.0,0.0,0.0,0.0,0.0,0.0,0.0,0.0,0.0,0.0,0.0,0.0,0.0,0.0,0.0,0.0,0.0,0.0,0.0,0.0,0.0,0.0,0.0,0.0,0.0,0.0,0.0,0.0,0.0,0.0,0.0,0.0,0.0,0.0,0.0,0.0,0.0,0.0,0.0,0.0,0.0,0.0,0.0,0.0,0.0,0.0,0.0,0.0,0.0,0.0,0.0,0.0,0.0,0.0,0.0,0.0,0.0,0.0,0.0,0.0,0.0,0.0,0.0,0.0,0.0,0.0,0.0,0.0,0.0,0.0,0.0,0.0,0.0,0.0,0.0,0.0,0.0,0.0,0.0,-5.8754,-6.0858,-6.3051,-6.3782,-6.4936,-6.6936,-6.7398,-6.7153,-6.6173,0.0,0.0,0.0,0.0,0.0,0.0,0.0,0.0,0.0,0.0,0.0,0.0,0.0,0.0,0.0,0.0,0.0,0.0,0.0,0.0,0.0,0.0,0.0,0.0,0.0,0.0,0.0,0.0,0.0,0.0,0.0,0.0,0.0,0.0,0.0,0.0,0.0,0.0,0.0,0.0,0.0,0.0,0.0,0.0,0.0,0.0,0.0,0.0,0.0,0.0,0.0,0.0,0.0,0.0,0.0,0.0,0.0,0.0,0.0,0.0,0.0,0.0,0.0,0.0,0.0,0.0,0.0,0.0,0.0,0.0,0.0,0.0,0.0,0.0,0.0,0.0,0.0,0.0,0.0,0.0,0.0,0.0,0.0,0.0,0.0,0.0,0.0,0.0,0.0,0.0,0.0,0.0,0.0,0.0,0.0,0.0,0.0,0.0,0.0,0.0,0.0,0.0,-5.6852,-5.8945,-6.1089,-6.3089,-6.4089,-6.5166,-6.659,-6.6936,-6.6628,-6.5551,0.0,0.0,0.0,0.0,0.0,0.0,0.0,0.0,0.0,0.0,0.0,0.0,0.0,0.0,0.0,0.0,0.0,0.0,0.0,0.0,0.0,0.0,0.0,0.0,0.0,0.0,0.0,0.0,0.0,0.0,0.0,0.0,0.0,0.0,0.0,0.0,0.0,0.0,0.0,0.0,0.0,0.0,0.0,0.0,0.0,0.0,0.0,0.0,0.0,0.0,0.0,0.0,0.0,0.0,0.0,0.0,0.0,0.0,0.0,0.0,0.0,0.0,0.0,0.0,0.0,0.0,0.0,0.0,0.0,0.0,0.0,0.0,0.0,0.0,0.0,0.0,0.0,0.0,0.0,0.0,0.0,0.0,0.0,0.0,0.0,0.0,0.0,0.0,0.0,0.0,0.0,0.0,0.0,0.0,0.0,0.0,0.0,0.0,0.0,0.0,0.0,0.0,-5.7003,-5.9977,-6.2397,-6.3243,-6.4089,-6.4974,-6.582,-6.6628,-6.6359,0.0,0.0,0.0,0.0,0.0,0.0,0.0,0.0,0.0,0.0,0.0,0.0,0.0,0.0,0.0,0.0,0.0,0.0,0.0,0.0,0.0,0.0,0.0,0.0,0.0,0.0,0.0,0.0,0.0,0.0,0.0,0.0,0.0,0.0,0.0,0.0,0.0,0.0,0.0,0.0,0.0,0.0,0.0,0.0,0.0,0.0,0.0,0.0,0.0,0.0,0.0,0.0,0.0,0.0,0.0,0.0,0.0,0.0,0.0,0.0,0.0,0.0,0.0,0.0,0.0,0.0,0.0,0.0,0.0,0.0,0.0,0.0,0.0,0.0,0.0,0.0,0.0,0.0,0.0,0.0,0.0,0.0,0.0,0.0,0.0,0.0,0.0,0.0,0.0,0.0,0.0,0.0,0.0,0.0,0.0,0.0,0.0,0.0,0.0,0.0,0.0,0.0,0.0,-5.7003,-6.0474,-6.3051,-6.3281,-6.4628,-6.5859,-6.6667,-6.6436,-6.5782,-6.4666,0.0,0.0,0.0,0.0,0.0,0.0,0.0,0.0,0.0,0.0,0.0,0.0,0.0,0.0,0.0,0.0,0.0,0.0,0.0,0.0,0.0,0.0,0.0,0.0,0.0,0.0,0.0,0.0,0.0,0.0,0.0,0.0,0.0,0.0,0.0,0.0,0.0,0.0,0.0,0.0,0.0,0.0,0.0,0.0,0.0,0.0,0.0,0.0,0.0,0.0,0.0,0.0,0.0,0.0,0.0,0.0,0.0,0.0,0.0,0.0,0.0,0.0,0.0,0.0,0.0,0.0,0.0,0.0,0.0,0.0,0.0,0.0,0.0,0.0,0.0,0.0,0.0,0.0,0.0,0.0,0.0,0.0,0.0,0.0,0.0,0.0,0.0,0.0,0.0,0.0,0.0,0.0,0.0,0.0,0.0,0.0,0.0,0.0,0.0,0.0,0.0,0.0,-5.7947,-6.1124,-6.3589,-6.4282,-6.5551,-6.6705,-6.7552,-6.7167,-6.6397,-6.5205,0.0,0.0,0.0,0.0,0.0,0.0,0.0,0.0,0.0,0.0,0.0,0.0,0.0,0.0,0.0,0.0,0.0,0.0,0.0,0.0,0.0,0.0,0.0,0.0,0.0,0.0,0.0,0.0,0.0,0.0,0.0,0.0,0.0,0.0,0.0,0.0,0.0,0.0,0.0,0.0,0.0,0.0,0.0,0.0,0.0,0.0,0.0,0.0,0.0,0.0,0.0,0.0,0.0,0.0,0.0,0.0,0.0,0.0,0.0,0.0,0.0,0.0,0.0,0.0,0.0,0.0,0.0,0.0,0.0,0.0,0.0,0.0,0.0,0.0,0.0,0.0,0.0,0.0,0.0,0.0,0.0,0.0,0.0,0.0,0.0,0.0,0.0,0.0,0.0,0.0,0.0,0.0,0.0,0.0,0.0,0.0,0.0,0.0,0.0,0.0,0.0,0.0,-5.9383,-6.1707,-6.3935,-6.559,-6.6513,-6.7359,-6.8321,-6.8321,-6.7628,-6.609,0.0,0.0,0.0,0.0,0.0,0.0,0.0,0.0,0.0,0.0,0.0,0.0,0.0,0.0,0.0,0.0,0.0,0.0,0.0,0.0,0.0,0.0,0.0,0.0,0.0,0.0,0.0,0.0,0.0,0.0,0.0,0.0,0.0,0.0,0.0,0.0,0.0,0.0,0.0,0.0,0.0,0.0,0.0,0.0,0.0,0.0,0.0,0.0,0.0,0.0,0.0,0.0,0.0,0.0,0.0,0.0,0.0,0.0,0.0,0.0,-3.2525,-3.2261,0.0,0.0,0.0,0.0,0.0,0.0,0.0,0.0,0.0,0.0,0.0,0.0,0.0,0.0,0.0,0.0,0.0,0.0,0.0,0.0,0.0,0.0,0.0,0.0,0.0,0.0,0.0,0.0,0.0,0.0,0.0,0.0,0.0,0.0,0.0,0.0,0.0,0.0,0.0,0.0,-5.9383,-6.1707,-6.3705,-6.4743,-6.5628,-6.6782,-6.8282,-6.7782,-6.7205,-6.6859,-6.6821,0.0,0.0,0.0,0.0,0.0,0.0,0.0,0.0,0.0,0.0,0.0,0.0,0.0,0.0,0.0,0.0,0.0,0.0,0.0,0.0,0.0,0.0,0.0,0.0,0.0,0.0,0.0,0.0,0.0,0.0,0.0,0.0,0.0,0.0,0.0,0.0,0.0,0.0,0.0,0.0,0.0,0.0,0.0,0.0,0.0,0.0,0.0,0.0,0.0,0.0,0.0,0.0,0.0,0.0,0.0,0.0,0.0,0.0,0.0,-3.3843,-3.4684,0.0,0.0,0.0,0.0,0.0,0.0,0.0,0.0,0.0,0.0,0.0,0.0,0.0,0.0,0.0,0.0,0.0,0.0,0.0,0.0,0.0,0.0,0.0,0.0,0.0,0.0,0.0,0.0,0.0,0.0,0.0,0.0,0.0,0.0,0.0,0.0,0.0,0.0,0.0,0.0,-6.0861,-6.27,-6.4397,-6.5667,-6.6205,-6.7167,-6.8898,-6.8629,-6.8167,-6.7744,-6.7321,0.0,0.0,0.0,0.0,0.0,0.0,0.0,0.0,0.0,0.0,0.0,0.0,0.0,0.0,0.0,0.0,0.0,0.0,0.0,0.0,0.0,0.0,0.0,0.0,0.0,0.0,0.0,0.0,0.0,0.0,0.0,0.0,0.0,0.0,0.0,0.0,0.0,0.0,0.0,0.0,0.0,0.0,0.0,0.0,0.0,0.0,0.0,0.0,0.0,0.0,0.0,0.0,0.0,-2.4314,-2.5546,-2.5758,-2.8823,-3.1245,-3.3334,-3.55,-3.783,-4.0209,-3.9388,0.0,0.0,0.0,0.0,0.0,0.0,0.0,0.0,0.0,0.0,0.0,0.0,0.0,0.0,0.0,0.0,0.0,0.0,0.0,0.0,0.0,0.0,-6.7687,-6.8201,-6.8935,-6.8862,-6.6476,0.0,0.0,0.0,0.0,0.0,0.0,0.0,0.0,0.0,0.0,0.0,-6.2628,-6.3844,-6.5205,-6.6744,-6.6898,-6.759,-6.9321,-6.9475,-6.9167,-6.8475,-6.7705,-6.6551,0.0,0.0,0.0,0.0,0.0,0.0,0.0,0.0,0.0,0.0,0.0,0.0,0.0,0.0,0.0,0.0,0.0,0.0,0.0,0.0,0.0,0.0,0.0,0.0,0.0,0.0,0.0,0.0,0.0,0.0,0.0,0.0,4.5809,4.4822,0.0,0.0,0.0,0.0,0.0,0.0,0.0,0.0,0.0,0.0,0.0,0.0,0.0,-1.3121,-1.7585,-2.1205,-2.191,-1.9977,-2.6162,-2.8886,-2.8776,-3.3311,-3.5914,-3.7144,-3.9414,0.0,-3.9729,-4.2034,0.0,0.0,0.0,0.0,0.0,0.0,0.0,0.0,0.0,0.0,0.0,0.0,0.0,0.0,0.0,0.0,0.0,0.0,0.0,0.0,0.0,0.0,-7.1578,-7.0991,-7.1431,-7.1358,-6.8972,-6.7393,-6.6402,-6.6072,-6.42,-6.2475,0.0,0.0,0.0,0.0,0.0,0.0,-6.3528,-6.4227,-6.4974,-6.5936,-6.6051,-6.6744,-6.8436,-6.859,-6.8513,-6.8398,-6.8282,-6.7475,-6.5782,-6.5538,0.0,0.0,0.0,0.0,0.0,0.0,0.0,0.0,0.0,0.0,0.0,0.0,0.0,0.0,0.0,0.0,0.0,0.0,0.0,0.0,0.0,0.0,0.0,0.0,0.0,0.0,0.0,0.0,0.0,4.53,4.4557,4.1667,4.1029,3.9056,0.0,0.0,0.0,0.0,0.0,0.0,0.0,0.0,0.0,-0.4194,-1.1131,-1.6754,-2.0908,-2.2319,-2.3017,-2.2978,-2.8046,-3.096,-3.165,-3.4776,-3.7044,-3.8772,-4.0509,-4.2543,-4.4865,-4.6048,-4.7862,-5.002,0.0,0.0,0.0,0.0,-6.204,-6.3142,-6.6223,-6.7247,-6.7136,-6.6953,0.0,0.0,0.0,0.0,0.0,0.0,0.0,-6.8752,-7.0367,-7.1321,-7.1762,-7.1394,-7.1578,-7.1431,-6.9889,-6.8678,-6.7467,-6.6109,-6.4261,-6.2668,-6.1763,-6.0933,0.0,0.0,0.0,-6.2404,-6.3433,-6.4629,-6.5474,-6.5859,-6.5897,-6.6359,-6.7552,-6.7667,-6.7898,-6.8359,-6.8398,-6.809,-6.7359,-6.6821,-6.6782,0.0,0.0,0.0,0.0,0.0,0.0,0.0,0.0,0.0,0.0,0.0,0.0,0.0,0.0,0.0,0.0,0.0,0.0,0.0,0.0,0.0,0.0,0.0,0.0,0.0,0.0,0.0,0.0,4.5368,4.4088,3.9957,4.071,3.915,0.0,0.0,0.0,0.0,0.0,0.0,1.8471,0.792,-0.1632,-0.9729,-1.4554,-1.8387,-2.1265,-2.2474,-2.3792,-2.4997,-2.9457,-3.2509,-3.4066,-3.6325,-3.8295,-4.0045,-4.2023,-4.5134,-4.8938,-4.9869,-5.1439,-5.3821,-5.7431,-5.9624,-6.1112,-6.3739,-6.535,-6.6549,-6.8752,-6.9119,-6.8678,-6.9045,-6.8495,-6.7724,-6.7944,0.0,0.0,0.0,0.0,-6.9596,-7.1211,-7.1468,-7.1321,-7.1321,-7.1138,-7.077,-6.9963,-6.9057,-6.7959,-6.6676,-6.5009,-6.3535,-6.2591,-6.1731,0.0,-6.122,-6.2118,-6.3072,-6.3872,-6.5089,-6.5897,-6.5897,-6.5897,-6.6244,-6.7013,-6.7282,-6.7705,-6.8359,-6.8629,-6.8744,-6.8744,-6.8129,-6.8167,-6.9013,0.0,0.0,0.0,0.0,0.0,0.0,0.0,0.0,0.0,0.0,0.0,0.0,0.0,0.0,0.0,0.0,0.0,0.0,0.0,0.0,0.0,0.0,0.0,0.0,0.0,0.0,0.0,0.0,0.0,4.3697,4.41,0.0,0.0,0.0,0.0,2.6313,2.314,1.6947,0.6516,0.1012,-0.6458,-1.6538,-1.6725,-1.6681,-1.7076,-2.1418,-2.3681,-2.3627,-2.9889,-3.3822,-3.5721,-3.9473,-4.1221,-4.1439,-4.5548,-4.7765,-4.8901,-5.2491,-5.4941,-5.6595,-6.0041,-6.1387,-6.1965,-6.5143,-6.7388,-6.8972,-7.0624,-7.1174,-7.066,-6.765,-6.5632,-6.4897,-6.7944,-6.776,0.0,0.0,-7.0036,-7.0403,-7.2018,-7.1872,-7.1321,-7.1321,-7.0734,-6.9926,-6.9119,-6.7821,-6.7363,-6.9117,-6.7542,-6.5881,-6.6049,0.0,-6.2939,-6.4206,-6.3757,-6.3872,-6.5551,-6.5859,-6.5897,-6.5897,-6.5897,-6.6244,-6.7013,-6.7859,-6.8359,-6.8398,-6.9167,-6.9629,-6.9629,-6.959,-6.9937,-7.0744,-6.9975,0.0,0.0,0.0,0.0,0.0,0.0,0.0,0.0,0.0,0.0,0.0,0.0,0.0,0.0,0.0,0.0,0.0,0.0,0.0,0.0,0.0,0.0,0.0,0.0,0.0,0.0,0.0,0.0,4.5848,4.5847,0.0,3.908,3.4432,3.0006,2.5711,2.2756,1.6142,0.4297,-0.1259,-0.8245,-1.7727,-1.6045,-1.5709,-1.7111,-2.0505,-2.3495,-2.589,-3.1045,-3.5982,-4.0312,-4.1628,-4.3469,-4.5462,-4.7207,-4.8928,-5.0585,-5.3781,-5.5906,-5.7775,-6.2113,-6.4129,-6.4948,-6.8354,-6.9921,-7.0624,-7.1688,-7.1725,-7.1027,-6.9376,-6.8421,-6.8274,-6.9963,-7.0036,-7.0,-7.1872,-7.2422,-7.2422,-7.2496,-7.2312,-7.1541,-6.9486,-6.8752,-6.8201,-6.688,-6.6173,-6.6212,-6.7578,-6.6369,-6.4997,-6.4724,-6.424,-6.3859,-6.3795,-6.3974,-6.4359,-6.4974,-6.5551,-6.5897,-6.5897,-6.5897,-6.6013,-6.6282,-6.709,-6.7782,-6.8359,-6.9206,-6.9937,-7.0437,-7.1014,-7.1437,-7.1745,-7.2014,-7.1052,0.0,0.0,0.0,0.0,0.0,0.0,0.0,0.0,0.0,0.0,0.0,0.0,0.0,0.0,0.0,0.0,0.0,0.0,0.0,0.0,0.0,0.0,0.0,0.0,0.0,4.8825,5.0157,4.7005,4.7383,4.5978,4.1167,3.5505,3.0437,2.6285,2.2768,1.521,0.2613,-0.4521,-1.0916,-1.6705,-1.5119,-1.4885,-1.6206,-1.9628,-2.3354,-2.7455,-3.2632,-3.8006,-4.3321,-4.4619,-4.6275,-4.7933,-4.9469,-5.0472,-5.1321,-5.4789,-5.6568,-5.7571,-6.2751,-6.5171,-6.6221,-6.9318,-7.066,-7.0954,-7.1211,-7.077,-7.0,-6.9449,-6.9265,-6.9449,-7.0257,-7.0697,-7.1138,-7.2202,-7.2679,-7.2716,-7.1908,-7.1505,-7.0697,-6.8274,-6.7467,-6.6916,-6.5595,-6.5361,-6.5514,-6.5873,-6.5399,-6.4938,-6.4929,-6.4742,-6.4397,-6.382,-6.4243,-6.4589,-6.4589,-6.5359,-6.5897,-6.5897,-6.6128,-6.6205,-6.5897,-6.6628,-6.7359,-6.7936,-6.8513,-6.9321,-7.0437,-7.0475,-7.0744,-7.136,-7.1937,-7.0821,-6.7975,0.0,0.0,0.0,0.0,0.0,0.0,0.0,0.0,0.0,0.0,0.0,0.0,0.0,0.0,0.0,0.0,0.0,0.0,0.0,0.0,0.0,0.0,0.0,4.8066,4.9959,5.0383,4.7794,4.9034,4.8379,4.442,3.8817,3.3312,2.7867,2.2833,1.4055,0.0685,-0.9087,-1.4156,-1.4089,-1.4367,-1.4455,-1.4489,-1.9016,-2.3604,-2.7915,-3.4338,-3.9872,-4.4377,-4.8171,-4.9343,-4.8523,-5.2332,-5.2602,-5.0823,-5.5717,-5.6925,-5.6362,-6.1744,-6.4392,-6.5397,-6.7992,-6.9412,-6.9963,-6.9192,-6.8385,-6.7724,-6.7687,-6.7687,-6.7834,-6.8678,-6.9449,-7.0073,-7.0073,-7.066,-7.1101,-7.0257,-6.9486,-6.8641,-6.7797,-6.699,-6.6219,-6.5411,-6.5382,-6.5274,-6.4445,-6.4973,-6.5874,-6.6842,-6.5667,-6.4628,-6.4628,-6.4628,0.0,-6.4628,-6.5397,-6.5897,-6.5859,-6.6551,-6.6705,-6.5974,-6.659,-6.709,-6.7128,-6.7128,-6.7898,-6.9629,-6.809,-6.8052,-6.9783,-6.9744,-6.8859,-6.7167,0.0,0.0,0.0,0.0,0.0,0.0,0.0,0.0,0.0,0.0,0.0,0.0,0.0,0.0,0.0,0.0,0.0,0.0,0.0,0.0,0.0,0.0,4.9462,4.9116,5.1329,5.3554,5.4848,5.2599,5.0748,5.0187,4.1675,3.4039,2.8799,2.3699,1.4678,0.0693,-0.9189,-1.4189,-1.4256,-1.459,-1.5753,-1.8271,-2.0562,-2.4557,-3.0499,-3.3985,-3.8981,-4.564,-4.6803,-4.8051,-4.942,-5.2231,-5.2795,-5.2137,-5.6093,-5.7732,-5.8148,-6.2301,-6.4073,-6.4621,-6.7773,-6.9412,-6.9963,-6.9192,-6.8752,-6.8458,-6.7871,-6.7687,-6.7834,-6.8678,-6.9045,-6.9339,-6.9926,-7.0257,-7.0257,-6.9449,-6.8641,-6.7687,-6.6292,-6.5338,-6.453,-6.3686,-6.3541,-6.3713,-6.4254,-6.4558,-6.485,-6.5191,-6.4897,-6.482,-6.5436,-6.5551,-6.5551,-6.5551,-6.5743,-6.5667,-6.5013,-6.5166,-6.5436,-6.5859,-6.609,-6.6744,-6.7975,-6.8052,-6.8552,-6.9667,-6.9783,-7.0667,-7.2437,-7.0629,-6.9475,0.0,0.0,0.0,0.0,0.0,0.0,0.0,0.0,0.0,0.0,0.0,0.0,0.0,0.0,0.0,0.0,0.0,0.0,0.0,0.0,0.0,0.0,5.2168,5.3229,5.3079,5.4429,5.5926,5.7032,5.4394,5.2391,5.1629,4.2969,3.5194,2.9976,2.4413,1.49,0.071,-0.941,-1.4652,-1.4397,-1.4808,-1.5816,-1.7754,-2.0355,-2.4509,-3.0083,-3.4565,-4.0066,-4.6289,-4.7445,-4.884,-5.0638,-5.2539,-5.3444,-5.4112,-5.7559,-5.9198,-5.9812,0.0,0.0,0.0,0.0,-6.8678,-6.9009,-6.8568,-6.8385,-6.8311,-6.7834,-6.7687,-6.7797,-6.8238,-6.8641,-6.8935,-6.9045,-6.9339,-6.9339,-6.8201,-6.754,-6.6769,-6.5191,-6.442,-6.387,-6.2989,-6.3168,-6.3525,-6.3804,-6.4203,0.0,-6.459,-6.4897,-6.5205,-6.532,-6.5667,-6.5782,-6.5397,-6.5667,-6.5705,-6.5205,-6.5436,-6.5705,-6.5897,-6.5897,0.0,0.0,0.0,-6.7205,-6.8052,-6.9244,0.0,0.0,0.0,-6.9513,-7.0206,-6.8706,0.0,0.0,-6.7128,-6.7667,0.0,0.0,0.0,0.0,0.0,0.0,0.0,0.0,0.0,0.0,0.0,0.0,0.0,0.0,0.0,0.0,5.7064,5.8724,5.8574,5.8303,5.758,5.6358,5.5334,5.3334,5.0283,4.3243,3.649,3.0546,2.4618,1.5118,0.1275,-0.9455,0.0,0.0,0.0,-1.5313,-1.4984,-1.9554,-2.4028,-2.8501,-3.587,-4.1779,-4.611,-4.8826,-5.0562,-5.1628,-5.2761,-5.4394,-5.6345,-5.957,-6.1205,-6.177,-6.3509,-6.4301,-6.4733,-6.7028,-6.776,-6.7687,-6.7687,0.0,0.0,-6.7797,-6.7834,-6.7834,-6.7944,-6.8421,-6.8752,-6.8017,-6.8274,-6.8421,-6.688,-6.6439,-6.5962,-6.4457,-6.4016,-6.3723,-6.2989,-6.355,-6.4067,-6.3352,-6.3962,-6.4603,-6.4718,-6.532,-6.5513,-6.4859,-6.5397,-6.5628,-6.4859,-6.5436,-6.5897,-6.5897,-6.6551,0.0,-6.6244,-6.609,-6.609,-6.6167,-6.5474,-6.5397,-6.6167,-6.7782,-6.9052,-6.9821,-6.909,-6.9398,-7.0898,-7.1014,-7.1091,-7.1129,-6.8783,-6.8975,0.0,0.0,0.0,0.0,0.0,0.0,0.0,0.0,0.0,0.0,0.0,0.0,0.0,0.0,0.0,5.8679,5.9644,6.0933,6.2673,6.0263,5.8372,5.807,5.6574,5.356,4.8772,4.2961,3.6374,2.8578,2.3999,1.6514,0.4708,-0.8414,-1.508,-1.4293,-1.5013,-1.5377,-1.5381,-1.9763,-2.4948,-3.1095,-3.5339,0.0,-4.4961,-4.6599,-4.8551,-5.071,-5.2062,-5.4793,-5.8221,-6.0139,-6.2966,-6.6039,-6.5958,-6.675,-6.7996,-6.8495,-6.8238,-6.7687,-6.7687,-6.7687,-6.7797,-6.8458,-6.8678,-6.8788,-6.9449,-6.9302,0.0,-6.8715,-6.8311,-6.7687,-6.6733,-6.6035,-6.5301,-6.431,-6.3576,-6.3025,-6.2842,-6.2965,-6.3325,-6.4029,-6.4291,-6.4709,-6.5486,-6.5205,-6.5013,-6.5551,-6.5782,-6.582,-6.5667,-6.5782,-6.5897,-6.5897,-6.6051,-6.6628,-6.7821,-6.7282,-6.7167,-6.7859,-6.7782,-6.7744,-6.7898,-6.9513,-7.0514,-7.0667,-7.0514,-7.0591,-7.0898,-7.1591,-7.2322,-7.2976,-7.1783,-7.2206,0.0,0.0,0.0,0.0,0.0,0.0,0.0,0.0,0.0,0.0,0.0,5.4648,0.0,0.0,6.0778,6.2691,6.3464,6.4009,6.4889,6.1782,5.9021,5.8079,5.5864,5.2353,4.7341,4.1834,3.5469,2.8368,2.4514,1.6634,0.3136,-0.4127,-1.0054,-1.4798,-1.374,-1.4964,-1.9183,-2.2179,-2.6918,-3.3421,-3.7472,-4.1723,-4.6127,-4.7775,-4.9502,-5.1494,-5.3751,-5.6855,-6.0614,-6.353,-6.6456,-6.9209,-6.8911,-6.9133,-6.9486,-6.9486,-6.8972,-6.8311,-6.8311,-6.8017,-6.776,-6.8164,-6.8568,-6.8972,-6.9376,-6.9229,-6.8898,-6.8898,-6.8311,-6.7504,-6.6696,-6.6219,-6.5595,-6.4383,-6.3759,-6.3319,-6.2915,-6.3215,-6.3766,-6.4294,-6.4803,-6.5329,-6.5808,-6.5859,-6.6013,-6.6436,-6.6859,-6.7167,-6.7167,-6.6782,-6.6667,-6.709,-6.6744,-6.6821,-6.7667,-6.6974,-6.6705,-6.7128,-6.7936,-6.8398,-6.8398,-7.0437,-7.1552,-7.1552,-7.1552,-7.1552,-7.1552,-7.1975,-7.2629,-7.3514,-7.3053,-7.3514,0.0,0.0,0.0,0.0,0.0,0.0,0.0,0.0,5.2722,5.5275,5.5901,5.6974,5.9727,6.2091,6.4247,6.6256,6.6791,6.6753,6.6,6.222,5.8841,5.7466,5.4835,5.0883,4.5525,4.0352,3.4724,2.8524,2.3665,1.4667,0.0564,-0.2118,-0.6603,-1.3847,-1.2545,-1.5195,-2.232,-2.4409,-2.8521,-3.461,-4.0066,-4.4344,-4.793,-4.9889,-5.1819,-5.3555,-5.6971,-6.0178,-6.3356,-6.7323,-6.98,-7.1151,-7.1436,-7.1138,-7.055,-7.0403,-6.9743,-6.8898,-6.8898,-6.8385,-6.7724,-6.7871,-6.8385,-6.8972,-6.9265,-6.9265,-6.9192,-6.9339,-6.8678,-6.7724,-6.6953,-6.6623,-6.6072,-6.4457,-6.409,-6.387,-6.2989,-6.3498,-6.4138,-6.4332,-6.5073,-6.5663,-6.5872,-6.6705,-6.7282,-6.7128,-6.7859,-6.8398,-6.8398,-6.7782,-6.7705,-6.8552,-6.8013,-6.7667,-6.7821,-6.6936,-6.6397,-6.6397,-6.7475,-6.8244,-6.8398,-7.0514,-7.1783,-7.1937,-7.1783,-7.1783,-7.1937,-7.1937,-7.2399,-7.3245,-7.3245,-7.3783,5.8619,5.6295,5.6381,5.907,5.8313,5.7734,0.0,0.0,5.8787,5.9439,6.1336,6.3199,6.4186,6.6939,6.8902,6.8594,6.814,6.7531,6.674,6.065,5.6626,5.7173,5.4802,5.0114,4.2912,3.9355,3.4724,2.8008,1.7966,0.8499,-0.0,-0.9163,-1.2709,-0.904,-1.2958,-1.6982,-2.0224,-2.351,-2.8048,-3.3776,-4.0898,-4.5799,-4.8903,-5.1848,-5.4324,-5.6647,-6.195,-6.5183,-6.6981,-6.9532,-7.0764,-7.1223,-7.2057,-7.2312,-7.2129,-7.1431,-7.022,-6.8898,-6.8898,-6.8385,-6.7797,-6.8531,-6.8825,-6.9192,-7.0624,-7.055,-7.011,-7.0844,-6.9963,-6.8568,-6.776,-6.7026,-6.6072,-6.4457,-6.409,-6.387,-6.2989,-6.2867,-6.3224,-6.4217,-6.4481,-6.4837,-6.5755,-6.7205,-6.7975,-6.7205,-6.7859,-6.8398,-6.8398,-6.8321,-6.859,-6.9475,-6.9475,-6.9706,-7.0398,-6.9052,-6.8129,-6.8129,-6.7552,-6.759,-6.8359,-6.9436,-7.0321,-7.1014,-7.036,-7.0321,-7.1052,-7.1052,-7.1475,-7.236,-7.236,-7.3206,6.3254,6.1332,6.0336,0.0,6.2199,6.1912,6.1967,6.1819,6.1992,6.3284,6.5321,6.7125,6.7756,6.898,6.9952,0.0,6.8494,6.7094,6.6794,6.065,5.6407,5.6865,5.3411,4.7826,4.011,3.8831,3.309,1.9807,1.0176,0.2188,-0.4526,-1.2026,-1.5112,-1.269,-1.6429,-2.0619,-2.5099,-2.854,-3.3714,-4.0725,-4.5445,-4.9257,-5.2271,-5.4366,-5.7507,-6.1309,-6.4254,-6.7279,-7.0062,-7.0124,-7.1175,-7.2571,-7.2526,-7.2496,-7.2459,-7.2129,-7.1284,-7.0257,-6.9779,-6.9082,-6.8385,-6.8238,-6.8531,-6.9045,-6.9706,-7.0,-7.0183,-7.0513,-6.9779,-6.8825,-6.8495,-6.7797,-6.6769,-6.5191,-6.4787,-6.442,-6.3099,-6.3271,-6.3855,-6.4294,-6.4871,-6.5541,-6.6423,-6.759,-6.8436,-6.859,-6.9321,-6.986,-6.986,-6.9436,-6.9321,-6.9667,-6.9706,-6.986,-7.0167,-6.909,-6.8167,-6.7667,-6.8244,-6.8552,-6.8398,-7.0167,-7.086,-7.0206,-7.0321,-7.009,-6.9436,-6.9937,-7.0629,-7.1437,-7.1437,-7.1822,6.472,0.0,0.0,6.4578,6.5549,6.589,6.4365,6.4541,6.5381,6.6854,6.7937,6.8994,6.9682,6.9295,6.8936,6.8988,6.7462,6.5791,6.4549,6.033,5.6873,5.6053,5.2152,4.6169,3.7655,3.8158,3.1176,1.2089,0.2856,-0.4985,-1.137,-1.5757,-1.8145,-1.8137,-2.0431,-2.4207,-2.9443,-3.3258,-3.8841,-4.5998,-4.9775,-5.2861,-5.538,-5.7674,-6.0971,-6.4801,-6.6279,-6.8965,-7.2221,-7.1124,-7.1986,-7.3964,-7.3156,-7.2826,-7.2789,-7.2569,-7.1982,-7.1248,-7.0624,-6.9889,-6.9119,-6.8274,-6.8421,-6.8898,-6.8898,-6.9302,-6.9816,-7.0036,-6.9522,-6.8898,-6.8898,-6.8311,-6.7283,-6.5705,-6.5301,-6.4861,-6.3172,-6.3543,-6.4217,-6.437,-6.5296,-6.6254,-6.6974,-6.8013,-6.8975,-6.959,-7.0398,-7.0898,-7.0898,-7.0206,-6.9706,-6.9706,-6.9475,-6.9436,-6.9667,-6.8898,-6.8244,-6.7821,-6.8783,-6.9167,-6.8783,-7.0514,-7.0937,-6.9706,-7.0052,-6.9744,-6.8783,-6.9167,-6.9898,-7.0898,-7.0898,-7.0898,0.0,0.0,6.3392,6.6044,6.7997,6.9116,6.888,6.9272,6.9725,6.9853,6.893,6.8355,6.902,6.7509,6.5831,6.456,6.4798,6.3616,5.935,5.856,5.7359,5.4577,5.1463,4.5705,0.0,3.7266,2.993,0.765,-0.367,-1.2904,-2.0476,-2.2692,-2.3581,-2.3163,-2.4865,-2.7381,-3.0792,-3.6264,-4.1539,-4.6617,-5.2553,-5.623,-5.7754,-6.1919,-6.4673,-6.6209,-6.8209,-7.0575,-7.3032,-7.2996,-7.3716,-7.4808,-7.3964,-7.367,-7.356,-7.2789,-7.1982,-7.1321,-7.1284,-7.0734,-6.9926,-6.9119,-6.8898,-6.8898,-6.8898,-6.8935,-6.9119,-6.9889,-6.9522,-6.8898,-6.8898,-6.8311,-6.7283,-6.5705,-6.5301,-6.4861,-6.3172,-6.3262,-6.3766,-6.4294,-6.5448,-6.6552,-6.7038,-6.8513,-6.9667,-6.9706,-7.0398,-7.0898,-7.0898,-7.0206,-6.9706,-6.9706,-6.8936,-6.8783,-6.9629,-6.8898,-6.8744,-6.959,-6.8898,-6.8821,-6.9629,-6.9744,-6.9744,-6.9706,-6.8898,-6.8859,-6.9667,-6.8859,-6.9283,-7.0898,-7.0898,-7.0898,0.0,0.0,6.6908,7.0047,7.1335,7.1752,7.1654,7.1748,7.1808,7.1298,6.8543,6.6041,6.5853,6.3167,6.0561,5.8958,5.9598,5.9183,5.6607,5.5289,5.3256,4.989,4.5855,0.0,0.0,0.0,0.0,0.7282,-0.1976,-1.0887,-2.0638,-2.0873,-2.0816,-2.0614,-2.5362,-2.9619,-3.3274,-4.0016,-4.6203,-5.1632,-5.6822,-6.0161,-6.2078,-6.4377,-6.6524,-6.8307,-7.0075,-7.1987,-7.385,-7.3547,-7.3993,-7.4845,-7.4001,-7.3377,-7.2863,-7.2606,-7.2349,-7.2018,-7.1505,-7.1138,-7.077,-6.9963,-6.9339,-6.8898,-6.8898,-6.8898,-6.8972,-6.9229,-6.9119,-6.8898,-6.8898,-6.8311,-6.743,-6.6366,-6.5705,-6.5007,-6.3906,-6.3907,-6.4178,-6.4332,-6.5721,-6.711,-6.7833,-6.8936,-6.9898,-7.0437,-7.0744,-7.0898,-7.0898,-7.0667,-7.0514,-7.0514,-6.9744,-6.959,-7.0437,-6.9744,-6.9398,-6.9667,-6.9937,-6.9937,-6.9706,-7.0206,-7.0244,-6.9706,-6.9398,-6.9129,-6.8859,-6.9129,-6.9552,-7.0129,-7.0667,-7.0591,0.0,6.8,6.9983,7.2732,7.3942,7.4426,7.4001,7.3911,7.3776,7.285,6.8032,6.3723,6.2557,5.853,5.4886,5.3012,5.3773,5.4232,5.2752,5.1998,5.0418,4.7167,4.4762,3.9271,0.0,0.0,0.0,0.6645,-0.1603,-1.0343,-2.0254,-2.1661,-2.2622,-2.2879,-2.9283,-3.4509,-3.8557,-4.5292,-5.1367,-5.6974,-6.0052,-6.249,-6.4522,-6.5877,-6.7557,-6.9321,-7.125,-7.2958,-7.4315,-7.4326,-7.4869,-7.5689,-7.4882,-7.4258,-7.3744,-7.345,-7.3377,-7.3193,-7.2129,-7.1725,-7.1615,-7.0807,-7.0183,-6.9669,-6.9082,-6.8898,-6.8862,-6.8568,-6.8458,-6.8458,-6.8458,-6.8091,-6.7504,-6.6696,-6.6109,-6.5521,-6.4714,-6.4905,-6.5238,-6.5238,-6.6765,-6.8205,-6.8783,-6.959,-7.0283,-7.0821,-7.0898,-7.0898,-7.0898,-7.0667,-7.0475,-7.0475,-6.9744,-6.959,-7.0398,-7.0014,-6.9821,-7.0129,-7.0591,-7.0667,-7.0167,-7.0629,-7.0514,-6.9706,-6.9706,-6.9436,-6.8859,-6.9436,-6.986,-7.0129,-7.0667,-7.0629,6.7752,7.0469,7.238,7.3695,7.5605,7.7007,7.5935,7.5677,7.5215,7.3623,6.7082,6.1077,0.0,0.0,4.9077,4.7042,4.8179,4.881,4.7612,4.9019,4.9275,0.0,0.0,0.0,0.0,0.0,0.0,0.4757,0.0,-1.1517,-1.9601,-2.4906,-2.8185,-2.9673,-3.5962,-4.1405,-4.5842,-5.1535,-5.7044,-6.2166,-6.2166,-6.3254,-6.5261,-6.6615,-6.8042,-6.9484,-7.1883,-7.3447,-7.4496,-7.544,-7.6396,-7.7194,-7.6387,-7.6056,-7.5946,-7.5175,-7.4918,-7.4698,-7.3156,-7.2606,-7.2422,-7.1651,-7.1358,-7.1027,-6.9486,-6.9009,-6.8788,-6.7981,-6.776,-6.7724,-6.7687,-6.7687,-6.7504,-6.6733,-6.6512,-6.6292,-6.5573,-6.6135,-6.6785,-6.6861,-6.8368,-6.9706,-6.9744,-7.0398,-7.0898,-7.0898,-7.0898,-7.0898,-7.0898,-7.0244,-6.9744,-6.9744,-6.8975,-6.8821,-6.9706,-6.9706,-7.0052,-7.086,-7.0898,-7.0937,-7.0975,-7.0937,-7.0552,-6.986,-6.9783,-6.9744,-6.9744,-6.9744,-7.0167,-7.0898,-7.0898,-7.0898,6.9565,7.169,7.3738,7.5097,7.6107,7.6295,7.4105,7.2944,7.1072,6.6186,5.9755,5.3831,0.0,0.0,0.0,4.0686,4.5266,0.0,4.5653,4.5976,0.0,4.3819,0.0,2.3198,1.1876,0.3011,0.0,0.0,-0.906,-1.0822,-1.7113,-2.2043,-2.5343,-2.6689,-3.4662,-4.1262,-4.6126,-5.4591,-6.0171,-6.2814,-6.2814,-6.4171,-6.6721,-6.7037,-6.8884,-7.1975,-7.3322,-7.4498,-7.5514,-7.6505,-7.6752,-7.6387,-7.6166,-7.5726,-7.5175,-7.4992,-7.4918,-7.4845,-7.4441,-7.3891,-7.3266,-7.2459,-7.1798,-7.1248,-7.0807,-7.0293,-6.9633,-6.8825,-6.8605,-6.8458,-6.7834,-6.7687,-6.765,-6.743,-6.6953,-6.6559,-6.6764,-6.678,-6.6938,-6.7303,-6.8663,-6.9898,-7.0475,-7.0744,-7.0898,-7.0898,-7.0898,-7.0898,-7.0898,-7.0706,-7.0591,-7.0591,-6.986,-6.9706,-7.0514,-7.0052,-7.0052,-7.086,-7.0898,-7.1206,-7.1822,-7.1245,-7.1091,-7.1552,-7.0937,-7.0591,-7.0591,-7.0591,-7.0706,-7.0898,-7.0898,-7.0898,7.249,7.4284,7.5736,7.6584,7.6427,7.5419,7.2269,7.0041,6.7065,6.1109,5.477,0.0,4.5262,0.0,0.0,0.0,0.0,0.0,4.141,4.0296,3.82,0.0,2.356,0.0,0.1327,-0.6136,-1.2021,0.0,-1.3323,-1.3189,-1.6272,-2.1994,-2.6134,-2.8331,-3.703,-4.4945,-5.1768,-5.8326,-6.2225,-6.3549,-6.3845,-6.5115,-6.7173,-6.7801,-6.9803,-7.2845,-7.3867,-7.489,-7.5865,-7.6866,-7.7047,-7.6644,-7.6644,-7.635,-7.5983,-7.5983,-7.5983,-7.5909,-7.5542,-7.5139,-7.4551,-7.3413,-7.2716,-7.2239,-7.1541,-7.0991,-7.0403,-6.9229,-6.8898,-6.8715,-6.7907,-6.7687,-6.7687,-6.7687,-6.7357,-6.7163,-6.7699,-6.7841,-6.8149,-6.8884,-6.9683,-7.036,-7.0821,-7.0898,-7.0898,-7.0898,-7.0898,-7.0898,-7.0898,-7.0898,-7.0898,-7.0898,-7.0514,-7.0398,-7.086,-7.0475,-7.0437,-7.086,-7.1245,-7.1668,-7.2168,-7.2091,-7.2091,-7.2206,-7.2091,-7.186,-7.1475,-7.1475,-7.1475,-7.1475,-7.1091,-7.0898,7.5501,7.7138,7.7973,7.7866,7.6768,7.4571,7.035,6.6828,6.2839,5.6688,0.0,4.5337,4.2725,3.8587,3.5128,3.3166,0.0,3.5125,3.6555,3.3271,2.8723,2.3173,1.3715,0.3044,-0.9315,-1.4177,-1.6743,-1.6813,-1.6601,-1.6697,-1.7202,-2.3462,-2.9226,-3.3751,-4.2193,-5.0693,-5.9132,-6.1759,-6.3378,-6.3875,-6.4734,-6.5878,-6.7212,-6.8702,-7.0717,-7.3063,-7.4098,-7.5049,-7.6094,-7.6956,-7.7304,-7.7304,-7.7304,-7.7304,-7.7304,-7.7304,-7.7304,-7.7231,-7.6497,-7.6203,-7.5836,-7.4221,-7.3707,-7.3413,-7.1908,-7.1468,-7.1138,-6.9522,-6.9082,-6.8862,-6.7944,-6.7687,-6.7741,-6.7757,-6.781,-6.7982,-6.8717,-6.9411,-7.0117,-7.1055,-7.1168,-7.1052,-7.1052,-7.0975,-7.0898,-7.0898,-7.0898,-7.0898,-7.0898,-7.0898,-7.0898,-7.0898,-7.0898,-7.0898,-7.0898,-7.0898,-7.0937,-7.1052,-7.1783,-7.2283,-7.2514,-7.3168,-7.3129,-7.2399,-7.3129,-7.3091,-7.2206,-7.2206,-7.2245,-7.236,-7.1475,-7.1129,7.7167,7.7973,7.8609,7.8663,7.7211,7.4126,6.806,6.2524,0.0,0.0,4.3688,4.006,3.613,3.5191,3.3853,3.0167,0.0,0.0,0.0,0.0,1.9907,0.0,0.0,0.0,0.0,-2.1045,0.0,0.0,-1.8027,-1.7882,-2.0903,-2.4645,-3.2209,-4.4208,-5.0246,-5.5498,-6.0178,-6.2113,-6.3179,-6.3284,-6.4498,-6.5878,-6.7235,-6.9484,-7.1765,-7.4052,-7.5133,-7.6136,-7.7019,-7.7243,-7.7304,-7.7304,-7.7304,-7.7304,-7.7304,-7.7304,-7.7304,-7.7304,-7.7157,-7.668,-7.5836,-7.4221,-7.3707,-7.3523,-7.2569,-7.2312,-7.1945,-7.033,-6.9889,-6.9559,-6.8054,-6.7687,-6.781,-6.8259,-6.8368,-6.88,-7.0536,-7.1871,-7.2801,-7.3024,-7.2476,-7.1975,-7.1975,-7.136,-7.0898,-7.0898,-7.0898,-7.0898,-7.0898,-7.0898,-7.0898,-7.0898,-7.0898,-7.0898,-7.0898,-7.0898,-7.1206,-7.1937,-7.2129,-7.2822,-7.4207,-7.3783,-7.3437,-7.3283,-7.3437,-7.3091,-7.2206,-7.2206,-7.2552,-7.3245,-7.236,-7.236,7.7584,7.9297,8.0408,7.8682,7.6435,7.2299,6.3046,0.0,0.0,0.0,3.8784,3.6282,3.317,0.0,0.0,0.0,0.0,0.0,0.0,0.0,0.0,0.0,0.0,0.0,0.0,-2.1983,-1.9565,-2.2625,-2.0466,-2.003,-2.2231,-3.0616,-3.9887,-5.0011,-5.5179,-5.8927,-6.0966,-6.2381,-6.3682,-6.4704,-6.5657,-6.689,-6.8272,-7.071,-7.2691,-7.433,-7.5322,-7.6409,-7.7304,-7.7304,-7.7304,-7.7304,-7.7304,-7.7304,-7.7304,-7.7304,-7.7304,-7.7304,-7.7304,-7.679,-7.5909,-7.4698,-7.4037,-7.356,-7.2753,-7.2496,-7.2239,-7.1064,-7.0734,-7.044,-6.9265,-6.8935,-6.9115,-6.9669,-7.021,-7.0873,-7.1817,-7.2824,-7.3514,-7.3514,-7.2783,-7.2206,-7.2206,-7.1475,-7.0898,-7.0898,-7.0898,-7.0898,-7.0898,-7.0898,-7.0898,-7.0898,-7.0898,-7.0898,-7.0898,-7.0898,-7.1091,-7.1514,-7.236,-7.3245,-7.4053,-7.4553,-7.4591,-7.413,-7.4591,-7.4361,-7.3514,-7.3514,-7.3707,-7.4091,-7.3283,-7.3091,7.6769,7.9006,8.0492,7.7664,7.4417,6.9119,5.8068,5.1575,0.0,0.0,3.4316,3.2494,3.1077,0.0,0.0,0.0,0.0,0.0,0.0,0.0,0.0,0.0,0.0,0.0,0.0,0.0,0.0,-2.3937,-2.3977,-2.4454,-2.5628,-3.7318,-4.704,-5.3336,-5.8128,-6.0907,-6.1872,-6.2989,-6.4377,-6.5894,-6.7051,-6.8292,-6.9628,-7.2024,-7.3645,-7.469,-7.5652,-7.6548,-7.7304,-7.7304,-7.7304,-7.7304,-7.7304,-7.7304,-7.7304,-7.7304,-7.7304,-7.7304,-7.7304,-7.668,-7.5726,-7.5139,-7.4368,-7.356,-7.2753,-7.2496,-7.2349,-7.1541,-7.1321,-7.1138,-7.0293,-7.011,-7.0256,-7.1018,-7.2122,-7.3051,-7.3051,-7.3576,-7.4053,-7.4053,-7.3322,-7.2668,-7.2514,-7.1898,-7.1398,-7.1206,-7.1321,-7.1475,-7.1475,-7.1475,-7.1398,-7.1206,-7.1014,-7.0898,-7.0898,-7.1052,-7.1245,-7.1437,-7.2899,-7.386,-7.4053,-7.5284,-7.5592,-7.4707,-7.5553,-7.5553,-7.4707,-7.4707,-7.4822,-7.4976,-7.413,-7.386,7.3637,7.5147,7.5759,7.5321,7.0624,6.3788,5.5007,0.0,0.0,3.2072,2.9118,2.7807,2.7889,2.5297,2.3488,0.0,0.0,0.9065,0.0,0.0,0.0,0.0,0.0,0.0,0.0,0.0,-2.0755,-2.2344,-2.9184,-3.369,-3.4785,-4.2522,-4.9239,-5.4713,-5.8552,-6.1345,-6.2989,-6.4232,-6.5031,-6.5207,-6.778,-6.9604,-7.0695,-7.3095,-7.4719,-7.5727,-7.6773,-7.7181,-7.7304,-7.7304,-7.7304,-7.7304,-7.7304,-7.7304,-7.7304,-7.7304,-7.7304,-7.7304,-7.7304,-7.6313,-7.5028,-7.4918,-7.4368,-7.356,-7.2753,-7.2496,-7.2349,-7.1541,-7.1321,-7.1138,-7.0293,-7.011,-7.0381,-7.1456,-7.3148,-7.4495,-7.4495,-7.5178,-7.5784,-7.5784,-7.5053,-7.4245,-7.3514,-7.3322,-7.2976,-7.2206,-7.2745,-7.3283,-7.3283,-7.3283,-7.2976,-7.2168,-7.136,-7.0898,-7.0898,-7.1629,-7.2437,-7.3206,-7.4091,-7.4938,-7.5745,-7.5938,-7.5592,-7.4707,-7.5553,-7.5553,-7.4707,-7.4707,-7.513,-7.5861,-7.4976,-7.5014,7.2589,7.4992,7.5402,7.1834,6.7245,6.0655,4.9638,0.0,0.0,3.0171,2.8006,2.6729,2.4908,2.473,2.357,1.9668,0.0,0.0,0.0,0.0,0.0,0.0,0.0,0.0,0.0,0.0,-2.1995,-2.5249,-3.013,-3.5957,-4.3054,-4.8854,-5.3429,-5.6678,-6.0265,-6.2739,-6.4236,-6.4832,-6.587,-6.7553,-6.869,-7.0205,-7.1988,-7.3593,-7.4869,-7.5851,-7.6836,-7.7304,-7.7304,-7.7304,-7.7304,-7.7304,-7.7304,-7.7304,-7.7304,-7.7304,-7.7304,-7.7304,-7.7304,-7.6276,-7.4992,-7.5469,-7.4441,-7.2936,-7.2606,-7.2496,-7.2422,-7.2129,-7.2018,-7.1835,-7.1027,-7.1309,-7.2089,-7.3075,-7.444,-7.563,-7.613,-7.613,-7.6169,-7.6669,-7.5668,-7.4591,-7.4284,-7.3822,-7.3399,-7.3014,-7.3283,-7.3514,-7.3514,-7.3514,-7.336,-7.3014,-7.2668,-7.2245,-7.1745,-7.2476,-7.3129,-7.3476,-7.4284,-7.4861,-7.5207,-7.5707,-7.5822,-7.5476,-7.5822,-7.5822,-7.5476,-7.5476,-7.5668,-7.5976,-7.563,-7.5668,6.8013,7.0876,7.2148,6.7379,6.2105,5.5574,0.0,0.0,0.0,2.7659,2.5881,2.4701,2.3065,2.2889,2.0723,1.3681,0.0,0.1417,0.0,0.0,0.0,0.0,0.0,0.0,0.0,-2.2618,-2.2671,-2.7075,-3.2865,-3.9521,-4.75,-5.305,-5.6719,-5.8639,-6.1608,-6.3698,-6.5125,-6.552,-6.6882,-6.9232,-6.9622,-7.1019,-7.3297,-7.3974,-7.4982,-7.6301,-7.6986,-7.7304,-7.7304,-7.7304,-7.7304,-7.7304,-7.7304,-7.7304,-7.7304,-7.7304,-7.7304,-7.7304,-7.7304,-7.6423,-7.5359,-7.5909,-7.4808,-7.3193,-7.2936,-7.2679,-7.2496,-7.2496,-7.2496,-7.2406,-7.2042,-7.2645,-7.3581,-7.4354,-7.5274,-7.6245,-7.7092,-7.6823,-7.6553,-7.7169,-7.6322,-7.5322,-7.4784,-7.4437,-7.4168,-7.3899,-7.4091,-7.4245,-7.4245,-7.4245,-7.413,-7.3899,-7.4091,-7.3783,-7.2668,-7.336,-7.386,-7.386,-7.4861,-7.5361,-7.5091,-7.5938,-7.6245,-7.6015,-7.6015,-7.6015,-7.6015,-7.6015,-7.6015,-7.6015,-7.6015,-7.6015,5.7921,6.1058,6.3585,6.1609,5.4979,4.7354,0.0,0.0,2.7635,2.3707,2.1233,2.0364,2.2545,1.8659,1.3099,0.6725,0.2396,0.0,0.0,0.0,0.0,0.0,0.0,0.0,0.0,-2.0714,-2.3051,-2.6426,-3.8446,-4.6133,-4.7181,-5.4078,-5.871,-6.0441,-6.2195,-6.3789,-6.5111,-6.6486,-6.7845,-6.9232,-7.0603,-7.2361,-7.4261,-7.433,-7.5409,-7.7304,-7.7304,-7.7304,-7.7304,-7.7304,-7.7304,-7.7304,-7.7304,-7.7304,-7.7304,-7.7304,-7.7304,-7.7304,-7.7304,-7.679,-7.6093,-7.6093,-7.5542,-7.4735,-7.3927,-7.312,-7.2496,-7.2496,-7.2496,-7.263,-7.3238,-7.3841,-7.4384,-7.498,-7.5551,-7.6245,-7.7092,-7.7284,-7.7284,-7.7284,-7.7284,-7.6746,-7.5014,-7.5399,-7.5668,-7.4822,-7.5438,-7.5976,-7.5976,-7.5976,-7.563,-7.4784,-7.5476,-7.5284,-7.363,-7.4207,-7.4707,-7.4707,-7.6322,-7.6899,-7.6015,-7.6823,-7.6861,-7.6015,-7.6015,-7.6015,-7.6015,-7.6015,-7.6015,-7.6015,-7.6015,-7.6015,5.4069,5.5721,5.625,5.2936,4.7328,4.1559,3.6453,0.0,2.5717,2.1849,2.1509,2.0086,1.4164,1.0645,0.7076,0.2584,-0.3676,0.0,0.0,0.0,0.0,0.0,0.0,0.0,0.0,0.0,-2.5251,-3.0307,-3.9465,-4.7191,-5.2694,-5.7245,-5.9972,-6.0464,-6.3063,-6.5111,-6.6574,-6.7912,-6.928,-7.0603,-7.1051,-7.2361,-7.4261,-7.433,-7.5409,-7.7304,-7.7304,-7.7304,-7.7304,-7.7304,-7.7304,-7.7304,-7.7304,-7.7304,-7.7304,-7.7304,-7.7304,-7.7304,-7.7304,-7.679,-7.6093,-7.6093,-7.5579,-7.4771,-7.3927,-7.3523,-7.3193,-7.2642,-7.2092,-7.1968,-7.3127,-7.3841,-7.4577,-7.5704,-7.6432,-7.7092,-7.7938,-7.7669,-7.7438,-7.8015,-7.813,-7.7746,-7.6669,-7.7169,-7.7246,-7.5784,-7.6322,-7.6669,-7.6092,-7.6015,-7.613,-7.6438,-7.6707,-7.6207,-7.4476,-7.5668,-7.6476,-7.6476,-7.7515,-7.7746,-7.6899,-7.713,-7.6899,-7.6015,-7.6015,-7.6015,-7.6015,-7.6015,-7.6015,-7.6015,-7.6015,-7.6015,0.0,4.9548,5.0086,4.687,4.1888,0.0,0.0,0.0,0.0,2.147,2.0531,1.747,0.9018,0.5273,0.1712,-0.3467,-0.9198,0.0,0.0,0.0,0.0,0.0,0.0,0.0,0.0,-2.4054,-2.7512,-3.3518,-4.1012,-4.8349,-5.5041,-5.8692,-6.1051,-6.2231,-6.4087,-6.6048,-6.7974,-6.8797,-6.9949,-7.1312,-7.1312,-7.2376,-7.4302,-7.432,-7.5409,-7.7304,-7.7304,-7.7304,0.0,-7.7304,-7.7304,-7.7304,-7.7304,-7.7304,-7.7304,-7.7304,-7.7304,-7.7304,-7.7304,-7.6974,-7.6497,-7.6203,-7.5359,-7.4368,-7.3854,-7.3487,-7.312,-7.2642,-7.2539,-7.2812,-7.3938,-7.4846,-7.5852,-7.695,-7.7483,-7.7977,-7.8823,-7.8592,-7.84,-7.89,-7.8977,-7.8707,-7.79,-7.8169,-7.813,-7.7092,-7.74,-7.7553,-7.7015,-7.6938,-7.713,-7.7669,-7.7746,-7.7323,-7.6245,-7.713,-7.7746,-7.7746,-7.8515,-7.8477,-7.7361,-7.7592,-7.7207,-7.6015,-7.6015,-7.6015,-7.6015,-7.6015,-7.6015,-7.6015,-7.6015,-7.6015,0.0,0.0,0.0,0.0,0.0,0.0,0.0,0.0,0.0,0.0,0.0,1.2723,0.632,0.1727,-0.3471,-1.0649,0.0,0.0,0.0,0.0,0.0,0.0,0.0,0.0,-2.0233,-2.4514,-2.9952,-3.6156,-4.3587,-5.008,-5.5154,-5.8783,-6.2231,-6.5111,-6.5328,-6.6647,-6.9217,-6.9313,-7.0043,-7.1312,-7.1312,-7.2364,-7.4275,-7.429,-7.5409,-7.7304,-7.7304,-7.7304,-7.7304,-7.7304,-7.7304,-7.7304,-7.7304,-7.7304,-7.7304,-7.7304,-7.7304,-7.7304,-7.7304,-7.7304,-7.7194,-7.6423,-7.5102,-7.378,-7.3854,-7.3266,-7.2606,-7.2606,-7.3609,-7.4823,-7.5404,-7.6686,-7.7908,-7.8461,-7.8592,-7.8823,-7.9631,-7.9823,-7.9823,-7.9823,-7.9862,-7.9631,-7.8746,-7.8631,-7.8631,-7.8515,-7.8554,-7.8554,-7.8515,-7.8477,-7.8515,-7.8592,-7.8592,-7.8631,-7.8669,-7.8631,-7.8592,-7.8592,-7.9361,-7.9054,-7.7438,-7.8054,-7.763,-7.6015,-7.6015,-7.6015,-7.6015,-7.6015,-7.6015,-7.6015,-7.6015,-7.6015,2.7399,0.0,3.1542,2.997,2.6437,2.3692,0.0,0.0,0.0,0.0,0.0,0.0,0.0,0.0,0.0,0.0,0.0,0.0,0.0,0.0,0.0,0.0,0.0,-2.6591,-2.5428,-3.098,-3.6692,-4.1926,-4.9352,-5.5258,-5.8992,-6.2258,-6.483,-6.6647,-6.7673,-6.8601,-6.9217,-7.0263,-7.1007,-7.1312,-7.1312,-7.2364,-7.4275,-7.429,-7.5409,-7.7304,-7.7304,-7.7304,-7.7304,-7.7304,-7.7304,-7.7304,-7.7304,-7.7304,-7.7304,-7.7304,-7.7304,-7.7304,-7.7304,-7.7304,-7.7304,-7.7084,-7.5946,-7.4735,-7.5359,-7.4551,-7.3413,-7.3413,-7.446,-7.572,-7.627,-7.748,-7.8748,-7.9345,-7.9477,-7.9554,-7.9746,-7.9823,-7.9823,-7.9823,-8.0323,-8.0516,-7.9631,-8.0054,-8.0054,-7.8707,-7.9054,-7.9246,-7.8592,-7.8477,-7.8746,-7.9438,-7.9477,-7.9746,-8.0439,-7.9862,-7.9477,-7.9477,-7.9708,-7.9323,-7.8246,-7.7784,-7.7092,-7.6015,-7.6015,-7.6015,-7.6015,-7.6015,-7.6015,-7.6015,-7.6015,-7.6015,2.147,2.3933,2.6776,2.5905,2.3475,2.0599,0.0,0.0,0.0,0.0,0.0,0.0,0.0,0.0,0.0,0.0,0.0,0.0,0.0,0.0,0.0,0.0,0.0,-2.8932,0.0,-3.4638,-4.0898,-4.7022,-5.2379,-5.7186,-6.1202,-6.3802,-6.6048,-6.8074,-6.8797,-6.9504,-7.017,-7.0916,-7.1312,-7.1312,-7.1776,-7.2832,-7.431,-7.4788,-7.5835,-7.7304,-7.7304,-7.7304,-7.7304,-7.7304,-7.7304,-7.7304,-7.7304,-7.7304,-7.7304,-7.7304,-7.7304,-7.7304,-7.7304,-7.7059,-7.6766,-7.679,-7.5909,-7.4992,-7.5432,-7.5212,-7.4757,-7.4755,-7.5776,-7.6986,-7.7538,-7.879,-7.9987,-8.0299,-8.04,-8.04,-8.04,-8.04,-8.04,-8.04,-8.0785,-8.0939,-8.0477,-8.0785,-8.0785,-7.9823,-8.0092,-8.0246,-7.9746,-7.9323,-7.9438,-8.0285,-8.0054,-8.0169,-8.1016,-8.0669,-8.04,-8.04,-8.0015,-7.94,-7.8515,-7.7707,-7.6899,-7.6015,-7.6015,-7.6015,-7.6015,-7.6015,-7.6015,-7.6015,-7.6015,-7.6015,1.8206,2.0519,2.3171,2.3776,2.1484,1.7436,1.0835,0.0,0.0,0.0,0.0,0.0,0.0,0.0,0.0,0.0,0.0,0.0,0.0,0.0,0.0,0.0,0.0,0.0,-3.1571,-3.7578,-4.4355,-5.1514,-5.4466,-5.7938,-6.2714,-6.4549,-6.6543,-6.9121,-6.9409,-7.0043,-7.1312,-7.1312,-7.1312,-7.1312,-7.2364,-7.3332,-7.431,-7.5334,-7.6384,-7.7304,-7.7304,-7.7304,-7.7304,-7.7304,-7.7304,-7.7304,-7.7304,-7.7304,-7.7304,-7.7304,-7.7304,-7.7304,-7.7304,-7.6876,-7.6265,-7.6252,-7.5836,-7.5285,-7.5285,-7.5786,-7.6449,-7.6409,-7.7276,-7.8321,-7.8902,-8.0072,-8.1093,-8.1093,-8.1093,-8.1093,-8.1093,-8.1093,-8.1093,-8.1093,-8.1093,-8.1093,-8.1093,-8.1093,-8.1093,-8.1093,-8.1093,-8.1093,-8.1093,-8.0477,-8.0285,-8.1016,-8.0439,-8.0285,-8.1054,-8.1093,-8.1093,-8.1093,-8.0285,-7.9361,-7.8361,-7.7669,-7.6899,-7.6015,-7.6015,-7.6015,-7.6015,-7.6015,-7.6015,-7.6015,-7.6015,-7.6053,1.3213,1.0822,0.9755,1.2919,0.8464,0.3158,0.2014,0.0,0.0,0.0,0.0,0.0,0.0,0.0,0.0,0.0,0.0,0.0,0.0,0.0,-2.9128,-2.4542,0.0,-3.5173,-3.5192,-4.2712,-4.9553,-5.4663,-5.7944,-6.1202,-6.45,-6.6122,-6.7572,-6.9121,-7.0356,-7.1098,-7.1312,-7.1312,-7.1312,-7.1312,-7.2364,-7.3332,-7.431,-7.5334,-7.6384,-7.7304,-7.7304,-7.7304,-7.7304,-7.7304,-7.7304,-7.7304,-7.7304,-7.7304,-7.7304,-7.7304,-7.7304,-7.7304,-7.7304,-7.7268,-7.7096,-7.7157,-7.7047,-7.6937,-7.6937,-7.7414,-7.8085,-7.8527,-7.885,-7.9146,-7.9778,-8.0493,-8.1093,-8.1093,-8.1093,-8.1093,-8.1093,-8.1093,-8.1093,-8.1093,-8.1093,-8.1093,-8.1093,-8.1093,-8.1093,-8.1093,-8.1093,-8.1093,-8.1093,-8.0977,-8.0939,-8.1093,-8.0977,-8.0939,-8.1093,-8.1093,-8.1093,-8.1093,-8.0285,-7.9092,-7.7553,-7.7361,-7.6899,-7.6015,-7.6015,-7.6015,-7.6015,-7.6015,-7.6015,-7.6015,-7.6015,-7.6399,1.1811,0.8695,0.4466,-0.1042,-0.5156,-0.8184,-1.0321,0.0,0.0,0.0,0.0,0.0,0.0,0.0,0.0,0.0,0.0,0.0,-2.8427,-2.8616,-2.8569,0.0,0.0,-3.8055,-3.9706,-4.7333,-5.3765,-5.7141,-5.9986,-6.3033,-6.6016,-6.7572,-6.8927,-7.0263,-7.0603,-7.0703,-7.0703,-7.0331,-7.0534,-7.1312,-7.288,-7.385,-7.431,-7.5862,-7.6838,-7.7304,-7.7304,-7.7304,-7.7304,-7.7304,-7.7304,-7.7304,-7.7304,-7.7304,-7.7304,-7.7304,-7.7304,-7.7304,-7.7304,-7.7304,-7.7304,-7.7304,-7.7304,-7.7304,-7.7304,-7.7772,-7.8438,-7.902,-7.9425,-7.9847,-8.0463,-8.0855,-8.1093,-8.1093,-8.1093,-8.1093,-8.1093,-8.1093,-8.1093,-8.1093,-8.1093,-8.1093,-8.1093,-8.1093,-8.1093,-8.1093,-8.1093,-8.1093,-8.1093,-8.0708,-8.0592,-8.1054,-8.0669,-8.0592,-8.1054,-8.1093,-8.09,-8.0439,-8.0015,-7.9054,-7.7361,-7.7284,-7.6899,-7.6015,-7.6015,-7.6015,-7.6015,-7.6015,-7.6245,-7.6707,-7.6707,-7.713,1.1543,0.88,0.2664,-1.0445,-1.2922,-1.3605,-1.836,-1.8231,0.0,0.0,0.0,0.0,0.0,0.0,0.0,0.0,0.0,-2.7915,-3.0104,-2.9231,-2.9352,-3.1488,-3.6411,-4.1116,-4.4678,-5.135,-5.6678,-5.9459,-6.1851,-6.4457,-6.747,-6.8601,-6.9855,-7.1222,-7.0567,-7.0195,-7.0195,-6.9451,-6.9755,-7.1041,-7.3088,-7.4133,-7.4385,-7.6366,-7.7304,-7.7304,-7.7121,-7.7047,-7.7047,-7.7047,-7.7047,-7.7047,-7.7231,-7.7304,-7.7304,-7.7304,-7.7304,-7.7304,-7.7304,-7.7304,-7.7304,-7.7304,-7.7304,-7.7329,-7.7503,-7.7977,-7.8666,-7.9252,-7.9847,-8.0463,-8.0959,-8.1093,-8.1093,-8.1093,-8.1093,-8.1093,-8.1093,-8.1093,-8.1093,-8.1093,-8.1093,-8.1093,-8.1093,-8.1093,-8.1093,-8.1093,-8.1093,-8.1093,-8.1093,-8.0516,-8.0362,-8.1016,-8.0516,-8.0362,-8.1054,-8.1093,-8.0823,-8.0169,-8.0092,-7.9438,-7.7938,-7.79,-7.74,-7.6322,-7.6476,-7.6476,-7.6284,-7.6476,-7.6938,-7.7592,-7.74,-7.7707,1.1543,0.8815,0.2904,-0.8799,-0.905,0.0,-1.6276,-1.6852,0.0,-1.9039,0.0,0.0,0.0,0.0,0.0,0.0,0.0,-2.5381,-2.859,0.0,-3.603,-3.4857,-4.0739,-4.6353,-5.0391,-5.406,-5.7906,-6.2025,-6.3914,-6.6122,-6.8894,-6.9121,-6.9855,-7.1222,-7.0567,-7.0195,-7.0195,-6.9451,-6.9485,-7.0263,-7.2364,-7.3602,-7.4385,-7.6366,-7.7304,-7.7268,-7.6533,-7.6203,-7.6203,-7.6203,-7.6166,-7.624,-7.7011,-7.7304,-7.7304,-7.7304,-7.7304,-7.7304,-7.7304,-7.7304,-7.7304,-7.7304,-7.7304,-7.74,-7.8067,-7.8643,-7.9252,-7.9888,-8.0499,-8.1061,-8.1093,-8.1093,-8.1093,-8.1093,-8.1093,-8.1093,-8.1093,-8.1093,-8.1093,-8.1093,-8.1093,-8.1093,-8.1093,-8.1093,-8.1093,-8.1093,-8.1093,-8.1093,-8.1093,-8.1054,-8.1016,-8.1093,-8.1054,-8.1016,-8.1093,-8.1093,-8.1054,-8.1016,-8.1016,-8.0592,-7.9669,-7.9631,-7.8861,-7.7246,-7.7938,-7.7938,-7.7207,-7.7938,-7.8361,-7.84,-7.763,-7.7707,1.1543,0.6716,0.0153,-0.6455,-0.8985,0.0,0.0,-1.8484,-1.9193,-2.0889,-2.2673,0.0,0.0,0.0,0.0,0.0,0.0,-3.2525,-3.4077,-3.6953,-3.9617,-4.144,-4.5215,-4.9017,-5.2501,-5.6768,-6.0279,-6.243,-6.4925,-6.7266,-6.9088,-6.961,-7.0085,-7.0601,-6.9417,-6.8774,-6.8774,-6.803,-6.8574,-7.0457,-7.2325,-7.3936,-7.5263,-7.6117,-7.657,-7.6533,-7.5726,-7.5359,-7.5395,-7.5909,-7.6069,-7.6216,-7.6949,-7.7304,-7.7304,-7.7304,-7.7304,-7.7304,-7.7304,-7.7304,-7.7304,-7.7304,-7.7304,-7.7473,-7.8125,-7.8429,-7.8763,-7.9387,-7.9969,-8.0573,-8.0991,-8.1093,-8.1093,-8.1093,-8.1093,-8.1093,-8.1093,-8.1093,-8.1093,-8.1093,-8.1093,-8.1093,-8.1093,-8.1093,-8.1093,-8.1093,-8.1093,-8.1093,-8.1093,-8.1093,-8.1093,-8.1093,-8.1093,-8.1093,-8.1093,-8.1093,-8.1093,-8.1093,-8.1093,-8.0708,-7.9862,-7.9823,-7.9246,-7.8054,-7.8361,-7.8361,-7.8054,-7.8361,-7.8477,-7.8477,-7.8169,-7.8207,1.155,0.7365,0.1225,0.0,0.0,0.0,-1.5988,-1.8081,-1.9885,-2.1655,-2.392,-2.5122,-2.3952,0.0,0.0,0.0,-3.2897,-3.6772,-3.8062,-4.0215,-4.2675,-4.5627,-4.879,-5.2024,-5.5124,-5.8806,-6.1728,-6.326,-6.5709,-6.7677,-6.8792,-6.9736,-7.0094,-6.9857,-6.8571,-6.7895,-6.7895,-6.7724,-6.8819,-7.1063,-7.2862,-7.4332,-7.5426,-7.5907,-7.5946,-7.5689,-7.4882,-7.4515,-7.4588,-7.5359,-7.5849,-7.6155,-7.6741,-7.6778,-7.657,-7.6827,-7.6937,-7.6974,-7.7231,-7.7304,-7.7365,-7.7555,-7.7614,-7.7752,-7.8404,-7.8602,-7.8666,-7.9067,-7.9642,-8.0201,-8.0643,-8.0959,-8.1093,-8.1093,-8.1093,-8.1093,-8.1093,-8.1093,-8.1093,-8.1093,-8.1093,-8.1093,-8.1093,-8.1093,-8.1093,-8.1093,-8.1093,-8.1093,-8.1093,-8.1093,-8.1093,-8.1093,-8.1093,-8.1093,-8.1093,-8.1093,-8.1093,-8.1093,-8.1093,-8.0823,-8.0246,-8.0208,-7.9785,-7.8938,-7.9169,-7.9169,-7.89,-7.9169,-7.9323,-7.9323,-7.9054,-7.8746,1.156,1.1504,0.0,0.0,0.0,0.0,-1.3146,-1.5062,-1.751,-2.0761,-2.2566,-2.4411,-2.6928,-2.7689,0.0,-3.258,-3.4186,-3.6154,-3.8933,-4.2872,-4.5753,-4.6515,-5.128,-5.5637,-5.8584,-5.9843,-6.1733,-6.4861,-6.6438,-6.7451,-6.8068,-6.9434,-6.9823,-6.9113,-6.8301,-6.7895,-6.7895,-6.8957,-7.0406,-7.2082,-7.3895,-7.4632,-7.4632,-7.5651,-7.5652,-7.4845,-7.4037,-7.367,-7.3744,-7.4574,-7.5359,-7.6081,-7.6074,-7.5595,-7.4992,-7.5799,-7.6093,-7.624,-7.7047,-7.7304,-7.745,-7.8048,-7.8282,-7.8409,-7.9015,-7.921,-7.9198,-7.9198,-7.96,-8.0087,-8.0087,-8.0608,-8.1093,-8.1093,-8.1093,-8.1093,-8.1093,-8.1093,-8.1093,-8.1093,-8.1093,-8.1093,-8.1093,-8.1093,-8.1093,-8.1093,-8.1093,-8.1093,-8.1093,-8.1093,-8.1093,-8.1093,-8.1093,-8.1093,-8.1093,-8.1093,-8.1093,-8.1093,-8.1093,-8.1093,-8.1093,-8.1093,-8.0708,-7.9823,-8.0669,-8.0669,-7.9823,-8.0669,-8.1093,-8.1054,-8.0208,-7.9323,1.157,0.0,0.0,0.0,0.0,0.0,0.0,-1.3903,0.0,0.0,-2.5409,-2.7139,-2.9191,-3.0774,0.0,-3.4255,-3.7641,-4.0641,-4.2736,-4.5137,-4.8068,-5.1605,-5.4027,-5.6425,-5.9069,-6.0704,-6.2596,-6.4942,-6.5523,-6.6647,-6.873,-6.8668,-6.847,-6.8267,-6.7523,-6.7418,-6.8097,-6.9046,-7.075,-7.3105,-7.3627,-7.4457,-7.5651,-7.5385,-7.4808,-7.4001,-7.3193,-7.2863,-7.2936,-7.3722,-7.4519,-7.5299,-7.5859,-7.5573,-7.5058,-7.6447,-7.6607,-7.624,-7.7047,-7.7304,-7.7389,-7.8071,-7.8288,-7.8432,-7.9039,-7.8887,-7.8588,-7.8588,-7.901,-7.9469,-7.9469,-8.0277,-8.1093,-8.1093,-8.1093,-8.1093,-8.1093,-8.1093,-8.1093,-8.1093,-8.1093,-8.1093,-8.1093,-8.1093,-8.1093,-8.1093,-8.1093,-8.1093,-8.1093,-8.1093,-8.1093,-8.1093,-8.1093,-8.1093,-8.1093,-8.1093,-8.1093,-8.1093,-8.1093,-8.1093,-8.1093,-8.1093,-8.0977,-8.0708,-8.0977,-8.0977,-8.0708,-8.0977,-8.0785,-8.0169,-7.9939,-7.9323,0.6923,0.0,0.0,0.0,0.0,0.0,0.0,0.0,0.0,0.0,0.0,-2.8714,-3.0721,-3.3469,0.0,-3.6839,-4.0785,-4.3948,-4.5044,-4.7399,-5.0216,-5.3557,-5.5565,-5.7551,-5.9721,-6.1232,-6.2829,-6.4547,-6.5198,-6.6161,-6.7781,-6.8176,-6.8098,-6.7489,-6.7049,-6.7209,-6.8189,-6.9764,-7.1549,-7.3507,-7.4196,-7.4931,-7.5616,-7.4808,-7.3964,-7.3193,-7.2716,-7.2679,-7.3031,-7.3523,-7.4015,-7.4469,-7.4941,-7.4632,-7.4175,-7.5726,-7.6056,-7.5823,-7.7223,-7.771,-7.7846,-7.8754,-7.9048,-7.8972,-7.8775,-7.8699,-7.8565,-7.8006,-7.8491,-7.9244,-7.9513,-8.0315,-8.1093,-8.1093,-8.1093,-8.1093,-8.1093,-8.1093,-8.1093,-8.1093,-8.1093,-8.1093,-8.1093,-8.1093,-8.1093,-8.1093,-8.1093,-8.1093,-8.1093,-8.1093,-8.1093,-8.1093,-8.1093,-8.1093,-8.1093,-8.1093,-8.1093,-8.1093,-8.1093,-8.1093,-8.1093,-8.1093,-8.1093,-8.1093,-8.1093,-8.1093,-8.1093,-8.1093,-8.0823,-8.0323,-8.0323,-7.9862,0.0,0.0,0.0,0.0,0.0,0.0,0.0,0.0,-2.0037,-2.1838,0.0,-2.9597,-3.1915,-3.5706,-3.8906,-3.9924,-4.3317,-4.6111,-4.6363,-4.9163,-5.1754,-5.3495,-5.6263,-5.8703,-6.0336,-6.1552,-6.2668,-6.3902,-6.5338,-6.6193,-6.6186,-6.7959,-6.8368,-6.6948,-6.693,-6.7373,-6.8343,-7.0867,-7.2547,-7.3566,-7.5103,-7.5506,-7.4771,-7.4037,-7.3266,-7.2496,-7.2496,-7.292,-7.3566,-7.3566,-7.3566,-7.3603,-7.3676,-7.3214,-7.2679,-7.4331,-7.4845,-7.511,-7.7237,-7.8031,-7.826,-7.9415,-7.9857,-7.9665,-7.8371,-7.8535,-7.8888,-7.7541,-7.8215,-7.9425,-7.9969,-8.0608,-8.1093,-8.1093,-8.1093,-8.1093,-8.1093,-8.1093,-8.1093,-8.1093,-8.1093,-8.1093,-8.1093,-8.1093,-8.1093,-8.1093,-8.1093,-8.1093,-8.1093,-8.1093,-8.1093,-8.1093,-8.1093,-8.1093,-8.1093,-8.1093,-8.1093,-8.1093,-8.1093,-8.1093,-8.1093,-8.1093,-8.1093,-8.1093,-8.1093,-8.1093,-8.1093,-8.1093,-8.1093,-8.1093,-8.1093,-8.0669,0.0,0.0,0.0,0.0,0.0,0.0,0.0,0.0,0.0,-2.6904,-2.9385,-3.2568,-3.6232,-3.8075,-3.9844,-4.3038,-4.4753,-4.6412,-4.9171,-5.0232,-5.2337,-5.6497,-5.7524,-5.8766,-6.0757,-6.2031,-6.3171,-6.4012,-6.5254,-6.6766,-6.8337,-6.8229,-6.7996,-6.7658,-6.7809,-6.8378,-6.9386,-7.1261,-7.2734,-7.3653,-7.4052,-7.4111,-7.3964,-7.378,-7.3266,-7.2496,-7.2496,-7.2606,-7.2716,-7.2716,-7.2716,-7.2789,-7.345,-7.323,-7.2679,-7.4331,-7.4515,-7.4074,-7.5242,-7.5958,-7.6439,-7.7191,-7.7748,-7.8066,-7.7759,-7.8252,-7.878,-7.7945,-7.8782,-7.9929,-8.0086,-8.0608,-8.1093,-8.1093,-8.1093,-8.1093,-8.1093,-8.1093,-8.1093,-8.1093,-8.1093,-8.1093,-8.1093,-8.1093,-8.1093,-8.1093,-8.1093,-8.1093,-8.1093,-8.1093,-8.1093,-8.1093,-8.1093,-8.1093,-8.1093,-8.1093,-8.1093,-8.1093,-8.1093,-8.1093,-8.1093,-8.1093,-8.1093,-8.1093,-8.1093,-8.1093,-8.1093,-8.1093,-8.1093,-8.1093,-8.1093,-8.1016,0.0,0.0,0.0,0.0,0.0,0.0,0.0,0.0,0.0,0.0,-3.4173,-3.5857,-3.7775,-3.9945,-4.2052,-4.4016,-4.6138,-4.8566,-5.1124,-5.2247,-5.435,-5.8215,-5.8682,-5.9314,-6.0969,-6.2272,-6.3505,-6.4473,-6.6122,-6.7629,-6.8992,-6.8707,-6.8132,-6.7421,-6.757,-6.7915,-6.8539,-7.0704,-7.219,-7.312,-7.3523,-7.3303,-7.2569,-7.2936,-7.2899,-7.2496,-7.2496,-7.2496,-7.2496,-7.2496,-7.2496,-7.2532,-7.2973,-7.2899,-7.2642,-7.3891,-7.4074,-7.3897,-7.5288,-7.5968,-7.6375,-7.7298,-7.7793,-7.7973,-7.772,-7.8218,-7.8866,-7.8511,-7.9241,-8.0163,-8.0499,-8.0855,-8.0977,-8.0592,-8.0477,-8.0592,-8.1016,-8.0785,-8.0592,-8.1016,-8.1093,-8.1093,-8.1093,-8.1093,-8.1093,-8.1093,-8.1093,-8.1093,-8.1093,-8.1093,-8.1093,-8.1093,-8.1093,-8.1093,-8.1093,-8.1093,-8.1093,-8.1093,-8.1093,-8.1093,-8.1093,-8.1093,-8.09,-8.0477,-8.09,-8.09,-8.0477,-8.09,-8.1093,-8.1093,-8.1093,-8.1093,0.0,0.0,0.0,0.0,0.0,0.0,0.0,0.0,0.0,0.0,-3.8481,-3.8326,-3.879,-4.1589,-4.4015,-4.4678,-4.782,-5.0725,-5.2412,-5.4443,-5.6577,-5.9085,-5.9472,-5.9976,-6.1177,-6.2517,-6.3846,-6.5381,-6.7225,-6.8669,-6.9228,-6.9045,-6.8267,-6.6846,-6.6927,-6.712,-6.73,-6.9721,-7.1369,-7.2312,-7.2973,-7.2532,-7.1138,-7.1798,-7.2165,-7.2312,-7.2312,-7.2386,-7.2496,-7.2496,-7.2496,-7.2496,-7.2496,-7.2496,-7.2569,-7.323,-7.3487,-7.3754,-7.5507,-7.6203,-7.6468,-7.7548,-7.7954,-7.7993,-7.7517,-7.8099,-7.8863,-7.8825,-7.9551,-8.0389,-8.0767,-8.0799,-8.0536,-7.9754,-7.9492,-7.9691,-8.0638,-8.0323,-8.0054,-8.0939,-8.1093,-8.1093,-8.1093,-8.1093,-8.1093,-8.1093,-8.1093,-8.1093,-8.1093,-8.1093,-8.1093,-8.1093,-8.1093,-8.1093,-8.1093,-8.1093,-8.1093,-8.1093,-8.1093,-8.1093,-8.1093,-8.1093,-8.0708,-7.9823,-8.0669,-8.0746,-8.0015,-8.0746,-8.1093,-8.1093,-8.1093,-8.1093,0.0,0.0,0.0,0.0,0.0,0.0,0.0,0.0,0.0,0.0,0.0,-3.852,-4.1988,-4.2708,-4.3863,-4.7248,-4.9414,-5.128,-5.3192,-5.5337,-5.7231,-5.8427,-5.9094,-6.009,-6.169,-6.3091,-6.4706,-6.6696,-6.8159,-6.9275,-7.0026,-6.8774,-6.7658,-6.6846,-6.7104,-6.7269,-6.73,-6.9274,-7.0621,-7.1468,-7.1578,-7.1138,-7.0257,-7.0367,-7.0807,-7.1468,-7.1468,-7.1872,-7.2496,-7.2496,-7.2496,-7.2496,-7.2496,-7.2496,-7.2496,-7.2606,-7.2679,-7.2757,-7.3587,-7.4179,-7.4724,-7.536,-7.5929,-7.6322,-7.6263,-7.7309,-7.8569,-7.8569,-7.9691,-8.0837,-8.0138,-7.9604,-7.9088,-7.8762,-7.8338,-7.8323,-7.9722,-7.99,-8.0054,-8.0939,-8.1093,-8.1093,-8.1093,-8.1093,-8.1093,-8.1093,-8.1093,-8.1093,-8.1093,-8.1093,-8.1093,-8.1093,-8.1093,-8.1093,-8.1093,-8.1093,-8.1093,-8.1093,-8.1093,-8.1093,-8.1093,-8.1093,-8.0708,-7.9823,-8.0669,-8.1054,-8.0939,-8.1054,-8.1093,-8.1093,-8.1093,-8.1093,0.0,0.0,0.0,0.0,0.0,0.0,0.0,0.0,0.0,0.0,0.0,-4.2249,-4.3721,-4.555,-4.7167,-4.8944,-5.1715,-5.4304,-5.6114,-5.7192,-5.8246,-5.927,-5.9673,-6.0224,-6.134,-6.3362,-6.532,-6.701,-6.9132,-7.0297,-7.0195,-6.8741,-6.7387,-6.6203,-6.6446,-6.6451,-6.6026,-6.8305,-6.9816,-7.0624,-7.0624,-7.022,-6.9449,-6.9449,-6.9889,-7.0624,-7.0624,-7.1101,-7.1798,-7.1358,-7.1688,-7.2459,-7.2018,-7.2092,-7.2496,-7.2496,-7.2496,-7.263,-7.359,-7.4072,-7.4422,-7.5344,-7.5787,-7.6092,-7.6592,-7.7246,-7.79,-7.8361,-7.8859,-7.9186,-7.9069,-7.865,-7.8252,-7.8461,-7.8315,-7.8448,-7.9561,-7.9823,-8.0054,-8.0939,-8.1093,-8.1093,-8.1093,-8.1093,-8.1093,-8.1093,-8.1093,-8.1093,-8.1093,-8.1093,-8.1093,-8.1093,-8.1093,-8.1093,-8.1093,-8.1093,-8.1093,-8.1093,-8.1093,-8.1093,-8.1093,-8.1093,-8.0939,-8.0554,-8.09,-8.0862,-8.0362,-8.0862,-8.1093,-8.1093,-8.0592,-8.0362,0.0,0.0,0.0,0.0,0.0,0.0,0.0,0.0,0.0,0.0,0.0,-4.6104,-4.6542,-4.856,-5.0199,-5.0765,-5.3791,-5.6621,-5.7916,-5.8494,-5.9185,-5.9797,-5.9997,-6.0577,-6.1707,-6.3535,-6.5546,-6.7678,-6.9286,-6.9984,-6.9413,-6.7967,-6.6455,-6.4976,-6.5465,-6.5601,-6.4999,-6.7615,-6.9119,-6.9486,-6.9486,-6.9192,-6.8605,-6.8385,-6.8715,-6.9486,-6.9706,-7.0367,-7.1248,-7.044,-7.0917,-7.2165,-7.1541,-7.1688,-7.2239,-7.2422,-7.2573,-7.2871,-7.3934,-7.4379,-7.467,-7.5654,-7.6015,-7.613,-7.6784,-7.7032,-7.7208,-7.7784,-7.775,-7.757,-7.7878,-7.7559,-7.7341,-7.8007,-7.8262,-7.8583,-7.9561,-7.9977,-8.0323,-8.0977,-8.1093,-8.1093,-8.1093,-8.1093,-8.1093,-8.1093,-8.1093,-8.1093,-8.1093,-8.1093,-8.1093,-8.1093,-8.1093,-8.1093,-8.1093,-8.1093,-8.1093,-8.1093,-8.1093,-8.1093,-8.1093,-8.1093,-8.1093,-8.1093,-8.1093,-8.0785,-8.0131,-8.0554,-8.0785,-8.0746,-7.9862,-7.9477,0.0,0.0,0.0,0.0,0.0,0.0,0.0,0.0,0.0,0.0,0.0,0.0,-5.1573,-5.1194,-5.1147,-5.2958,-5.5144,-5.6652,-5.6727,-5.8614,-5.9767,-5.9249,-5.9697,-6.1157,-6.367,-6.3452,-6.502,-6.9659,-6.8311,-6.7235,-6.7295,-6.5816,-6.4308,-6.2892,-6.4304,-6.5035,-6.4999,-6.7615,-6.8531,-6.7797,-6.7797,-6.7797,-6.7724,-6.6953,-6.7063,-6.7871,-6.8641,-6.9853,-7.1248,-7.044,-7.0587,-7.1358,-7.1321,-7.1358,-7.1468,-7.2239,-7.2871,-7.3442,-7.4072,-7.4629,-7.5163,-7.5818,-7.6015,-7.6015,-7.6053,-7.6235,-7.6462,-7.65,-7.665,-7.6776,-7.6579,-7.608,-7.588,-7.7061,-7.7577,-7.8135,-7.9499,-8.0439,-8.1054,-8.1093,-8.1093,-8.1093,-8.1093,-8.1093,-8.1093,-8.1093,-8.1093,-8.1093,-8.1093,-8.1093,-8.1093,-8.1093,-8.1093,-8.1093,-8.1093,-8.1093,-8.1093,-8.1093,-8.1093,-8.1093,-8.1093,-8.1093,-8.1093,-8.1093,-8.1093,-8.1093,-8.1016,-8.0246,-7.9862,-7.9862,-7.8977,-7.8554,0.0,0.0,0.0,0.0,0.0,0.0,0.0,0.0,0.0,0.0,0.0,0.0,-5.4851,-5.4597,-5.4207,-5.4912,-5.7133,-5.8855,-5.8918,-5.9993,-6.0484,-5.9817,-6.0637,-6.1888,-6.3291,-6.4704,-6.6303,-6.7995,-6.7916,-6.7254,-6.5902,-6.4348,-6.3199,-6.2706,-6.3712,-6.5117,-6.6722,-6.7634,-6.7981,-6.7687,-6.7687,-6.7687,-6.7687,-6.7393,-6.743,-6.7724,-6.7981,-6.8752,-6.9743,-6.9449,-6.9816,-7.055,-7.055,-7.0844,-7.1451,-7.2647,-7.3224,-7.3616,-7.5111,-7.578,-7.6002,-7.6663,-7.6823,-7.6677,-7.5704,-7.5501,-7.5475,-7.5165,-7.4846,-7.4769,-7.5399,-7.5506,-7.6066,-7.8366,-7.939,-8.0016,-8.0523,-8.09,-8.1093,-8.1093,-8.1093,-8.1093,-8.1093,-8.1093,-8.1093,-8.1093,-8.1093,-8.1093,-8.1093,-8.1093,-8.1093,-8.1093,-8.1093,-8.1093,-8.1093,-8.1093,-8.1093,-8.1093,-8.1093,-8.1093,-8.1093,-8.1093,-8.1093,-8.1093,-8.1093,-8.1093,-8.1093,-8.0785,-8.0631,-8.0592,-7.9746,-7.9323,-2.0828,0.0,0.0,0.0,0.0,0.0,0.0,0.0,0.0,0.0,0.0,0.0,0.0,-5.8407,-5.8183,-5.797,-5.9558,-6.0685,-6.0783,-6.0939,-6.0939,-6.0454,-6.134,-6.2558,-6.393,-6.573,-6.6977,-6.7735,-6.7618,-6.6614,-6.4514,-6.3353,-6.2958,-6.3485,-6.4008,-6.533,-6.7687,-6.7687,-6.754,-6.7283,-6.7283,-6.7283,-6.7283,-6.7283,-6.743,-6.7724,-6.7981,-6.8421,-6.8898,-6.8605,-6.9119,-7.0128,-7.031,-7.0897,-7.1763,-7.3193,-7.3841,-7.4154,-7.5513,-7.6115,-7.6327,-7.6732,-7.6861,-7.6647,-7.5462,-7.498,-7.4711,-7.4161,-7.3699,-7.3602,-7.4591,-7.5665,-7.7074,-7.9275,-8.0477,-8.1093,-8.1093,-8.1093,-8.1093,-8.1093,-8.1093,-8.1093,-8.1093,-8.1093,-8.1093,-8.1093,-8.1093,-8.1093,-8.1093,-8.1093,-8.1093,-8.1093,-8.1093,-8.1093,-8.1093,-8.1093,-8.1093,-8.1093,-8.1093,-8.1093,-8.1093,-8.1093,-8.1093,-8.1093,-8.1093,-8.1093,-8.1093,-8.0823,-8.0669,-8.0631,-7.9785,-7.9515,0.0,0.0,0.0,0.0,0.0,0.0,0.0,0.0,0.0,0.0,0.0,0.0,0.0,0.0,-6.2876,-6.2205,-6.2089,-6.2086,-6.2001,-6.1605,-6.1178,-6.1148,-6.1737,-6.3224,-6.598,-6.6154,-6.6911,-6.8923,-6.7228,-6.5211,-6.3171,-6.2888,-6.3396,-6.4902,-6.4964,-6.5832,-6.7687,-6.765,-6.7247,-6.6512,-6.6476,-6.6476,-6.6476,-6.6476,-6.688,-6.7687,-6.8495,-6.8862,-6.8825,-6.8054,-6.8678,-7.0147,-7.0759,-7.154,-7.2421,-7.3815,-7.4632,-7.5091,-7.5165,-7.5556,-7.6053,-7.6053,-7.6053,-7.5887,-7.5271,-7.471,-7.4161,-7.3553,-7.3391,-7.3541,-7.4237,-7.6462,-7.8746,-7.9631,-8.0477,-8.1093,-8.1093,-8.1093,-8.1093,-8.1093,-8.1093,-8.1093,-8.1093,-8.1093,-8.1093,-8.1093,-8.1093,-8.1093,-8.1093,-8.1093,-8.1093,-8.1093,-8.1093,-8.1093,-8.1093,-8.1093,-8.1093,-8.1093,-8.1093,-8.1093,-8.1093,-8.1093,-8.1093,-8.1093,-8.1093,-8.1093,-8.1093,-8.0246,-7.9862,-7.9823,-7.8938,-7.8977,-2.6923,0.0,0.0,0.0,0.0,0.0,0.0,0.0,0.0,0.0,0.0,0.0,0.0,0.0,0.0,-6.533,-6.4802,-6.39,-6.2853,-6.3486,-6.3838,-6.3316,-6.4288,-6.55,-6.6739,-6.8186,-6.8519,-6.7098,-6.6438,-6.5211,-6.3096,-6.2858,-6.3216,-6.4155,-6.476,-6.5931,-6.7687,-6.71,-6.6733,-6.6476,-6.5925,-6.5632,-6.5632,-6.5632,-6.6072,-6.6843,-6.7063,-6.7504,-6.8091,-6.9045,-6.959,-7.0029,-7.133,-7.2229,-7.2912,-7.4368,-7.498,-7.5277,-7.6312,-7.6809,-7.6938,-7.6938,-7.6677,-7.6076,-7.4899,-7.4079,-7.3602,-7.3442,-7.3391,-7.395,-7.6149,-7.8088,-7.9669,-8.0516,-8.0939,-8.1093,-8.1093,-8.1093,-8.1093,-8.1093,-8.1093,-8.1093,-8.1093,-8.1093,-8.1093,-8.1093,-8.1093,-8.1093,-8.1093,-8.1093,-8.1093,-8.1093,-8.1093,-8.1093,-8.1093,-8.1093,-8.1093,-8.1093,-8.1093,-8.1093,-8.1093,-8.1093,-8.1093,-8.1093,-8.1093,-8.1093,-8.1093,-8.0862,-8.0746,-8.0708,-7.9862,-7.9592,-3.0798,-3.5553,0.0,0.0,0.0,0.0,-5.0133,-5.2309,-5.4745,0.0,0.0,0.0,0.0,0.0,0.0,-6.6137,-6.6068,-6.5343,-6.3972,-6.483,-6.5303,-6.4626,-6.5931,-6.72,-6.7965,-6.8785,-6.871,-6.7106,-6.6488,-6.5303,-6.3421,-6.3275,-6.3673,-6.4296,-6.5187,-6.6286,-6.7687,-6.688,-6.6329,-6.5999,-6.5521,-6.5118,-6.4824,-6.5154,-6.5558,-6.6035,-6.6366,-6.6953,-6.7888,-7.0085,-7.0708,-7.047,-7.2215,-7.3322,-7.3989,-7.508,-7.548,-7.5628,-7.6463,-7.6746,-7.6639,-7.6063,-7.5642,-7.5132,-7.3829,-7.3316,-7.325,-7.338,-7.3709,-7.4644,-7.6917,-7.8135,-7.8977,-7.9823,-8.0285,-8.0554,-8.0554,-8.0823,-8.1093,-8.1093,-8.1093,-8.1093,-8.1093,-8.1093,-8.1093,-8.1093,-8.1093,-8.1093,-8.1093,-8.1093,-8.1093,-8.1093,-8.1093,-8.1093,-8.1093,-8.1093,-8.1093,-8.1093,-8.1093,-8.1093,-8.1093,-8.1093,-8.1093,-8.1093,-8.1093,-8.1093,-8.1093,-8.1093,-8.1093,-8.1093,-8.0208,-7.9977,-3.4427,-3.9541,-4.3656,-4.4944,-4.7364,0.0,-5.2055,-5.3739,-5.5931,-5.9881,0.0,0.0,0.0,0.0,0.0,0.0,-6.5564,-6.5869,-6.5112,-6.5737,-6.6093,-6.5523,-6.7131,-6.8525,-6.9343,-6.8752,-6.8209,-6.806,-6.6726,-6.5321,-6.3762,-6.3935,-6.4442,-6.511,-6.5868,-6.6743,-6.7687,-6.6806,-6.5999,-6.5301,-6.5118,-6.464,-6.398,-6.4714,-6.5081,-6.5228,-6.6035,-6.6896,-6.8047,-7.1057,-7.1861,-7.1397,-7.3383,-7.4628,-7.5271,-7.5818,-7.5938,-7.5861,-7.5763,-7.5686,-7.5396,-7.4091,-7.3646,-7.3421,-7.2566,-7.2604,-7.2987,-7.3437,-7.446,-7.565,-7.6963,-7.7361,-7.7592,-7.8323,-7.9169,-7.9785,-7.9669,-8.0439,-8.1054,-8.0977,-8.1016,-8.1093,-8.1093,-8.1093,-8.1093,-8.1093,-8.1093,-8.1093,-8.1093,-8.1093,-8.1093,-8.1093,-8.1093,-8.1093,-8.1093,-8.1093,-8.1093,-8.1093,-8.1093,-8.1093,-8.1093,-8.1093,-8.1093,-8.1093,-8.1093,-8.1093,-8.1093,-8.1093,-8.1093,-8.1093,-8.0208,-8.0208,-3.8883,-4.3914,-4.7433,-4.8141,-4.9553,0.0,-5.0717,-5.2167,-5.3766,0.0,0.0,0.0,0.0,0.0,0.0,0.0,0.0,-6.2945,-6.5339,-6.6864,-6.7618,-6.7525,-6.8402,-6.9467,-7.0791,-6.9722,-6.8503,-6.7459,-6.5995,-6.4779,-6.3864,-6.4271,-6.4975,-6.5888,-6.5581,-6.6126,-6.7687,-6.6256,-6.5485,-6.5301,-6.3943,-6.3209,-6.3062,-6.3246,-6.3686,-6.4383,-6.5191,-6.6616,-6.8565,-7.1689,-7.2811,-7.2811,-7.5056,-7.5872,-7.5848,-7.5947,-7.5553,-7.4879,-7.4451,-7.3853,-7.3139,-7.2432,-7.1944,-7.1741,-7.2567,-7.265,-7.266,-7.4285,-7.5768,-7.6924,-7.7246,-7.7784,-7.8284,-7.8438,-7.9169,-7.9631,-7.89,-7.9977,-8.09,-8.0208,-8.0631,-8.1093,-8.1093,-8.1093,-8.1093,-8.1093,-8.1093,-8.1093,-8.1093,-8.1093,-8.1093,-8.1093,-8.1093,-8.1093,-8.1093,-8.1093,-8.1093,-8.1093,-8.1093,-8.1093,-8.1093,-8.1093,-8.1093,-8.1093,-8.1093,-8.1093,-8.1093,-8.1093,-8.1093,-8.1093,-8.0208,-7.99,-4.1957,-4.5949,-4.8953,-5.0007,-5.1109,0.0,0.0,-5.4121,-5.5367,0.0,0.0,0.0,0.0,0.0,0.0,0.0,0.0,-6.0972,-6.2263,-6.539,-6.7549,-6.7688,-6.9211,-7.0263,-7.0263,-6.9024,-6.7497,-6.5794,-6.5533,-6.5084,-6.4374,-6.5759,-6.6426,-6.6135,-6.6668,-6.7193,-6.7687,-6.6109,-6.5301,-6.5301,-6.3613,-6.2805,-6.2805,-6.2805,-6.3282,-6.4163,-6.5375,-6.711,-6.9351,-7.2423,-7.3825,-7.4257,-7.6109,-7.6485,-7.6015,-7.6015,-7.528,-7.4287,-7.3976,-7.3152,-7.2053,-7.1105,-7.0811,-7.0916,-7.1787,-7.2755,-7.3938,-7.5191,-7.6094,-7.663,-7.663,-7.6938,-7.7246,-7.7246,-7.8246,-7.9015,-7.8592,-7.9862,-8.0977,-8.0516,-8.0785,-8.1093,-8.1093,-8.1093,-8.1093,-8.1093,-8.1093,-8.1093,-8.1093,-8.1093,-8.1093,-8.1093,-8.1093,-8.1093,-8.1093,-8.1093,-8.1093,-8.1093,-8.1093,-8.1093,-8.1093,-8.1093,-8.1093,-8.1093,-8.1093,-8.1093,-8.1093,-8.1093,-8.1093,-8.1093,-8.0208,-8.0054,-4.4254,-4.7281,-4.9747,-5.0455,-5.1759,-5.3201,0.0,0.0,0.0,0.0,0.0,0.0,0.0,0.0,0.0,0.0,0.0,0.0,0.0,-6.2285,0.0,-6.5828,-6.8715,-7.0055,-6.84,-6.696,-6.5477,-6.379,-6.4614,-6.4966,-6.4693,-6.6814,-6.7517,-6.6383,-6.7668,-6.8147,-6.7687,-6.6109,-6.5301,-6.5301,-6.3613,-6.2805,-6.2805,-6.2805,-6.3282,-6.4163,-6.5815,-6.7802,-7.0172,-7.2973,-7.4509,-7.5241,-7.6574,-7.6586,-7.578,-7.5494,-7.4614,-7.3457,-7.3193,-7.2278,-7.0992,-6.9901,-7.0217,-7.1058,-7.1268,-7.3144,-7.534,-7.5848,-7.6015,-7.6015,-7.6015,-7.6015,-7.6053,-7.6207,-7.74,-7.8477,-7.8477,-7.9862,-8.1054,-8.09,-8.0977,-8.1093,-8.1093,-8.1093,-8.1093,-8.1093,-8.1093,-8.1093,-8.1093,-8.1093,-8.1093,-8.1093,-8.1093,-8.1093,-8.1093,-8.1093,-8.1093,-8.1093,-8.1093,-8.1093,-8.1093,-8.1093,-8.1093,-8.1093,-8.1093,-8.1093,-8.1093,-8.1093,-8.1093,-8.1093,-8.04,-8.0439,-4.5353,-4.8407,-5.0579,-4.8981,-5.0693,-5.2603,-5.1607,0.0,-5.4633,-5.3702,0.0,0.0,0.0,0.0,0.0,0.0,0.0,0.0,-5.4684,-5.7325,-5.9633,-6.0789,-6.5395,-6.7546,-6.4997,-6.3514,-6.2686,-6.2325,-6.2456,-6.294,-6.3994,-6.5429,-6.6523,-6.7127,-6.6863,-6.7019,-6.7687,-6.6109,-6.5301,-6.5301,-6.3613,-6.2805,-6.2805,-6.2805,-6.3282,-6.4163,-6.5815,-6.8011,-7.0667,-7.266,-7.413,-7.5167,-7.6155,-7.5964,-7.5051,-7.3797,-7.28,-7.1882,-7.0691,-6.9631,-6.8828,-6.8707,-7.0361,-7.2389,-7.2505,-7.4078,-7.5917,-7.5976,-7.6015,-7.6015,-7.6015,-7.6015,-7.6207,-7.6976,-7.7823,-7.8477,-7.8477,-7.9862,-8.0862,-8.0092,-8.0554,-8.1093,-8.1093,-8.1093,-8.1093,-8.1093,-8.1093,-8.1093,-8.1093,-8.1093,-8.1093,-8.1093,-8.1093,-8.1093,-8.1093,-8.1093,-8.1093,-8.1093,-8.1093,-8.1093,-8.1093,-8.1093,-8.1093,-8.1093,-8.1093,-8.1093,-8.1093,-8.1093,-8.1093,-8.1093,-8.1016,-8.1016,-4.4327,-4.6828,-4.9066,-4.8009,-5.072,-5.3338,-5.2051,-5.372,-5.5118,-5.3576,0.0,0.0,0.0,0.0,0.0,0.0,-5.2127,0.0,0.0,0.0,-5.8494,0.0,0.0,0.0,-6.2536,-6.1902,-6.1807,-6.2591,-6.2925,-6.37,-6.5053,-6.701,-6.808,-6.7974,-6.8786,-6.8966,-6.8385,-6.6806,-6.5778,-6.5301,-6.3613,-6.2805,-6.2842,-6.3319,-6.4016,-6.4897,-6.6512,-6.8555,-7.0908,-7.1675,-7.277,-7.3833,-7.343,-7.3813,-7.4553,-7.3964,-7.2717,-7.1275,-7.0704,-6.9975,-6.9398,-7.0516,-7.2016,-7.3407,-7.3789,-7.4858,-7.6015,-7.6015,-7.6015,-7.613,-7.663,-7.6746,-7.6938,-7.7784,-7.8631,-7.9246,-7.9246,-8.0246,-8.0977,-8.0631,-8.0862,-8.1093,-8.1093,-8.1093,-8.1093,-8.1093,-8.1093,-8.1093,-8.1093,-8.1093,-8.1093,-8.1093,-8.1093,-8.1093,-8.1093,-8.1093,-8.1093,-8.1093,-8.1093,-8.1093,-8.1093,-8.1093,-8.1093,-8.1093,-8.1093,-8.1093,-8.1093,-8.1093,-8.0823,-8.0362,-8.0362,-8.0362,-4.3493,-4.5695,-4.8032,-4.7215,-5.0182,-5.3082,-5.2144,-5.3745,-5.5035,-5.3414,-5.2926,0.0,0.0,0.0,-5.1229,-5.1229,0.0,-5.2306,0.0,0.0,0.0,0.0,0.0,0.0,0.0,-5.9984,-6.0548,-6.1979,-6.3067,-6.4145,-6.5272,-6.793,-6.9106,-6.8539,-7.0132,-7.0293,-6.8898,-6.7283,-6.6109,-6.5301,-6.3613,-6.2805,-6.2842,-6.3466,-6.431,-6.5375,-6.6769,-6.8624,-7.0672,-7.0698,-7.1413,-7.2372,-7.1193,-7.1727,-7.3119,-7.2895,-7.1787,-7.0424,-7.0424,-7.0374,-7.0579,-7.2092,-7.3289,-7.4183,-7.458,-7.5322,-7.6015,-7.6015,-7.6169,-7.6515,-7.713,-7.7438,-7.7823,-7.8669,-7.9323,-7.9862,-8.0092,-8.0669,-8.1093,-8.1093,-8.1093,-8.1093,-8.1093,-8.1093,-8.1093,-8.1093,-8.1093,-8.1093,-8.1093,-8.1093,-8.1093,-8.1093,-8.1093,-8.1093,-8.1093,-8.1093,-8.1093,-8.1093,-8.1093,-8.1093,-8.1093,-8.1093,-8.1093,-8.1093,-8.1093,-8.1093,-8.1093,-8.1093,-8.0669,-7.9823,-8.0054,-8.0054,-4.3362,-4.5981,-4.8477,-4.6476,-4.8476,-5.094,-5.0545,-5.2124,-5.3318,-5.2223,-5.2436,-5.2575,-5.1386,-5.1229,-5.1229,-5.1229,-5.1259,0.0,0.0,0.0,0.0,0.0,0.0,0.0,0.0,-5.705,-5.7871,-5.9471,-6.1662,-6.321,-6.3847,-6.6858,-6.8539,-6.8539,-6.9588,-6.9743,-6.8898,-6.7283,-6.6109,-6.5301,-6.3613,-6.2805,-6.2805,-6.2842,-6.3759,-6.5375,-6.6182,-6.7774,-6.9852,-7.0032,-7.0523,-7.1007,-7.0364,-7.0165,-7.0128,-6.9357,-6.9026,-6.899,-6.899,-7.0202,-7.1848,-7.2392,-7.3527,-7.4678,-7.4707,-7.5322,-7.6015,-7.6015,-7.6592,-7.7246,-7.7284,-7.7861,-7.8669,-7.9554,-7.9785,-8.0054,-8.09,-8.1093,-8.1093,-8.1093,-8.1093,-8.1093,-8.1093,-8.1093,-8.1093,-8.1093,-8.1093,-8.1093,-8.1093,-8.1093,-8.1093,-8.1093,-8.1093,-8.1093,-8.1093,-8.1093,-8.1093,-8.1093,-8.1093,-8.1093,-8.1093,-8.1093,-8.1093,-8.1093,-8.1093,-8.1093,-8.1093,-8.1093,-8.0669,-7.9823,-8.0669,-8.0592,-4.4072,-4.6746,-4.908,-4.6842,-4.8794,-5.0819,-4.9057,-4.9946,-5.0986,-5.0599,-5.0154,-4.9957,-5.0448,-5.0212,0.0,-5.1011,-5.1229,-5.1479,0.0,0.0,0.0,0.0,0.0,0.0,0.0,0.0,-5.8573,-5.9989,-6.2202,-6.3935,-6.5009,-6.7759,-6.9283,-6.9283,-7.0858,-7.1321,-7.0513,-6.8348,-6.688,-6.6072,-6.387,-6.2805,-6.2842,-6.3392,-6.4273,-6.5338,-6.6145,-6.7553,-6.9199,-6.8713,-6.8951,-6.9569,-6.9184,-6.8845,-6.8605,-6.9412,-6.9706,-6.9834,-7.0523,-7.0667,-7.0862,-7.3246,-7.4089,-7.4331,-7.5272,-7.5784,-7.6015,-7.6015,-7.663,-7.74,-7.7938,-7.8707,-7.9592,-8.0439,-8.0669,-8.0746,-8.1054,-8.1093,-8.1093,-8.1093,-8.1093,-8.1093,-8.1093,-8.1093,-8.1093,-8.1093,-8.1093,-8.1093,-8.1093,-8.1093,-8.1093,-8.1093,-8.1093,-8.1093,-8.1093,-8.1093,-8.1093,-8.1093,-8.1093,-8.1093,-8.1093,-8.1093,-8.1093,-8.1093,-8.1093,-8.1093,-8.1093,-8.1093,-8.0669,-7.9823,-8.0708,-8.0631,-4.5152,-4.7603,-4.955,-4.8043,-4.9356,-5.0483,-4.8573,-4.8995,-4.9641,-4.9641,-4.8682,-4.8624,-5.1125,-5.0095,-4.963,0.0,-5.2122,-5.2124,0.0,-5.3967,0.0,0.0,0.0,0.0,0.0,0.0,-5.845,-6.0174,-6.2115,-6.3802,-6.4884,-6.7364,-6.8926,-6.9283,-7.1078,-7.1619,-7.0881,-6.9045,-6.743,-6.6035,-6.4163,-6.3099,-6.2842,-6.3392,-6.409,-6.4897,-6.5411,-6.6402,-6.7614,-6.7357,-6.77,-6.8314,-6.8222,-6.8148,-6.8092,-6.9163,-6.9593,-6.9797,-7.077,-7.0713,-7.0704,-7.3483,-7.4183,-7.4129,-7.5549,-7.6015,-7.6053,-7.6361,-7.7053,-7.79,-7.8746,-7.9592,-8.04,-8.0977,-8.1093,-8.1093,-8.1093,-8.1093,-8.1093,-8.1093,-8.0862,-8.0746,-8.1054,-8.0823,-8.0746,-8.1054,-8.1093,-8.1093,-8.1093,-8.1093,-8.1093,-8.1093,-8.1093,-8.1093,-8.1093,-8.1093,-8.1093,-8.1093,-8.1093,-8.1093,-8.1093,-8.1093,-8.1362,-8.1977,-8.14,-8.14,-8.1977,-8.14,-8.0823,-8.0285,-8.0823,-8.0785]},{"header":{"parameterUnit":"m.s-1","parameterCategory":1,"la1":30.6,"la2":29.2853,"lo1":-89.7004,"lo2":-87.6739,"dy":0.0162,"dx":0.0183,"nx":112,"ny":82,"refTime":"2023-03-17T18:00:00:Z","depth":0,"parameterNumber":3,"parameterNumberName":"V-component_of_WINDS"},"data":[0.0,0.0,0.0,0.0,0.0,0.0,0.0,0.0,0.0,0.0,0.0,0.0,0.0,0.0,0.0,0.0,0.0,0.0,0.0,0.0,0.0,0.0,0.0,0.0,0.0,0.0,0.0,0.0,0.0,0.0,0.0,0.0,0.0,0.0,0.0,0.0,0.0,0.0,0.0,0.0,0.0,0.0,0.0,0.0,0.0,0.0,0.0,0.0,0.0,0.0,0.0,0.0,0.0,0.0,0.0,0.0,0.0,0.0,0.0,0.0,0.0,0.0,0.0,0.0,0.0,0.0,0.0,0.0,0.0,0.0,0.0,0.0,0.0,0.0,0.0,0.0,0.0,0.0,0.0,0.0,0.0,0.0,0.0,0.0,0.0,0.0,0.0,0.0,0.0,0.0,-1.3111,-1.0058,-1.0622,-1.1233,-1.1409,-1.5532,-1.7759,-1.7339,0.0,0.0,0.0,0.0,0.0,0.0,0.0,0.0,0.0,0.0,0.0,0.0,0.0,0.0,0.0,0.0,0.0,0.0,0.0,0.0,0.0,0.0,0.0,0.0,0.0,0.0,0.0,0.0,0.0,0.0,0.0,0.0,0.0,0.0,0.0,0.0,0.0,0.0,0.0,0.0,0.0,0.0,0.0,0.0,0.0,0.0,0.0,0.0,0.0,0.0,0.0,0.0,0.0,0.0,0.0,0.0,0.0,0.0,0.0,0.0,0.0,0.0,0.0,0.0,0.0,0.0,0.0,0.0,0.0,0.0,0.0,0.0,0.0,0.0,0.0,0.0,0.0,0.0,0.0,0.0,0.0,0.0,0.0,0.0,0.0,0.0,0.0,0.0,0.0,0.0,0.0,0.0,0.0,0.0,0.0,0.0,0.0,0.0,0.0,0.0,0.0,0.0,0.0,0.0,-1.3861,-1.0969,-1.0995,-1.1274,-1.1558,-1.3786,-1.5913,-1.7388,0.0,0.0,0.0,0.0,0.0,0.0,0.0,0.0,0.0,0.0,0.0,0.0,0.0,0.0,0.0,0.0,0.0,0.0,0.0,0.0,0.0,0.0,0.0,0.0,0.0,0.0,0.0,0.0,0.0,0.0,0.0,0.0,0.0,0.0,0.0,0.0,0.0,0.0,0.0,0.0,0.0,0.0,0.0,0.0,0.0,0.0,0.0,0.0,0.0,0.0,0.0,0.0,0.0,0.0,0.0,0.0,0.0,0.0,0.0,0.0,0.0,0.0,0.0,0.0,0.0,0.0,0.0,0.0,0.0,0.0,0.0,0.0,0.0,0.0,0.0,0.0,0.0,0.0,0.0,0.0,0.0,0.0,0.0,0.0,0.0,0.0,0.0,0.0,0.0,0.0,0.0,0.0,0.0,0.0,0.0,0.0,0.0,0.0,0.0,0.0,0.0,0.0,0.0,-1.3,-1.1791,-1.1008,-1.1077,-1.1287,-1.1592,-1.3704,-1.5258,-1.5867,-1.9926,0.0,0.0,0.0,0.0,0.0,0.0,0.0,0.0,0.0,0.0,0.0,0.0,0.0,0.0,0.0,0.0,0.0,0.0,0.0,0.0,0.0,0.0,0.0,0.0,0.0,0.0,0.0,0.0,0.0,0.0,0.0,0.0,0.0,0.0,0.0,0.0,0.0,0.0,0.0,0.0,0.0,0.0,0.0,0.0,0.0,0.0,0.0,0.0,0.0,0.0,0.0,0.0,0.0,0.0,0.0,0.0,0.0,0.0,0.0,0.0,0.0,0.0,0.0,0.0,0.0,0.0,0.0,0.0,0.0,0.0,0.0,0.0,0.0,0.0,0.0,0.0,0.0,0.0,0.0,0.0,0.0,0.0,0.0,0.0,0.0,0.0,0.0,0.0,0.0,0.0,0.0,0.0,0.0,0.0,0.0,0.0,0.0,0.0,0.0,0.0,0.0,0.0,-1.1704,-1.0161,-1.0914,-1.1097,-1.1301,-1.164,-1.3359,-1.4482,-1.4728,-1.8083,0.0,0.0,0.0,0.0,0.0,0.0,0.0,0.0,0.0,0.0,0.0,0.0,0.0,0.0,0.0,0.0,0.0,0.0,0.0,0.0,0.0,0.0,0.0,0.0,0.0,0.0,0.0,0.0,0.0,0.0,0.0,0.0,0.0,0.0,0.0,0.0,0.0,0.0,0.0,0.0,0.0,0.0,0.0,0.0,0.0,0.0,0.0,0.0,0.0,0.0,0.0,0.0,0.0,0.0,0.0,0.0,0.0,0.0,0.0,0.0,0.0,0.0,0.0,0.0,0.0,0.0,0.0,0.0,0.0,0.0,0.0,0.0,0.0,0.0,0.0,0.0,0.0,0.0,0.0,0.0,0.0,0.0,0.0,0.0,0.0,0.0,0.0,0.0,0.0,0.0,0.0,0.0,0.0,0.0,0.0,0.0,0.0,0.0,0.0,0.0,0.0,0.0,-1.2387,-1.0772,-1.1111,-1.1158,-1.1341,-1.1775,-1.2113,-1.3022,-1.4583,-1.6778,0.0,0.0,0.0,0.0,0.0,0.0,0.0,0.0,0.0,0.0,0.0,0.0,0.0,0.0,0.0,0.0,0.0,0.0,0.0,0.0,0.0,0.0,0.0,0.0,0.0,0.0,0.0,0.0,0.0,0.0,0.0,0.0,0.0,0.0,0.0,0.0,0.0,0.0,0.0,0.0,0.0,0.0,0.0,0.0,0.0,0.0,0.0,0.0,0.0,0.0,0.0,0.0,0.0,0.0,0.0,0.0,0.0,0.0,0.0,0.0,0.0,0.0,0.0,0.0,0.0,0.0,0.0,0.0,0.0,0.0,0.0,0.0,0.0,0.0,0.0,0.0,0.0,0.0,0.0,0.0,0.0,0.0,0.0,0.0,0.0,0.0,0.0,0.0,0.0,0.0,0.0,0.0,0.0,0.0,0.0,0.0,0.0,0.0,0.0,0.0,0.0,0.0,-1.2355,-1.0731,-1.1118,-1.1246,-1.145,-1.1803,-1.1884,-1.2143,-1.2713,0.0,0.0,0.0,0.0,0.0,0.0,0.0,0.0,0.0,0.0,0.0,0.0,0.0,0.0,0.0,0.0,0.0,0.0,0.0,0.0,0.0,0.0,0.0,0.0,0.0,0.0,0.0,0.0,0.0,0.0,0.0,0.0,0.0,0.0,0.0,0.0,0.0,0.0,0.0,0.0,0.0,0.0,0.0,0.0,0.0,0.0,0.0,0.0,0.0,0.0,0.0,0.0,0.0,0.0,0.0,0.0,0.0,0.0,0.0,0.0,0.0,0.0,0.0,0.0,0.0,0.0,0.0,0.0,0.0,0.0,0.0,0.0,0.0,0.0,0.0,0.0,0.0,0.0,0.0,0.0,0.0,0.0,0.0,0.0,0.0,0.0,0.0,0.0,0.0,0.0,0.0,0.0,0.0,0.0,0.0,0.0,0.0,0.0,0.0,0.0,0.0,0.0,-1.4968,-1.2395,-1.0772,-1.1124,-1.1301,-1.1491,-1.1742,-1.1803,-1.1748,-1.1558,0.0,0.0,0.0,0.0,0.0,0.0,0.0,0.0,0.0,0.0,0.0,0.0,0.0,0.0,0.0,0.0,0.0,0.0,0.0,0.0,0.0,0.0,0.0,0.0,0.0,0.0,0.0,0.0,0.0,0.0,0.0,0.0,0.0,0.0,0.0,0.0,0.0,0.0,0.0,0.0,0.0,0.0,0.0,0.0,0.0,0.0,0.0,0.0,0.0,0.0,0.0,0.0,0.0,0.0,0.0,0.0,0.0,0.0,0.0,0.0,0.0,0.0,0.0,0.0,0.0,0.0,0.0,0.0,0.0,0.0,0.0,0.0,0.0,0.0,0.0,0.0,0.0,0.0,0.0,0.0,0.0,0.0,0.0,0.0,0.0,0.0,0.0,0.0,0.0,0.0,0.0,0.0,0.0,0.0,0.0,0.0,0.0,0.0,0.0,0.0,0.0,0.0,-1.5008,-1.2612,-1.1002,-1.1151,-1.1301,-1.1457,-1.1606,-1.1748,-1.1701,0.0,0.0,0.0,0.0,0.0,0.0,0.0,0.0,0.0,0.0,0.0,0.0,0.0,0.0,0.0,0.0,0.0,0.0,0.0,0.0,0.0,0.0,0.0,0.0,0.0,0.0,0.0,0.0,0.0,0.0,0.0,0.0,0.0,0.0,0.0,0.0,0.0,0.0,0.0,0.0,0.0,0.0,0.0,0.0,0.0,0.0,0.0,0.0,0.0,0.0,0.0,0.0,0.0,0.0,0.0,0.0,0.0,0.0,0.0,0.0,0.0,0.0,0.0,0.0,0.0,0.0,0.0,0.0,0.0,0.0,0.0,0.0,0.0,0.0,0.0,0.0,0.0,0.0,0.0,0.0,0.0,0.0,0.0,0.0,0.0,0.0,0.0,0.0,0.0,0.0,0.0,0.0,0.0,0.0,0.0,0.0,0.0,0.0,0.0,0.0,0.0,0.0,0.0,-1.5008,-1.2716,-1.1118,-1.1158,-1.1396,-1.1613,-1.1755,-1.1714,-1.1599,-1.1402,0.0,0.0,0.0,0.0,0.0,0.0,0.0,0.0,0.0,0.0,0.0,0.0,0.0,0.0,0.0,0.0,0.0,0.0,0.0,0.0,0.0,0.0,0.0,0.0,0.0,0.0,0.0,0.0,0.0,0.0,0.0,0.0,0.0,0.0,0.0,0.0,0.0,0.0,0.0,0.0,0.0,0.0,0.0,0.0,0.0,0.0,0.0,0.0,0.0,0.0,0.0,0.0,0.0,0.0,0.0,0.0,0.0,0.0,0.0,0.0,0.0,0.0,0.0,0.0,0.0,0.0,0.0,0.0,0.0,0.0,0.0,0.0,0.0,0.0,0.0,0.0,0.0,0.0,0.0,0.0,0.0,0.0,0.0,0.0,0.0,0.0,0.0,0.0,0.0,0.0,0.0,0.0,0.0,0.0,0.0,0.0,0.0,0.0,0.0,0.0,0.0,0.0,-1.5256,-1.2853,-1.1212,-1.1335,-1.1558,-1.1762,-1.1911,-1.1843,-1.1708,-1.1497,0.0,0.0,0.0,0.0,0.0,0.0,0.0,0.0,0.0,0.0,0.0,0.0,0.0,0.0,0.0,0.0,0.0,0.0,0.0,0.0,0.0,0.0,0.0,0.0,0.0,0.0,0.0,0.0,0.0,0.0,0.0,0.0,0.0,0.0,0.0,0.0,0.0,0.0,0.0,0.0,0.0,0.0,0.0,0.0,0.0,0.0,0.0,0.0,0.0,0.0,0.0,0.0,0.0,0.0,0.0,0.0,0.0,0.0,0.0,0.0,0.0,0.0,0.0,0.0,0.0,0.0,0.0,0.0,0.0,0.0,0.0,0.0,0.0,0.0,0.0,0.0,0.0,0.0,0.0,0.0,0.0,0.0,0.0,0.0,0.0,0.0,0.0,0.0,0.0,0.0,0.0,0.0,0.0,0.0,0.0,0.0,0.0,0.0,0.0,0.0,0.0,0.0,-1.5634,-1.3116,-1.1274,-1.1565,-1.1728,-1.1877,-1.2047,-1.2047,-1.1925,-1.1653,0.0,0.0,0.0,0.0,0.0,0.0,0.0,0.0,0.0,0.0,0.0,0.0,0.0,0.0,0.0,0.0,0.0,0.0,0.0,0.0,0.0,0.0,0.0,0.0,0.0,0.0,0.0,0.0,0.0,0.0,0.0,0.0,0.0,0.0,0.0,0.0,0.0,0.0,0.0,0.0,0.0,0.0,0.0,0.0,0.0,0.0,0.0,0.0,0.0,0.0,0.0,0.0,0.0,0.0,0.0,0.0,0.0,0.0,0.0,0.0,-4.822,-4.5649,0.0,0.0,0.0,0.0,0.0,0.0,0.0,0.0,0.0,0.0,0.0,0.0,0.0,0.0,0.0,0.0,0.0,0.0,0.0,0.0,0.0,0.0,0.0,0.0,0.0,0.0,0.0,0.0,0.0,0.0,0.0,0.0,0.0,0.0,0.0,0.0,0.0,0.0,0.0,0.0,-1.5634,-1.3116,-1.1233,-1.1416,-1.1572,-1.1775,-1.204,-1.1952,-1.185,-1.1789,-1.1782,0.0,0.0,0.0,0.0,0.0,0.0,0.0,0.0,0.0,0.0,0.0,0.0,0.0,0.0,0.0,0.0,0.0,0.0,0.0,0.0,0.0,0.0,0.0,0.0,0.0,0.0,0.0,0.0,0.0,0.0,0.0,0.0,0.0,0.0,0.0,0.0,0.0,0.0,0.0,0.0,0.0,0.0,0.0,0.0,0.0,0.0,0.0,0.0,0.0,0.0,0.0,0.0,0.0,0.0,0.0,0.0,0.0,0.0,0.0,-4.8785,-4.6448,0.0,0.0,0.0,0.0,0.0,0.0,0.0,0.0,0.0,0.0,0.0,0.0,0.0,0.0,0.0,0.0,0.0,0.0,0.0,0.0,0.0,0.0,0.0,0.0,0.0,0.0,0.0,0.0,0.0,0.0,0.0,0.0,0.0,0.0,0.0,0.0,0.0,0.0,0.0,0.0,-1.4892,-1.2756,-1.1355,-1.1579,-1.1674,-1.1843,-1.2149,-1.2101,-1.202,-1.1945,-1.187,0.0,0.0,0.0,0.0,0.0,0.0,0.0,0.0,0.0,0.0,0.0,0.0,0.0,0.0,0.0,0.0,0.0,0.0,0.0,0.0,0.0,0.0,0.0,0.0,0.0,0.0,0.0,0.0,0.0,0.0,0.0,0.0,0.0,0.0,0.0,0.0,0.0,0.0,0.0,0.0,0.0,0.0,0.0,0.0,0.0,0.0,0.0,0.0,0.0,0.0,0.0,0.0,0.0,-5.728,-5.6055,-5.4924,-5.2267,-5.3044,-5.6029,-4.9769,-4.7773,-4.8561,-4.4325,0.0,0.0,0.0,0.0,0.0,0.0,0.0,0.0,0.0,0.0,0.0,0.0,0.0,0.0,0.0,0.0,0.0,0.0,0.0,0.0,0.0,0.0,-2.4636,-2.4823,-2.509,-2.5064,-2.4195,0.0,0.0,0.0,0.0,0.0,0.0,0.0,0.0,0.0,0.0,0.0,-1.4028,-1.241,-1.1497,-1.1769,-1.1796,-1.1918,-1.2223,-1.225,-1.2196,-1.2074,-1.1938,-1.1735,0.0,0.0,0.0,0.0,0.0,0.0,0.0,0.0,0.0,0.0,0.0,0.0,0.0,0.0,0.0,0.0,0.0,0.0,0.0,0.0,0.0,0.0,0.0,0.0,0.0,0.0,0.0,0.0,0.0,0.0,0.0,0.0,-3.7095,-3.8282,0.0,0.0,0.0,0.0,0.0,0.0,0.0,0.0,0.0,0.0,0.0,0.0,0.0,-5.7987,-5.9364,-6.2022,-6.3184,-6.2879,-6.2774,-6.2301,-6.1361,-5.7988,-5.7475,-5.887,-5.4749,0.0,-5.0851,-4.7721,0.0,0.0,0.0,0.0,0.0,0.0,0.0,0.0,0.0,0.0,0.0,0.0,0.0,0.0,0.0,0.0,0.0,0.0,0.0,0.0,0.0,0.0,-2.6052,-2.5838,-2.5999,-2.5972,-2.5104,-2.4529,-2.4168,-2.4048,-2.3367,-2.2277,0.0,0.0,0.0,0.0,0.0,0.0,-1.3938,-1.2485,-1.1457,-1.1626,-1.1647,-1.1769,-1.2067,-1.2094,-1.2081,-1.206,-1.204,-1.1898,-1.1599,-1.1851,0.0,0.0,0.0,0.0,0.0,0.0,0.0,0.0,0.0,0.0,0.0,0.0,0.0,0.0,0.0,0.0,0.0,0.0,0.0,0.0,0.0,0.0,0.0,0.0,0.0,0.0,0.0,0.0,0.0,-3.6357,-3.9421,-4.0414,-3.8935,-3.7551,0.0,0.0,0.0,0.0,0.0,0.0,0.0,0.0,0.0,-5.9971,-6.2334,-6.4783,-6.7336,-6.8691,-6.879,-6.7691,-6.6474,-6.4908,-6.3136,-6.1155,-6.0451,-6.0567,-5.7852,-5.5194,-5.2299,-4.7684,-4.3284,-3.908,0.0,0.0,0.0,0.0,-2.5381,-2.408,-2.4431,-2.4476,-2.4436,-2.4369,0.0,0.0,0.0,0.0,0.0,0.0,0.0,-2.5024,-2.5611,-2.5959,-2.6119,-2.5985,-2.6052,-2.5999,-2.5438,-2.4997,-2.4556,-2.4062,-2.1657,-1.9609,-1.9622,-1.8339,0.0,0.0,0.0,-1.3407,-1.2474,-1.1832,-1.1545,-1.1613,-1.1619,-1.1701,-1.1911,-1.1932,-1.1972,-1.2054,-1.206,-1.2006,-1.1877,-1.1782,-1.1775,0.0,0.0,0.0,0.0,0.0,0.0,0.0,0.0,0.0,0.0,0.0,0.0,0.0,0.0,0.0,0.0,0.0,0.0,0.0,0.0,0.0,0.0,0.0,0.0,0.0,0.0,0.0,0.0,-3.9265,-4.2575,-4.2106,-4.2899,-4.2538,0.0,0.0,0.0,0.0,0.0,0.0,-5.6429,-5.916,-6.2322,-6.6084,-6.847,-7.1098,-7.416,-7.4088,-7.3224,-7.1581,-6.9397,-6.7024,-6.4749,-6.3555,-6.2799,-6.2256,-5.9462,-5.6488,-5.3173,-4.7324,-4.3162,-3.9825,-3.4338,-3.0544,-2.8012,-2.6892,-2.5413,-2.4222,-2.5024,-2.5157,-2.4997,-2.513,-2.493,-2.4649,-2.473,0.0,0.0,0.0,0.0,-2.5331,-2.5919,-2.6012,-2.5959,-2.5959,-2.5892,-2.5758,-2.5464,-2.4285,-2.34,-2.3284,-2.0497,-1.8069,-1.8243,-1.683,0.0,-1.3152,-1.3062,-1.2689,-1.1406,-1.1477,-1.1619,-1.1619,-1.1619,-1.1681,-1.1816,-1.1864,-1.1938,-1.2054,-1.2101,-1.2121,-1.2121,-1.2013,-1.202,-1.2169,0.0,0.0,0.0,0.0,0.0,0.0,0.0,0.0,0.0,0.0,0.0,0.0,0.0,0.0,0.0,0.0,0.0,0.0,0.0,0.0,0.0,0.0,0.0,0.0,0.0,0.0,0.0,0.0,0.0,-4.3697,-5.0066,0.0,0.0,0.0,0.0,-5.3357,-5.5866,-5.959,-6.4712,-6.6242,-6.8642,-7.2353,-7.3912,-7.5243,-7.6236,-7.5944,-7.5105,-7.3811,-7.1716,-6.973,-6.7895,-6.5694,-6.4704,-6.4425,-5.9092,-5.5679,-5.3366,-4.7889,-4.3312,-3.9444,-3.3969,-3.0606,-2.8402,-2.7484,-2.6206,-2.5104,-2.5705,-2.5905,-2.5718,-2.4623,-2.3888,-2.3621,-2.473,-2.4663,0.0,0.0,-2.5491,-2.5625,-2.6213,-2.6159,-2.5959,-2.5959,-2.5745,-2.5451,-2.5157,-2.171,-1.9316,-2.1627,-2.1296,-1.9515,-1.5705,0.0,-1.3522,-1.1755,-1.1386,-1.1406,-1.1558,-1.1613,-1.1619,-1.1619,-1.1619,-1.1681,-1.1816,-1.1965,-1.2054,-1.206,-1.2196,-1.2277,-1.2277,-1.2271,-1.2332,-1.2474,-1.2338,0.0,0.0,0.0,0.0,0.0,0.0,0.0,0.0,0.0,0.0,0.0,0.0,0.0,0.0,0.0,0.0,0.0,0.0,0.0,0.0,0.0,0.0,0.0,0.0,0.0,0.0,0.0,0.0,-4.8738,-5.2741,0.0,-5.2574,-5.6188,-5.889,-5.9486,-6.4709,-6.8555,-7.0259,-7.2137,-7.3798,-7.5285,-7.7138,-7.8084,-7.7988,-7.8579,-7.7452,-7.4662,-7.3137,-7.0619,-6.7422,-6.6618,-6.5056,-6.2861,-5.9082,-5.5547,-5.2154,-4.6137,-4.232,-3.9522,-3.32,-3.0416,-2.977,-2.7271,-2.6142,-2.5705,-2.6092,-2.6106,-2.5852,-2.5251,-2.4903,-2.485,-2.5464,-2.5491,-2.5478,-2.6159,-2.636,-2.636,-2.6386,-2.6319,-2.6039,-2.5291,-2.5024,-2.4823,-2.4342,-2.2947,-2.1354,-1.9697,-1.6856,-1.4707,-1.4497,-1.3216,-1.2124,-1.1392,-1.128,-1.1348,-1.1457,-1.1558,-1.1619,-1.1619,-1.1619,-1.164,-1.1687,-1.183,-1.1952,-1.2054,-1.2203,-1.2332,-1.242,-1.2522,-1.2596,-1.2651,-1.2698,-1.2528,0.0,0.0,0.0,0.0,0.0,0.0,0.0,0.0,0.0,0.0,0.0,0.0,0.0,0.0,0.0,0.0,0.0,0.0,0.0,0.0,0.0,0.0,0.0,0.0,0.0,-4.8401,-5.3319,-5.1976,-5.7226,-6.0191,-5.8249,-6.3076,-6.6403,-6.6728,-7.1665,-7.4757,-7.4837,-7.6663,-7.7674,-7.7757,-7.9632,-8.0312,-7.9657,-8.0211,-7.884,-7.5432,-7.3726,-7.1105,-6.7673,-6.6777,-6.4875,-6.2186,-5.8435,-5.484,-5.1098,-4.4565,-4.1099,-3.9198,-3.2492,-3.0217,-3.0179,-2.6956,-2.5718,-2.5825,-2.5919,-2.5758,-2.5478,-2.5277,-2.5211,-2.5277,-2.5571,-2.5732,-2.5892,-2.6279,-2.6453,-2.6466,-2.6172,-2.6026,-2.5732,-2.485,-2.4556,-2.4356,-2.3875,-2.2665,-2.0971,-1.8268,-1.5399,-1.3507,-1.3358,-1.2292,-1.1355,-1.1253,-1.1328,-1.1389,-1.1389,-1.1525,-1.1619,-1.1619,-1.166,-1.1674,-1.1619,-1.1748,-1.1877,-1.1979,-1.2081,-1.2223,-1.242,-1.2427,-1.2474,-1.2583,-1.2684,-1.2488,-1.1986,0.0,0.0,0.0,0.0,0.0,0.0,0.0,0.0,0.0,0.0,0.0,0.0,0.0,0.0,0.0,0.0,0.0,0.0,0.0,0.0,0.0,0.0,0.0,-4.6215,-5.2646,-5.645,-5.3315,-6.3902,-6.9413,-6.4031,-7.0754,-7.5262,-7.5031,-7.6468,-7.7724,-7.8512,-7.9757,-8.0285,-7.99,-8.1477,-8.1977,-8.1138,-8.076,-7.9051,-7.6179,-7.3637,-7.1197,-6.8991,-6.6301,-6.4305,-6.2668,-5.711,-5.3295,-5.0381,-4.3335,-3.9859,-3.8196,-3.2142,-2.9856,-2.9631,-2.627,-2.5264,-2.5464,-2.5184,-2.489,-2.4649,-2.4636,-2.4636,-2.469,-2.4997,-2.5277,-2.5504,-2.5504,-2.5718,-2.5879,-2.5571,-2.5291,-2.4983,-2.4676,-2.4382,-2.4102,-2.3808,-2.0615,-1.7796,-1.757,-1.7561,-1.6424,-1.2539,-1.1579,-1.1396,-1.1396,-1.1396,0.0,-1.1396,-1.1531,-1.1619,-1.1613,-1.1735,-1.1762,-1.1633,-1.1742,-1.183,-1.1837,-1.1837,-1.1972,-1.2277,-1.2006,-1.1999,-1.2305,-1.2298,-1.2142,-1.1843,0.0,0.0,0.0,0.0,0.0,0.0,0.0,0.0,0.0,0.0,0.0,0.0,0.0,0.0,0.0,0.0,0.0,0.0,0.0,0.0,0.0,0.0,-5.3274,-5.2902,-5.8273,-6.2704,-6.4219,-6.9485,-7.2476,-7.1342,-7.4798,-7.6905,-7.6517,-7.8125,-7.9198,-7.9411,-8.065,-8.1508,-8.1893,-8.2747,-8.2971,-8.2413,-8.171,-7.9701,-7.6445,-7.4574,-7.1422,-6.7031,-6.6224,-6.3766,-5.9951,-5.5766,-5.2108,-4.8619,-4.2848,-3.9308,-3.7044,-3.1744,-2.9708,-2.945,-2.6186,-2.5264,-2.5464,-2.5184,-2.5024,-2.4917,-2.4703,-2.4636,-2.469,-2.4997,-2.513,-2.5237,-2.5451,-2.5571,-2.5571,-2.5277,-2.4983,-2.4636,-2.4128,-2.3781,-2.3487,-2.318,-2.219,-2.0702,-1.7819,-1.7298,-1.6169,-1.223,-1.1443,-1.143,-1.1538,-1.1558,-1.1558,-1.1558,-1.1592,-1.1579,-1.1463,-1.1491,-1.1538,-1.1613,-1.1653,-1.1769,-1.1986,-1.1999,-1.2088,-1.2284,-1.2305,-1.2461,-1.2773,-1.2454,-1.225,0.0,0.0,0.0,0.0,0.0,0.0,0.0,0.0,0.0,0.0,0.0,0.0,0.0,0.0,0.0,0.0,0.0,0.0,0.0,0.0,0.0,0.0,-5.2626,-5.8089,-6.0792,-6.4011,-6.7243,-7.0429,-7.3509,-7.5521,-7.6185,-7.8323,-7.9512,-7.9121,-8.048,-8.1381,-8.1403,-8.259,-8.3093,-8.2701,-8.3978,-8.431,-8.3524,-8.2406,-8.0165,-7.6861,-7.3704,-7.01,-6.6108,-6.4412,-6.1676,-5.7996,-5.4883,-5.1386,-4.7247,-4.3177,-3.9368,-3.5761,0.0,0.0,0.0,0.0,-2.4997,-2.5117,-2.4957,-2.489,-2.4863,-2.469,-2.4636,-2.4676,-2.4836,-2.4983,-2.509,-2.513,-2.5237,-2.5237,-2.4823,-2.4583,-2.4302,-2.3728,-2.3447,-2.3247,-2.2926,-2.1596,-1.9877,-1.7544,-1.5859,0.0,-1.1825,-1.1443,-1.1497,-1.1518,-1.1579,-1.1599,-1.1531,-1.1579,-1.1586,-1.1497,-1.1538,-1.1586,-1.1619,-1.1619,0.0,0.0,0.0,-1.185,-1.1999,-1.221,0.0,0.0,0.0,-1.2257,-1.2379,-1.2115,0.0,0.0,-1.1837,-1.1932,0.0,0.0,0.0,0.0,0.0,0.0,0.0,0.0,0.0,0.0,0.0,0.0,0.0,0.0,0.0,0.0,-5.6569,-6.2153,-6.8279,-6.9482,-7.0789,-7.3447,-7.6161,-7.8332,-7.9309,-8.1328,-8.2441,-8.2245,-8.311,-8.3605,-8.3506,-8.4629,0.0,0.0,0.0,-8.5753,-8.4978,-8.3041,-8.0473,-7.7254,-7.1944,-6.8178,-6.5852,-6.1936,-5.894,-5.6589,-5.4397,-5.0724,-4.6241,-4.3678,-3.9368,-3.424,-3.0804,-2.9304,-2.8821,-2.573,-2.4663,-2.4636,-2.4636,0.0,0.0,-2.4676,-2.469,-2.469,-2.473,-2.4903,-2.5024,-2.4756,-2.485,-2.4903,-2.4342,-2.4182,-2.4008,-2.346,-2.33,-2.3193,-2.2926,-2.019,-1.7617,-1.7123,-1.4326,-1.1973,-1.1557,-1.1518,-1.1552,-1.1436,-1.1531,-1.1572,-1.1436,-1.1538,-1.1619,-1.1619,-1.1735,0.0,-1.1681,-1.1653,-1.1653,-1.1667,-1.1545,-1.1531,-1.1667,-1.1952,-1.2176,-1.2311,-1.2182,-1.2237,-1.2501,-1.2522,-1.2535,-1.2542,-1.2128,-1.2162,0.0,0.0,0.0,0.0,0.0,0.0,0.0,0.0,0.0,0.0,0.0,0.0,0.0,0.0,0.0,-5.146,-5.9126,-6.5917,-6.9301,-7.2781,-7.505,-7.5678,-7.7868,-8.0159,-8.1979,-8.3415,-8.4155,-8.4188,-8.4388,-8.3977,-8.2913,-8.3562,-8.4445,-8.5414,-8.6242,-8.7209,-8.8359,-8.4758,-8.097,-7.6963,-7.2858,0.0,-6.451,-6.2121,-5.8897,-5.5099,-5.3443,-4.9771,-4.5079,-4.3294,-3.8397,-3.1854,-2.8851,-2.6969,-2.5931,-2.5269,-2.4836,-2.4636,-2.4636,-2.4636,-2.4676,-2.4917,-2.4997,-2.5037,-2.5277,-2.5224,0.0,-2.501,-2.4863,-2.4636,-2.4289,-2.4035,-2.3768,-2.3407,-2.314,-2.2939,-2.2873,-2.2297,-2.0882,-1.7757,-1.6627,-1.5088,-1.2137,-1.1497,-1.1463,-1.1558,-1.1599,-1.1606,-1.1579,-1.1599,-1.1619,-1.1619,-1.1647,-1.1748,-1.1959,-1.1864,-1.1843,-1.1965,-1.1952,-1.1945,-1.1972,-1.2257,-1.2433,-1.2461,-1.2433,-1.2447,-1.2501,-1.2623,-1.2752,-1.2868,-1.2657,-1.2732,0.0,0.0,0.0,0.0,0.0,0.0,0.0,0.0,0.0,0.0,0.0,-4.4056,0.0,0.0,-5.2139,-5.5709,-6.2095,-6.7747,-7.0505,-7.3956,-7.6918,-7.8848,-8.0528,-8.2576,-8.4967,-8.6249,-8.6697,-8.6029,-8.6922,-8.6581,-8.4512,-8.5916,-8.6566,-8.612,-8.7996,-8.942,-9.0249,-8.6539,-8.2846,-7.9215,-7.3148,-6.7754,-6.2909,-5.9527,-5.6447,-5.3557,-5.1008,-4.7707,-4.3636,-3.9122,-3.4595,-3.0093,-2.7667,-2.602,-2.5291,-2.5291,-2.5104,-2.4863,-2.4863,-2.4756,-2.4663,-2.481,-2.4957,-2.5104,-2.5251,-2.5197,-2.5077,-2.5077,-2.4863,-2.4569,-2.4275,-2.4102,-2.3875,-2.3434,-2.3207,-2.3046,-2.2899,-2.1459,-1.9495,-1.7529,-1.5707,-1.3737,-1.19,-1.1613,-1.164,-1.1714,-1.1789,-1.1843,-1.1843,-1.1775,-1.1755,-1.183,-1.1769,-1.1782,-1.1932,-1.1809,-1.1762,-1.1837,-1.1979,-1.206,-1.206,-1.242,-1.2617,-1.2617,-1.2617,-1.2617,-1.2617,-1.2691,-1.2807,-1.2963,-1.2881,-1.2963,0.0,0.0,0.0,0.0,0.0,0.0,0.0,0.0,-4.3268,-4.3772,-4.5673,-4.7807,-5.0117,-5.2101,-5.5115,-6.0447,-6.4782,-6.8524,-7.1712,-7.4812,-7.8085,-8.1313,-8.2455,-8.4266,-8.7454,-8.8543,-8.872,-8.7787,-8.9098,-8.8836,-8.6248,-8.8256,-8.8856,-8.7426,-9.0699,-9.2035,-9.1215,-8.7276,-8.3423,-7.9598,-7.2654,-6.6679,-6.1348,-5.6887,-5.3895,-5.2171,-4.8658,-4.5348,-4.1934,-3.5046,-3.1077,-2.9109,-2.6887,-2.5892,-2.5678,-2.5625,-2.5384,-2.5077,-2.5077,-2.489,-2.4649,-2.4703,-2.489,-2.5104,-2.5211,-2.5211,-2.5184,-2.5237,-2.4997,-2.4649,-2.4369,-2.4249,-2.4048,-2.346,-2.3327,-2.3247,-2.2926,-2.0479,-1.8089,-1.7388,-1.4725,-1.2466,-1.1763,-1.1762,-1.1864,-1.1837,-1.1965,-1.206,-1.206,-1.1952,-1.1938,-1.2088,-1.1993,-1.1932,-1.1959,-1.1803,-1.1708,-1.1708,-1.1898,-1.2033,-1.206,-1.2433,-1.2657,-1.2684,-1.2657,-1.2657,-1.2684,-1.2684,-1.2766,-1.2915,-1.2915,-1.301,-3.0191,-3.2338,-3.5746,-3.7995,-3.9704,-4.1754,0.0,0.0,-4.6761,-4.8998,-5.1239,-5.303,-5.3858,-5.6168,-5.9108,-6.258,-6.5802,-6.9021,-7.2199,-7.6589,-7.9754,-8.0898,-8.1631,-8.3817,-8.7983,-8.8392,-8.872,-8.9509,-8.9304,-8.8263,-8.6211,-8.7176,-8.9019,-9.1782,-9.5216,-9.5097,-9.1222,-8.5498,-7.9204,-7.2434,-7.0838,-6.6638,-6.0122,-5.6335,-5.3618,-5.168,-4.7536,-4.3349,-3.9062,-3.4667,-3.1506,-2.9138,-2.712,-2.6319,-2.6253,-2.5999,-2.5558,-2.5077,-2.5077,-2.489,-2.4676,-2.4943,-2.505,-2.5184,-2.5705,-2.5678,-2.5518,-2.5785,-2.5464,-2.4957,-2.4663,-2.4396,-2.4048,-2.346,-2.3327,-2.3247,-2.2926,-2.2572,-2.1308,-1.7809,-1.6826,-1.5566,-1.2187,-1.185,-1.1986,-1.185,-1.1965,-1.206,-1.206,-1.2047,-1.2094,-1.225,-1.225,-1.2291,-1.2413,-1.2176,-1.2013,-1.2013,-1.1911,-1.1918,-1.2054,-1.2244,-1.24,-1.2522,-1.2406,-1.24,-1.2528,-1.2528,-1.2603,-1.2759,-1.2759,-1.2908,-3.4703,-3.541,-3.7156,0.0,-4.2948,-4.4775,-4.929,-5.0284,-5.0875,-5.2867,-5.4327,-5.5334,-5.6103,-5.9437,-6.2709,0.0,-6.7899,-7.1012,-7.2574,-7.6589,-7.9814,-8.1211,-8.264,-8.4964,-8.8524,-8.9306,-9.03,-9.2193,-9.2921,-9.1145,-8.6366,-8.8365,-9.0307,-9.1744,-9.3172,-9.2055,-8.8258,-8.2301,-7.6621,-7.1253,-6.6123,-6.0288,-5.3893,-5.413,-5.1779,-4.7471,-4.4783,-4.0626,-3.5698,-3.3635,-3.0763,-2.7857,-2.6756,-2.6386,-2.6373,-2.6253,-2.5945,-2.5571,-2.5398,-2.5144,-2.489,-2.4836,-2.4943,-2.513,-2.5371,-2.5478,-2.5545,-2.5665,-2.5398,-2.505,-2.493,-2.4676,-2.4302,-2.3728,-2.3581,-2.3447,-2.2966,-2.117,-1.9066,-1.7529,-1.5425,-1.3484,-1.2011,-1.1918,-1.2067,-1.2094,-1.2223,-1.2318,-1.2318,-1.2244,-1.2223,-1.2284,-1.2291,-1.2318,-1.2372,-1.2182,-1.202,-1.1932,-1.2033,-1.2088,-1.206,-1.2372,-1.2494,-1.2379,-1.24,-1.2359,-1.2244,-1.2332,-1.2454,-1.2596,-1.2596,-1.2664,-3.6804,0.0,0.0,-4.4176,-4.654,-4.8534,-5.2354,-5.3678,-5.4377,-5.5355,-5.6252,-5.6874,-5.7697,-6.1038,-6.4284,-6.633,-6.9252,-7.1798,-7.3281,-7.5846,-7.8279,-7.9681,-8.2656,-8.5476,-8.7644,-9.0444,-9.2505,-9.34,-9.3472,-9.1309,-8.6364,-8.9363,-9.122,-9.1182,-9.1216,-8.879,-8.3724,-7.8351,-7.305,-6.7874,-6.0114,-5.4027,-4.9646,-5.1476,-4.9594,-4.4954,-4.3248,-3.9217,-3.3677,-3.3166,-3.0556,-2.6921,-2.6627,-2.6507,-2.6493,-2.6413,-2.6199,-2.5932,-2.5705,-2.5438,-2.5157,-2.485,-2.4903,-2.5077,-2.5077,-2.5224,-2.5411,-2.5491,-2.5304,-2.5077,-2.5077,-2.4863,-2.4489,-2.3915,-2.3768,-2.3607,-2.2993,-2.034,-1.7809,-1.7248,-1.4625,-1.228,-1.1809,-1.1993,-1.2162,-1.2271,-1.2413,-1.2501,-1.2501,-1.2379,-1.2291,-1.2291,-1.225,-1.2244,-1.2284,-1.2149,-1.2033,-1.1959,-1.2128,-1.2196,-1.2128,-1.2433,-1.2508,-1.2291,-1.2352,-1.2298,-1.2128,-1.2196,-1.2325,-1.2501,-1.2501,-1.2501,0.0,0.0,-4.1167,-4.6244,-5.0086,-5.3275,-5.553,-5.6597,-5.6968,-5.6314,-5.7074,-5.8124,-5.921,-6.0519,-6.3019,-6.8032,-6.8882,-7.0344,-7.4279,-7.4953,-7.5091,-7.5118,-8.0781,-8.4617,0.0,-9.1659,-9.4924,-9.2065,-8.8478,-8.6346,-8.6115,-8.9351,-9.118,-9.1206,-9.1202,-8.684,-7.7674,-7.3536,-6.7454,-5.9399,-5.3014,-4.9748,-4.9545,-4.8594,-4.742,-4.6145,-4.472,-4.0337,-3.4249,-3.4233,-3.148,-2.7228,-2.6921,-2.6814,-2.6774,-2.6493,-2.6199,-2.5959,-2.5945,-2.5745,-2.5451,-2.5157,-2.5077,-2.5077,-2.5077,-2.509,-2.5157,-2.5438,-2.5304,-2.5077,-2.5077,-2.4863,-2.4489,-2.3915,-2.3768,-2.3607,-2.2993,-2.1321,-1.9495,-1.7529,-1.5864,-1.3994,-1.2122,-1.2081,-1.2284,-1.2291,-1.2413,-1.2501,-1.2501,-1.2379,-1.2291,-1.2291,-1.2155,-1.2128,-1.2277,-1.2149,-1.2121,-1.2271,-1.2149,-1.2135,-1.2277,-1.2298,-1.2298,-1.2291,-1.2149,-1.2142,-1.2284,-1.2142,-1.2216,-1.2501,-1.2501,-1.2501,0.0,0.0,-4.6849,-5.2307,-5.449,-5.6059,-5.8805,-5.9673,-5.9722,-5.9298,-5.9583,-5.9988,-5.9555,-6.3999,-6.8152,-6.9952,-7.1658,-7.3412,-7.478,-7.8595,-7.9704,-7.5375,-7.3741,0.0,0.0,0.0,0.0,-9.2526,-9.0564,-8.867,-8.6799,-8.7787,-8.8402,-8.841,-8.6312,-8.1379,-7.3438,-6.6598,-5.9672,-5.2771,-5.2068,-5.1838,-5.163,-4.8732,-4.6581,-4.5211,-4.1277,-3.7674,-3.4437,-3.2361,-2.9895,-2.7241,-2.6934,-2.6707,-2.652,-2.6426,-2.6333,-2.6213,-2.6026,-2.5892,-2.5758,-2.5464,-2.5237,-2.5077,-2.5077,-2.5077,-2.5104,-2.5197,-2.5157,-2.5077,-2.5077,-2.4863,-2.4543,-2.4155,-2.3915,-2.3661,-2.326,-2.0611,-1.7949,-1.7388,-1.4871,-1.259,-1.2113,-1.2155,-1.2325,-1.242,-1.2474,-1.2501,-1.2501,-1.2461,-1.2433,-1.2433,-1.2298,-1.2271,-1.242,-1.2298,-1.2237,-1.2284,-1.2332,-1.2332,-1.2291,-1.2379,-1.2386,-1.2291,-1.2237,-1.2189,-1.2142,-1.2189,-1.2264,-1.2366,-1.2461,-1.2447,0.0,-4.6299,-5.0613,-5.5557,-5.7252,-5.841,-6.1546,-6.2019,-6.1632,-6.14,-6.0988,-5.9163,-5.462,-5.853,-6.398,-6.8776,-7.3674,-7.7093,-7.8208,-8.2015,-8.3087,-7.8889,-7.4865,-7.3086,0.0,0.0,0.0,-9.2143,-9.1861,-9.078,-8.8613,-8.8521,-8.7473,-8.5386,-8.2123,-7.7508,-7.1385,-6.4087,-5.7299,-5.0851,-5.2203,-5.2901,-5.2717,-4.7425,-4.4928,-4.4803,-3.9698,-3.6375,-3.4456,-3.1741,-2.9492,-2.7549,-2.7255,-2.7028,-2.6841,-2.6734,-2.6707,-2.664,-2.6253,-2.6106,-2.6066,-2.5772,-2.5545,-2.5358,-2.5144,-2.5077,-2.5064,-2.4957,-2.4917,-2.4917,-2.4917,-2.4783,-2.4569,-2.4275,-2.4062,-2.3848,-2.3554,-2.0309,-1.748,-1.748,-1.4496,-1.2026,-1.2128,-1.2271,-1.2393,-1.2488,-1.2501,-1.2501,-1.2501,-1.2461,-1.2427,-1.2427,-1.2298,-1.2271,-1.2413,-1.2345,-1.2311,-1.2366,-1.2447,-1.2461,-1.2372,-1.2454,-1.2433,-1.2291,-1.2291,-1.2244,-1.2142,-1.2244,-1.2318,-1.2366,-1.2461,-1.2454,-4.442,-4.8432,-5.2829,-5.6804,-5.8804,-6.0435,-6.3435,-6.35,-6.2834,-6.2602,-6.0933,-5.6213,0.0,0.0,-5.1491,-6.5045,-7.3836,-8.0042,-8.2884,-8.4055,-8.4494,0.0,0.0,0.0,0.0,0.0,0.0,-9.0774,0.0,-9.2134,-9.1238,-9.1353,-8.8716,-8.2647,-7.8911,-7.5082,-7.0928,-6.5371,-5.9329,-5.286,-5.286,-5.2842,-5.2612,-4.4721,-4.2518,-4.4694,-3.9845,-3.662,-3.4343,-3.2217,-3.0093,-2.8096,-2.7802,-2.7682,-2.7642,-2.7362,-2.7268,-2.7188,-2.6627,-2.6426,-2.636,-2.6079,-2.5972,-2.5852,-2.5291,-2.5117,-2.5037,-2.4743,-2.4663,-2.4649,-2.4636,-2.4636,-2.4569,-2.4289,-2.4209,-2.4128,-2.3705,-2.0694,-1.7895,-1.7759,-1.4844,-1.2291,-1.2298,-1.2413,-1.2501,-1.2501,-1.2501,-1.2501,-1.2501,-1.2386,-1.2298,-1.2298,-1.2162,-1.2135,-1.2291,-1.2291,-1.2352,-1.2494,-1.2501,-1.2508,-1.2515,-1.2508,-1.244,-1.2318,-1.2305,-1.2298,-1.2298,-1.2298,-1.2372,-1.2501,-1.2501,-1.2501,-5.1711,-5.6011,-5.9712,-6.163,-6.2738,-6.3736,-6.5563,-6.5105,-6.3156,-5.9594,-5.9236,-5.6726,0.0,0.0,0.0,-6.738,-6.6482,0.0,-6.4597,-7.6141,0.0,-8.1551,0.0,-8.5826,-8.5862,-8.6236,0.0,0.0,-8.9974,-9.1432,-9.1221,-9.3611,-9.2165,-8.5952,-7.7397,-7.04,-6.5267,-5.8799,-5.4656,-5.2941,-5.2941,-5.2899,-5.2599,-4.4793,-4.1595,-4.1975,-3.8577,-3.5534,-3.2834,-3.0136,-2.8506,-2.7802,-2.7722,-2.7562,-2.7362,-2.7295,-2.7268,-2.7241,-2.7094,-2.6894,-2.6667,-2.6373,-2.6132,-2.5932,-2.5772,-2.5585,-2.5344,-2.505,-2.497,-2.4917,-2.469,-2.4636,-2.4623,-2.4543,-2.4369,-2.3733,-2.2177,-1.9781,-1.7467,-1.6003,-1.3814,-1.2325,-1.2427,-1.2474,-1.2501,-1.2501,-1.2501,-1.2501,-1.2501,-1.2467,-1.2447,-1.2447,-1.2318,-1.2291,-1.2433,-1.2352,-1.2352,-1.2494,-1.2501,-1.2556,-1.2664,-1.2562,-1.2535,-1.2617,-1.2508,-1.2447,-1.2447,-1.2447,-1.2467,-1.2501,-1.2501,-1.2501,-5.6128,-6.0154,-6.355,-6.3694,-6.5274,-6.614,-6.422,-6.4181,-6.3365,-5.953,-5.6964,0.0,-4.8538,0.0,0.0,0.0,0.0,0.0,-6.9951,-7.824,-8.4801,0.0,-8.6416,0.0,-8.6904,-8.7754,-8.8326,0.0,-9.189,-9.3843,-9.3477,-9.5267,-9.3445,-8.7192,-7.677,-6.7264,-5.8771,-5.4868,-5.2911,-5.2854,-5.2864,-5.1102,-4.7693,-4.3194,-4.0504,-3.9141,-3.6829,-3.4327,-3.1813,-2.9314,-2.8043,-2.7896,-2.7896,-2.7789,-2.7655,-2.7655,-2.7655,-2.7629,-2.7495,-2.7348,-2.7134,-2.672,-2.6466,-2.6293,-2.6039,-2.5838,-2.5625,-2.5197,-2.5077,-2.501,-2.4716,-2.4636,-2.4636,-2.4636,-2.4516,-2.3784,-2.1834,-1.9774,-1.7308,-1.4485,-1.3072,-1.2406,-1.2488,-1.2501,-1.2501,-1.2501,-1.2501,-1.2501,-1.2501,-1.2501,-1.2501,-1.2501,-1.2433,-1.2413,-1.2494,-1.2427,-1.242,-1.2494,-1.2562,-1.2637,-1.2725,-1.2712,-1.2712,-1.2732,-1.2712,-1.2671,-1.2603,-1.2603,-1.2603,-1.2603,-1.2535,-1.2501,-5.9254,-6.2465,-6.5138,-6.4473,-6.6733,-6.7736,-6.1967,-6.2591,-6.3389,-6.0261,0.0,-5.0796,-4.8933,-5.1674,-5.6216,-6.2706,0.0,-9.0324,-8.6117,-8.5555,-8.7105,-9.1244,-8.9107,-8.7173,-8.6806,-8.9509,-9.1449,-9.1833,-9.5363,-9.7169,-9.6327,-9.5882,-9.1992,-8.4063,-7.4956,-6.4592,-5.3009,-5.3215,-5.3181,-5.2889,-5.289,-4.8747,-4.1187,-4.0066,-3.8396,-3.6428,-3.4552,-3.2827,-3.0744,-2.8964,-2.8136,-2.8136,-2.8136,-2.8136,-2.8136,-2.8136,-2.8136,-2.811,-2.7843,-2.7736,-2.7602,-2.7014,-2.6827,-2.672,-2.6172,-2.6012,-2.5892,-2.5304,-2.5144,-2.5064,-2.473,-2.4636,-2.4488,-2.4327,-2.4179,-2.3574,-2.1337,-1.9249,-1.6834,-1.3169,-1.2549,-1.2528,-1.2528,-1.2515,-1.2501,-1.2501,-1.2501,-1.2501,-1.2501,-1.2501,-1.2501,-1.2501,-1.2501,-1.2501,-1.2501,-1.2501,-1.2508,-1.2528,-1.2657,-1.2745,-1.2786,-1.2901,-1.2895,-1.2766,-1.2895,-1.2888,-1.2732,-1.2732,-1.2739,-1.2759,-1.2603,-1.2542,-6.3048,-6.5138,-6.5961,-6.5714,-6.7415,-6.8222,-6.4587,-6.4464,0.0,0.0,-5.6679,-5.5391,-5.257,-5.4974,-6.3669,-8.2884,0.0,0.0,0.0,0.0,-9.0732,0.0,0.0,0.0,0.0,-9.1157,0.0,0.0,-9.6097,-9.6482,-9.6272,-9.3607,-8.4457,-6.7751,-6.5482,-6.0831,-5.3008,-5.4712,-5.4679,-5.2867,-5.2932,-4.8747,-4.1,-3.3702,-3.2139,-3.4925,-3.0929,-2.9035,-2.8796,-2.8305,-2.8136,-2.8136,-2.8136,-2.8136,-2.8136,-2.8136,-2.8136,-2.8136,-2.8083,-2.7909,-2.7602,-2.7014,-2.6827,-2.676,-2.6413,-2.6319,-2.6186,-2.5598,-2.5438,-2.5317,-2.477,-2.4636,-2.4179,-2.2509,-2.2049,-2.1199,-1.7587,-1.5277,-1.3822,-1.304,-1.2779,-1.2691,-1.2691,-1.2583,-1.2501,-1.2501,-1.2501,-1.2501,-1.2501,-1.2501,-1.2501,-1.2501,-1.2501,-1.2501,-1.2501,-1.2501,-1.2556,-1.2684,-1.2718,-1.284,-1.3085,-1.301,-1.2949,-1.2922,-1.2949,-1.2888,-1.2732,-1.2732,-1.2793,-1.2915,-1.2759,-1.2759,-6.4813,-6.6538,-6.807,-6.8699,-7.004,-6.9818,-6.4719,0.0,0.0,0.0,-5.5389,-5.5338,-5.4395,0.0,0.0,0.0,0.0,0.0,0.0,0.0,0.0,0.0,0.0,0.0,0.0,-9.0694,-9.3043,-9.6083,-9.6286,-9.6298,-9.6295,-8.6458,-7.5413,-6.3439,-5.9692,-5.6165,-5.2997,-5.3989,-5.3911,-5.2865,-5.2931,-4.8822,-4.1022,-3.4487,-3.2364,-3.3483,-3.1392,-2.9522,-2.8136,-2.8136,-2.8136,-2.8136,-2.8136,-2.8136,-2.8136,-2.8136,-2.8136,-2.8136,-2.8136,-2.7949,-2.7629,-2.7188,-2.6947,-2.6774,-2.648,-2.6386,-2.6293,-2.5865,-2.5745,-2.5638,-2.5211,-2.509,-2.4475,-2.2469,-2.0298,-1.8164,-1.6251,-1.432,-1.2963,-1.2963,-1.2834,-1.2732,-1.2732,-1.2603,-1.2501,-1.2501,-1.2501,-1.2501,-1.2501,-1.2501,-1.2501,-1.2501,-1.2501,-1.2501,-1.2501,-1.2501,-1.2535,-1.261,-1.2759,-1.2915,-1.3057,-1.3146,-1.3152,-1.3071,-1.3152,-1.3112,-1.2963,-1.2963,-1.2996,-1.3064,-1.2922,-1.2888,-6.7029,-6.8982,-7.0901,-7.2106,-7.313,-7.1888,-6.4774,-6.3689,0.0,0.0,-5.4651,-5.5164,-5.6064,0.0,0.0,0.0,0.0,0.0,0.0,0.0,0.0,0.0,0.0,0.0,0.0,0.0,0.0,-9.6006,-9.1884,-8.9695,-9.0869,-7.7368,-6.6869,-6.1086,-5.5645,-5.2946,-5.2844,-5.2854,-5.2833,-5.2886,-5.1218,-4.7597,-4.2252,-3.7095,-3.3951,-3.2476,-3.1918,-3.0346,-2.8136,-2.8136,-2.8136,-2.8136,-2.8136,-2.8136,-2.8136,-2.8136,-2.8136,-2.8136,-2.8136,-2.7909,-2.7562,-2.7348,-2.7068,-2.6774,-2.648,-2.6386,-2.6333,-2.6039,-2.5959,-2.5892,-2.5585,-2.5518,-2.4879,-2.2222,-1.8484,-1.5361,-1.5361,-1.4135,-1.3057,-1.3057,-1.2929,-1.2813,-1.2786,-1.2678,-1.2589,-1.2556,-1.2576,-1.2603,-1.2603,-1.2603,-1.2589,-1.2556,-1.2522,-1.2501,-1.2501,-1.2528,-1.2562,-1.2596,-1.2854,-1.3024,-1.3057,-1.3275,-1.3329,-1.3173,-1.3322,-1.3322,-1.3173,-1.3173,-1.3193,-1.322,-1.3071,-1.3024,-7.2363,-7.417,-7.4774,-7.4993,-7.5735,-7.4357,-6.6433,0.0,0.0,-5.846,-5.7457,-5.7973,-5.8799,-5.996,-6.2823,0.0,0.0,-7.2521,0.0,0.0,0.0,0.0,0.0,0.0,0.0,0.0,-8.9901,-9.5828,-7.7541,-6.8316,-7.334,-6.7394,-6.0805,-5.4002,-5.3185,-5.2858,-5.2854,-5.2948,-5.2897,-5.2804,-4.5718,-4.3705,-4.6129,-3.8254,-3.3855,-3.2339,-2.9663,-2.8473,-2.8136,-2.8136,-2.8136,-2.8136,-2.8136,-2.8136,-2.8136,-2.8136,-2.8136,-2.8136,-2.8136,-2.7776,-2.7308,-2.7268,-2.7068,-2.6774,-2.648,-2.6386,-2.6333,-2.6039,-2.5959,-2.5892,-2.5585,-2.5518,-2.4406,-2.049,-1.6384,-1.3471,-1.3471,-1.3425,-1.3363,-1.3363,-1.3234,-1.3091,-1.2963,-1.2929,-1.2868,-1.2732,-1.2827,-1.2922,-1.2922,-1.2922,-1.2868,-1.2725,-1.2583,-1.2501,-1.2501,-1.263,-1.2773,-1.2908,-1.3064,-1.3214,-1.3356,-1.339,-1.3329,-1.3173,-1.3322,-1.3322,-1.3173,-1.3173,-1.3247,-1.3376,-1.322,-1.3227,-7.2589,-7.4992,-7.673,-7.8393,-7.6007,-7.2607,-6.9912,0.0,0.0,-5.9857,-5.9046,-5.9336,-6.0883,-6.1208,-6.2625,-6.6936,0.0,0.0,0.0,0.0,0.0,0.0,0.0,0.0,0.0,0.0,-9.1615,-9.676,-7.6003,-6.2279,-6.0359,-6.0062,-5.7799,-5.3085,-5.2851,-5.2179,-5.064,-4.9747,-4.9412,-4.9306,-4.376,-4.1975,-4.3255,-3.4709,-3.0439,-2.9878,-2.8728,-2.8136,-2.8136,-2.8136,-2.8136,-2.8136,-2.8136,-2.8136,-2.8136,-2.8136,-2.8136,-2.8136,-2.8136,-2.7762,-2.7295,-2.7468,-2.7094,-2.6547,-2.6426,-2.6386,-2.636,-2.6253,-2.6213,-2.6146,-2.5852,-2.386,-2.1525,-1.9923,-1.6333,-1.3336,-1.3424,-1.3424,-1.3431,-1.3519,-1.3342,-1.3152,-1.3098,-1.3017,-1.2942,-1.2874,-1.2922,-1.2963,-1.2963,-1.2963,-1.2935,-1.2874,-1.2813,-1.2739,-1.2651,-1.2779,-1.2895,-1.2956,-1.3098,-1.32,-1.3261,-1.3349,-1.337,-1.3308,-1.337,-1.337,-1.3308,-1.3308,-1.3342,-1.3397,-1.3336,-1.3342,-7.2935,-7.6673,-7.9429,-8.2102,-7.8427,-7.3749,0.0,0.0,0.0,-6.1401,-6.0603,-6.0756,-6.2522,-6.2462,-6.2843,-6.5061,0.0,-6.4945,0.0,0.0,0.0,0.0,0.0,0.0,0.0,-9.3313,-9.0927,-8.9959,-7.4691,-6.2637,-5.6109,-5.7138,-5.6472,-5.3031,-5.2851,-5.1812,-4.9298,-4.7385,-4.6614,-4.6918,-4.3084,-4.121,-4.0838,-3.2165,-2.8221,-2.8149,-2.8211,-2.8136,-2.8136,-2.8136,-2.8136,-2.8136,-2.8136,-2.8136,-2.8136,-2.8136,-2.8136,-2.8136,-2.8136,-2.7816,-2.7428,-2.7629,-2.7228,-2.664,-2.6547,-2.6453,-2.6386,-2.6386,-2.6386,-2.6175,-2.5335,-2.2383,-1.9544,-1.9056,-1.6172,-1.3444,-1.3593,-1.3546,-1.3498,-1.3607,-1.3458,-1.3281,-1.3186,-1.3125,-1.3078,-1.303,-1.3064,-1.3091,-1.3091,-1.3091,-1.3071,-1.303,-1.3064,-1.301,-1.2813,-1.2935,-1.3024,-1.3024,-1.32,-1.3288,-1.3241,-1.339,-1.3444,-1.3403,-1.3403,-1.3403,-1.3403,-1.3403,-1.3403,-1.3403,-1.3403,-1.3403,-7.4806,-7.9933,-8.3999,-8.6372,-8.3857,-7.9596,0.0,0.0,-6.6307,-6.3408,-6.2549,-6.2673,-6.3665,-6.4016,-6.4384,-6.5358,-6.4565,0.0,0.0,0.0,0.0,0.0,0.0,0.0,0.0,-9.3434,-8.6028,-7.2606,-7.1179,-6.8395,-6.2612,-5.9535,-5.6449,-5.3005,-5.2886,-5.1886,-4.9961,-4.6771,-4.5762,-4.6918,-4.3054,-4.1148,-4.0952,-3.2127,-2.8194,-2.8136,-2.8136,-2.8136,-2.8136,-2.8136,-2.8136,-2.8136,-2.8136,-2.8136,-2.8136,-2.8136,-2.8136,-2.8136,-2.8136,-2.7949,-2.7696,-2.7696,-2.7495,-2.7201,-2.6907,-2.6613,-2.6386,-2.6386,-2.6386,-2.5898,-2.362,-2.1523,-1.941,-1.7138,-1.5028,-1.3444,-1.3593,-1.3627,-1.3627,-1.3627,-1.3627,-1.3532,-1.3227,-1.3295,-1.3342,-1.3193,-1.3302,-1.3397,-1.3397,-1.3397,-1.3336,-1.3186,-1.3308,-1.3275,-1.2983,-1.3085,-1.3173,-1.3173,-1.3458,-1.3559,-1.3403,-1.3546,-1.3553,-1.3403,-1.3403,-1.3403,-1.3403,-1.3403,-1.3403,-1.3403,-1.3403,-1.3403,-6.8895,-7.1965,-7.3972,-7.6663,-7.4291,-7.0906,-7.0025,0.0,-6.4054,-6.3453,-6.3363,-6.3705,-6.4558,-6.4479,-6.4614,-6.5769,-6.4739,0.0,0.0,0.0,0.0,0.0,0.0,0.0,0.0,0.0,-8.39,-7.4543,-6.9049,-6.3775,-5.8523,-5.6996,-5.5681,-5.4682,-5.2216,-4.9961,-4.7927,-4.5592,-4.3924,-4.3054,-4.1852,-4.1148,-4.0952,-3.2127,-2.8194,-2.8136,-2.8136,-2.8136,-2.8136,-2.8136,-2.8136,-2.8136,-2.8136,-2.8136,-2.8136,-2.8136,-2.8136,-2.8136,-2.8136,-2.7949,-2.7696,-2.7696,-2.7509,-2.7215,-2.6907,-2.676,-2.664,-2.644,-2.6239,-2.5662,-2.3584,-2.1523,-1.9287,-1.7304,-1.5203,-1.3593,-1.3743,-1.3695,-1.3654,-1.3756,-1.3777,-1.3709,-1.3519,-1.3607,-1.362,-1.3363,-1.3458,-1.3519,-1.3417,-1.3403,-1.3424,-1.3478,-1.3526,-1.3437,-1.3132,-1.3342,-1.3485,-1.3485,-1.3668,-1.3709,-1.3559,-1.36,-1.3559,-1.3403,-1.3403,-1.3403,-1.3403,-1.3403,-1.3403,-1.3403,-1.3403,-1.3403,0.0,-6.8197,-7.0217,-7.2868,-7.0757,0.0,0.0,0.0,0.0,-6.3706,-6.4138,-6.4634,-6.5199,-6.5178,-6.5368,-6.6159,-6.545,0.0,0.0,0.0,0.0,0.0,0.0,0.0,0.0,-8.8994,-8.3432,-7.5726,-6.9278,-6.3295,-5.8001,-5.6185,-5.473,-5.3385,-5.1205,-4.865,-4.5849,-4.4677,-4.3075,-4.1172,-4.1172,-4.0325,-3.8473,-3.1356,-2.8194,-2.8136,-2.8136,-2.8136,0.0,-2.8136,-2.8136,-2.8136,-2.8136,-2.8136,-2.8136,-2.8136,-2.8136,-2.8136,-2.8136,-2.8016,-2.7843,-2.7736,-2.7428,-2.7068,-2.6881,-2.6747,-2.6613,-2.644,-2.5687,-2.4539,-2.2429,-2.0405,-1.8211,-1.6181,-1.4711,-1.3749,-1.3899,-1.3858,-1.3824,-1.3912,-1.3926,-1.3878,-1.3736,-1.3783,-1.3777,-1.3593,-1.3648,-1.3675,-1.358,-1.3566,-1.36,-1.3695,-1.3709,-1.3634,-1.3444,-1.36,-1.3709,-1.3709,-1.3844,-1.3838,-1.3641,-1.3682,-1.3614,-1.3403,-1.3403,-1.3403,-1.3403,-1.3403,-1.3403,-1.3403,-1.3403,-1.3403,0.0,0.0,0.0,0.0,0.0,0.0,0.0,0.0,0.0,0.0,0.0,-6.5454,-6.5634,-6.5954,-6.6237,-6.6298,0.0,0.0,0.0,0.0,0.0,0.0,0.0,0.0,-8.6774,-8.6922,-8.3999,-7.5803,-7.0781,-6.5561,-5.9927,-5.6766,-5.3385,-4.9961,-4.9677,-4.7759,-4.4096,-4.3945,-4.2922,-4.1172,-4.1172,-3.8882,-3.4635,-3.0204,-2.8194,-2.8136,-2.8136,-2.8136,-2.8136,-2.8136,-2.8136,-2.8136,-2.8136,-2.8136,-2.8136,-2.8136,-2.8136,-2.8136,-2.8136,-2.8136,-2.8096,-2.7816,-2.7335,-2.6854,-2.6881,-2.6667,-2.6426,-2.6426,-2.4987,-2.2876,-2.0734,-1.8588,-1.656,-1.4365,-1.3858,-1.3899,-1.4041,-1.4075,-1.4075,-1.4075,-1.4082,-1.4041,-1.3885,-1.3865,-1.3865,-1.3844,-1.3851,-1.3851,-1.3844,-1.3838,-1.3844,-1.3858,-1.3858,-1.3865,-1.3871,-1.3865,-1.3858,-1.3858,-1.3994,-1.3939,-1.3654,-1.3763,-1.3688,-1.3403,-1.3403,-1.3403,-1.3403,-1.3403,-1.3403,-1.3403,-1.3403,-1.3403,-6.1903,0.0,-6.2578,-6.3907,-6.5026,-6.5537,0.0,0.0,0.0,0.0,0.0,0.0,0.0,0.0,0.0,0.0,0.0,0.0,0.0,0.0,0.0,0.0,0.0,-9.1975,-8.5844,-8.4541,-8.0981,-7.3356,-6.6695,-6.1102,-5.6719,-5.3173,-5.0197,-4.7759,-4.6293,-4.4977,-4.4096,-4.2637,-4.1618,-4.1172,-4.1172,-3.8882,-3.4635,-3.0204,-2.8194,-2.8136,-2.8136,-2.8136,-2.8136,-2.8136,-2.8136,-2.8136,-2.8136,-2.8136,-2.8136,-2.8136,-2.8136,-2.8136,-2.8136,-2.8136,-2.8136,-2.8056,-2.7642,-2.7201,-2.7428,-2.7134,-2.672,-2.672,-2.5276,-2.315,-2.0973,-1.8959,-1.6738,-1.4527,-1.4014,-1.4027,-1.4061,-1.4075,-1.4075,-1.4075,-1.4163,-1.4197,-1.4041,-1.4116,-1.4116,-1.3878,-1.3939,-1.3973,-1.3858,-1.3838,-1.3885,-1.4007,-1.4014,-1.4061,-1.4183,-1.4082,-1.4014,-1.4014,-1.4055,-1.3987,-1.3797,-1.3715,-1.3593,-1.3403,-1.3403,-1.3403,-1.3403,-1.3403,-1.3403,-1.3403,-1.3403,-1.3403,-6.2798,-6.1943,-6.0854,-6.14,-6.2786,-6.387,0.0,0.0,0.0,0.0,0.0,0.0,0.0,0.0,0.0,0.0,0.0,0.0,0.0,0.0,0.0,0.0,0.0,-8.9708,0.0,-8.311,-7.8148,-7.1043,-6.4395,-5.8703,-5.4386,-5.1436,-4.865,-4.5701,-4.4677,-4.3642,-4.279,-4.1773,-4.1172,-4.1172,-4.0197,-3.7914,-3.4651,-3.1553,-2.949,-2.8136,-2.8136,-2.8136,-2.8136,-2.8136,-2.8136,-2.8136,-2.8136,-2.8136,-2.8136,-2.8136,-2.8136,-2.8136,-2.8136,-2.8238,-2.813,-2.7949,-2.7629,-2.7295,-2.7455,-2.7375,-2.7025,-2.574,-2.3892,-2.1894,-1.9692,-1.7467,-1.5548,-1.452,-1.4177,-1.4177,-1.4177,-1.4177,-1.4177,-1.4177,-1.4245,-1.4272,-1.419,-1.4245,-1.4245,-1.4075,-1.4122,-1.415,-1.4061,-1.3987,-1.4007,-1.4156,-1.4116,-1.4136,-1.4285,-1.4224,-1.4177,-1.4177,-1.4109,-1.4,-1.3844,-1.3702,-1.3559,-1.3403,-1.3403,-1.3403,-1.3403,-1.3403,-1.3403,-1.3403,-1.3403,-1.3403,-6.4552,-6.4101,-6.3232,-6.2756,-6.3289,-6.3955,-6.3892,0.0,0.0,0.0,0.0,0.0,0.0,0.0,0.0,0.0,0.0,0.0,0.0,0.0,0.0,0.0,0.0,0.0,-8.6155,-8.1048,-7.4926,-6.8052,-6.2381,-5.7185,-5.2391,-5.0431,-4.7904,-4.4247,-4.3794,-4.2922,-4.1172,-4.1172,-4.1172,-4.1172,-3.8882,-3.6762,-3.4651,-3.3148,-3.0861,-2.8136,-2.8136,-2.8136,-2.8136,-2.8136,-2.8136,-2.8136,-2.8136,-2.8136,-2.8136,-2.8136,-2.8136,-2.8136,-2.8136,-2.8171,-2.8135,-2.7942,-2.7602,-2.7402,-2.7402,-2.7397,-2.6697,-2.4092,-2.2159,-2.0255,-1.8035,-1.5927,-1.4299,-1.4299,-1.4299,-1.4299,-1.4299,-1.4299,-1.4299,-1.4299,-1.4299,-1.4299,-1.4299,-1.4299,-1.4299,-1.4299,-1.4299,-1.4299,-1.4299,-1.419,-1.4156,-1.4285,-1.4183,-1.4156,-1.4292,-1.4299,-1.4299,-1.4299,-1.4156,-1.3994,-1.3817,-1.3695,-1.3559,-1.3403,-1.3403,-1.3403,-1.3403,-1.3403,-1.3403,-1.3403,-1.3403,-1.341,-6.5676,-6.7378,-6.833,-6.5695,-6.5392,-6.5744,-6.5907,0.0,0.0,0.0,0.0,0.0,0.0,0.0,0.0,0.0,0.0,0.0,0.0,0.0,-8.7053,-8.8496,0.0,-8.5974,-7.9043,-7.5111,-7.0116,-6.2882,-5.8451,-5.4386,-5.062,-4.8483,-4.6441,-4.4247,-4.2483,-4.1463,-4.1172,-4.1172,-4.1172,-4.1172,-3.8882,-3.6762,-3.4651,-3.3148,-3.0861,-2.8136,-2.8136,-2.8136,-2.8136,-2.8136,-2.8136,-2.8136,-2.8136,-2.8136,-2.8136,-2.8136,-2.8136,-2.8136,-2.8136,-2.8123,-2.8251,-2.8083,-2.8043,-2.8003,-2.8003,-2.6656,-2.462,-2.2332,-2.1312,-2.0653,-1.8235,-1.6011,-1.4299,-1.4299,-1.4299,-1.4299,-1.4299,-1.4299,-1.4299,-1.4299,-1.4299,-1.4299,-1.4299,-1.4299,-1.4299,-1.4299,-1.4299,-1.4299,-1.4299,-1.4278,-1.4272,-1.4299,-1.4278,-1.4272,-1.4299,-1.4299,-1.4299,-1.4299,-1.4156,-1.3946,-1.3675,-1.3641,-1.3559,-1.3403,-1.3403,-1.3403,-1.3403,-1.3403,-1.3403,-1.3403,-1.3403,-1.3471,-6.6141,-6.7174,-6.8135,-6.8195,-6.9379,-7.0464,-7.0104,0.0,0.0,0.0,0.0,0.0,0.0,0.0,0.0,0.0,0.0,0.0,-8.3744,-8.4299,-8.4768,0.0,0.0,-8.2076,-7.7094,-7.2195,-6.6691,-6.0478,-5.6183,-5.2192,-4.8627,-4.6441,-4.4548,-4.2637,-4.1381,-4.082,-4.082,-4.0605,-4.0723,-4.1172,-3.7737,-3.5621,-3.4651,-3.1617,-2.9495,-2.8136,-2.8136,-2.8136,-2.8136,-2.8136,-2.8136,-2.8136,-2.8136,-2.8136,-2.8136,-2.8136,-2.8136,-2.8136,-2.8136,-2.8136,-2.8136,-2.8136,-2.8136,-2.8136,-2.8136,-2.6211,-2.3607,-2.1729,-2.0356,-1.8802,-1.6553,-1.5168,-1.4299,-1.4299,-1.4299,-1.4299,-1.4299,-1.4299,-1.4299,-1.4299,-1.4299,-1.4299,-1.4299,-1.4299,-1.4299,-1.4299,-1.4299,-1.4299,-1.4299,-1.4231,-1.4211,-1.4292,-1.4224,-1.4211,-1.4292,-1.4299,-1.4265,-1.4183,-1.4109,-1.3939,-1.3641,-1.3627,-1.3559,-1.3403,-1.3403,-1.3403,-1.3403,-1.3403,-1.3444,-1.3526,-1.3526,-1.36,-6.6307,-6.6845,-6.7799,-6.9888,-7.1458,-7.2524,-7.296,-7.1783,0.0,0.0,0.0,0.0,0.0,0.0,0.0,0.0,0.0,-8.1071,-8.5603,-8.4294,-8.3466,-8.5353,-8.2263,-7.8563,-7.5097,-6.9395,-6.3502,-5.7922,-5.4004,-5.0359,-4.6588,-4.4977,-4.3228,-4.1327,-4.0742,-4.0527,-4.0527,-4.0098,-4.0273,-4.1016,-3.664,-3.4569,-3.4489,-3.0274,-2.8136,-2.8136,-2.807,-2.8043,-2.8043,-2.8043,-2.8043,-2.8043,-2.811,-2.8136,-2.8136,-2.8136,-2.8136,-2.8136,-2.8136,-2.8136,-2.8136,-2.8136,-2.8136,-2.7954,-2.6876,-2.4961,-2.2557,-2.0865,-1.8802,-1.6553,-1.4822,-1.4299,-1.4299,-1.4299,-1.4299,-1.4299,-1.4299,-1.4299,-1.4299,-1.4299,-1.4299,-1.4299,-1.4299,-1.4299,-1.4299,-1.4299,-1.4299,-1.4299,-1.4299,-1.4197,-1.417,-1.4285,-1.4197,-1.417,-1.4292,-1.4299,-1.4251,-1.4136,-1.4122,-1.4007,-1.3743,-1.3736,-1.3648,-1.3458,-1.3485,-1.3485,-1.3451,-1.3485,-1.3566,-1.3682,-1.3648,-1.3702,-6.6307,-6.8104,-7.0018,-7.039,-6.8743,0.0,-7.1931,-7.0193,0.0,-6.9834,0.0,0.0,0.0,0.0,0.0,0.0,0.0,-8.7079,-9.0677,0.0,-8.862,-8.6818,-8.261,-7.7145,-6.9998,-6.5289,-5.9964,-5.3445,-5.1296,-4.8483,-4.4527,-4.4247,-4.3228,-4.1327,-4.0742,-4.0527,-4.0527,-4.0098,-4.0117,-4.0566,-3.6079,-3.4321,-3.4489,-3.0274,-2.8136,-2.8123,-2.7856,-2.7736,-2.7736,-2.7736,-2.7722,-2.7749,-2.803,-2.8136,-2.8136,-2.8136,-2.8136,-2.8136,-2.8136,-2.8136,-2.8136,-2.8136,-2.8136,-2.7409,-2.2939,-2.1625,-2.0865,-1.8627,-1.6378,-1.4476,-1.4299,-1.4299,-1.4299,-1.4299,-1.4299,-1.4299,-1.4299,-1.4299,-1.4299,-1.4299,-1.4299,-1.4299,-1.4299,-1.4299,-1.4299,-1.4299,-1.4299,-1.4299,-1.4299,-1.4292,-1.4285,-1.4299,-1.4292,-1.4285,-1.4299,-1.4299,-1.4292,-1.4285,-1.4285,-1.4211,-1.4048,-1.4041,-1.3905,-1.362,-1.3743,-1.3743,-1.3614,-1.3743,-1.3817,-1.3824,-1.3688,-1.3702,-6.6307,-6.8186,-7.0078,-7.0251,-6.9421,0.0,0.0,-7.4136,-7.226,-7.1666,-7.1368,0.0,0.0,0.0,0.0,0.0,0.0,-8.8759,-9.1142,-8.9212,-8.6431,-8.3571,-7.8314,-7.267,-6.6897,-6.1681,-5.6954,-5.2851,-4.9818,-4.6882,-4.4226,-4.2657,-4.149,-4.0762,-4.0078,-3.9707,-3.9707,-3.9277,-3.8798,-3.8056,-3.5275,-3.35,-3.253,-2.9409,-2.7869,-2.7856,-2.7562,-2.7428,-2.7442,-2.7629,-2.7875,-2.7929,-2.8197,-2.8136,-2.8136,-2.8136,-2.8136,-2.8136,-2.8136,-2.8136,-2.8136,-2.8136,-2.8136,-2.7435,-2.3699,-2.2674,-2.2214,-2.0346,-1.8279,-1.621,-1.4646,-1.4299,-1.4299,-1.4299,-1.4299,-1.4299,-1.4299,-1.4299,-1.4299,-1.4299,-1.4299,-1.4299,-1.4299,-1.4299,-1.4299,-1.4299,-1.4299,-1.4299,-1.4299,-1.4299,-1.4299,-1.4299,-1.4299,-1.4299,-1.4299,-1.4299,-1.4299,-1.4299,-1.4299,-1.4231,-1.4082,-1.4075,-1.3973,-1.3763,-1.3817,-1.3817,-1.3763,-1.3817,-1.3838,-1.3838,-1.3783,-1.379,-6.7218,-6.8629,-7.0184,0.0,0.0,0.0,-7.6032,-7.6044,-7.4865,-7.4901,-7.4168,-7.348,-7.3172,0.0,0.0,0.0,-8.57,-8.823,-8.9127,-8.6241,-8.2859,-7.9429,-7.3714,-6.8106,-6.3413,-5.8806,-5.4853,-5.1916,-4.8844,-4.608,-4.4037,-4.1695,-4.0469,-4.0332,-3.959,-3.9199,-3.9199,-3.8317,-3.6978,-3.5624,-3.3783,-3.232,-3.1242,-2.8758,-2.7642,-2.7549,-2.7255,-2.7121,-2.7148,-2.7428,-2.7794,-2.8095,-2.7742,-2.7755,-2.7869,-2.7963,-2.8003,-2.8016,-2.811,-2.8136,-2.7968,-2.7084,-2.6914,-2.6393,-2.3038,-2.2353,-2.2557,-2.1556,-1.9488,-1.7413,-1.5858,-1.4822,-1.4299,-1.4299,-1.4299,-1.4299,-1.4299,-1.4299,-1.4299,-1.4299,-1.4299,-1.4299,-1.4299,-1.4299,-1.4299,-1.4299,-1.4299,-1.4299,-1.4299,-1.4299,-1.4299,-1.4299,-1.4299,-1.4299,-1.4299,-1.4299,-1.4299,-1.4299,-1.4299,-1.4251,-1.415,-1.4143,-1.4068,-1.3919,-1.396,-1.396,-1.3912,-1.396,-1.3987,-1.3987,-1.3939,-1.3885,-6.9078,-6.9682,0.0,0.0,0.0,0.0,-7.4553,-7.4867,-7.5095,-7.9562,-7.8053,-7.5692,-7.5,-7.6594,0.0,-7.9142,-8.3043,-8.5693,-8.494,-8.192,-7.8454,-7.4803,-6.9301,-6.4003,-5.9356,-5.6789,-5.3901,-5.0221,-4.8049,-4.5926,-4.3573,-4.1514,-4.0312,-3.9902,-3.9434,-3.9199,-3.9199,-3.7052,-3.5103,-3.3421,-3.1557,-3.0914,-3.0914,-2.8662,-2.7535,-2.7241,-2.6947,-2.6814,-2.6841,-2.6958,-2.7428,-2.8068,-2.6939,-2.677,-2.7295,-2.7589,-2.7696,-2.7749,-2.8043,-2.8136,-2.7617,-2.4608,-2.412,-2.3972,-2.0067,-1.9933,-2.1221,-2.1221,-1.9662,-1.7755,-1.7755,-1.6034,-1.4299,-1.4299,-1.4299,-1.4299,-1.4299,-1.4299,-1.4299,-1.4299,-1.4299,-1.4299,-1.4299,-1.4299,-1.4299,-1.4299,-1.4299,-1.4299,-1.4299,-1.4299,-1.4299,-1.4299,-1.4299,-1.4299,-1.4299,-1.4299,-1.4299,-1.4299,-1.4299,-1.4299,-1.4299,-1.4299,-1.4231,-1.4075,-1.4224,-1.4224,-1.4075,-1.4224,-1.4299,-1.4292,-1.4143,-1.3987,-6.7333,0.0,0.0,0.0,0.0,0.0,0.0,-7.5011,0.0,0.0,-7.8202,-7.5588,-7.4106,-7.7135,0.0,-7.6937,-7.9811,-8.1961,-8.08,-7.8179,-7.4373,-6.9108,-6.4961,-6.0774,-5.63,-5.4181,-5.1371,-4.7183,-4.6307,-4.4532,-4.1093,-4.0046,-3.9531,-3.9414,-3.8984,-3.8144,-3.659,-3.6135,-3.4316,-3.122,-3.0686,-2.9894,-2.8662,-2.7811,-2.7228,-2.6934,-2.664,-2.652,-2.6547,-2.7015,-2.7676,-2.8153,-2.7423,-2.6948,-2.6764,-2.7636,-2.7883,-2.7749,-2.8043,-2.8136,-2.7786,-2.5179,-2.4496,-2.4166,-2.1363,-2.2063,-2.3652,-2.3652,-2.1911,-2.0183,-2.0183,-1.7247,-1.4299,-1.4299,-1.4299,-1.4299,-1.4299,-1.4299,-1.4299,-1.4299,-1.4299,-1.4299,-1.4299,-1.4299,-1.4299,-1.4299,-1.4299,-1.4299,-1.4299,-1.4299,-1.4299,-1.4299,-1.4299,-1.4299,-1.4299,-1.4299,-1.4299,-1.4299,-1.4299,-1.4299,-1.4299,-1.4299,-1.4278,-1.4231,-1.4278,-1.4278,-1.4231,-1.4278,-1.4245,-1.4136,-1.4095,-1.3987,-6.8754,0.0,0.0,0.0,0.0,0.0,0.0,0.0,0.0,0.0,0.0,-7.68,-7.5092,-7.6516,0.0,-7.5951,-7.6706,-7.7284,-7.6469,-7.3689,-7.0076,-6.5551,-6.1982,-5.8564,-5.5205,-5.3228,-5.0651,-4.7328,-4.6291,-4.4416,-4.0928,-3.9959,-3.9316,-3.8965,-3.8711,-3.7639,-3.5497,-3.5164,-3.3364,-3.026,-2.9601,-2.8576,-2.7522,-2.7228,-2.6921,-2.664,-2.6466,-2.6453,-2.6401,-2.676,-2.7122,-2.7473,-2.7091,-2.6796,-2.6449,-2.7562,-2.7682,-2.741,-2.6968,-2.6758,-2.6236,-2.2955,-2.1922,-2.1901,-2.1292,-2.201,-2.3458,-2.4221,-2.2878,-2.1048,-2.0009,-1.7071,-1.4299,-1.4299,-1.4299,-1.4299,-1.4299,-1.4299,-1.4299,-1.4299,-1.4299,-1.4299,-1.4299,-1.4299,-1.4299,-1.4299,-1.4299,-1.4299,-1.4299,-1.4299,-1.4299,-1.4299,-1.4299,-1.4299,-1.4299,-1.4299,-1.4299,-1.4299,-1.4299,-1.4299,-1.4299,-1.4299,-1.4299,-1.4299,-1.4299,-1.4299,-1.4299,-1.4299,-1.4251,-1.4163,-1.4163,-1.4082,0.0,0.0,0.0,0.0,0.0,0.0,0.0,0.0,-8.1116,-8.15,0.0,-7.8638,-7.705,-7.5282,-7.4341,-7.5483,-7.3905,-7.238,-7.208,-6.9243,-6.6242,-6.3471,-6.0071,-5.7186,-5.5287,-5.3037,-5.0974,-4.9034,-4.7037,-4.4648,-4.2165,-4.0632,-3.9473,-3.8652,-3.8448,-3.7345,-3.5199,-3.3802,-3.2111,-2.991,-2.8454,-2.7482,-2.7215,-2.6947,-2.6667,-2.6386,-2.6386,-2.6361,-2.6413,-2.6413,-2.6413,-2.6426,-2.6452,-2.6467,-2.6453,-2.7054,-2.7241,-2.6967,-2.5469,-2.4791,-2.3926,-1.9433,-1.7887,-1.8026,-1.9904,-2.0676,-2.1322,-2.3337,-2.2428,-2.0356,-1.8279,-1.6034,-1.4299,-1.4299,-1.4299,-1.4299,-1.4299,-1.4299,-1.4299,-1.4299,-1.4299,-1.4299,-1.4299,-1.4299,-1.4299,-1.4299,-1.4299,-1.4299,-1.4299,-1.4299,-1.4299,-1.4299,-1.4299,-1.4299,-1.4299,-1.4299,-1.4299,-1.4299,-1.4299,-1.4299,-1.4299,-1.4299,-1.4299,-1.4299,-1.4299,-1.4299,-1.4299,-1.4299,-1.4299,-1.4299,-1.4299,-1.4224,0.0,0.0,0.0,0.0,0.0,0.0,0.0,0.0,0.0,-7.8692,-7.8592,-7.7666,-7.5117,-7.4726,-7.4153,-7.1982,-7.162,-7.079,-6.7989,-6.6964,-6.463,-5.9797,-5.8537,-5.6503,-5.2583,-5.0456,-4.8254,-4.587,-4.4014,-4.2126,-4.0455,-3.979,-3.9258,-3.9062,-3.7201,-3.5217,-3.3095,-3.1541,-2.9571,-2.7538,-2.7136,-2.6974,-2.6921,-2.6854,-2.6667,-2.6386,-2.6386,-2.6426,-2.6466,-2.6466,-2.6466,-2.6493,-2.6734,-2.6653,-2.6453,-2.7054,-2.7121,-2.6961,-2.683,-2.56,-2.3735,-2.0864,-1.8845,-1.7485,-1.7952,-1.8246,-1.8732,-2.1068,-2.0191,-1.8453,-1.7938,-1.6034,-1.4299,-1.4299,-1.4299,-1.4299,-1.4299,-1.4299,-1.4299,-1.4299,-1.4299,-1.4299,-1.4299,-1.4299,-1.4299,-1.4299,-1.4299,-1.4299,-1.4299,-1.4299,-1.4299,-1.4299,-1.4299,-1.4299,-1.4299,-1.4299,-1.4299,-1.4299,-1.4299,-1.4299,-1.4299,-1.4299,-1.4299,-1.4299,-1.4299,-1.4299,-1.4299,-1.4299,-1.4299,-1.4299,-1.4299,-1.4285,0.0,0.0,0.0,0.0,0.0,0.0,0.0,0.0,0.0,0.0,-7.5861,-7.5599,-7.3739,-7.2809,-7.1748,-7.01,-6.9051,-6.7462,-6.485,-6.3948,-6.1703,-5.6959,-5.6422,-5.507,-5.1614,-4.9534,-4.7422,-4.5355,-4.3558,-4.185,-4.0033,-3.9668,-3.9336,-3.8926,-3.6497,-3.4232,-3.196,-3.0377,-2.8619,-2.6613,-2.676,-2.668,-2.6413,-2.6547,-2.6533,-2.6386,-2.6386,-2.6386,-2.6386,-2.6386,-2.6386,-2.64,-2.656,-2.6533,-2.644,-2.6894,-2.6961,-2.6532,-2.4644,-2.3407,-2.19,-1.8379,-1.6535,-1.5864,-1.6875,-1.734,-1.7665,-1.8849,-1.8477,-1.7588,-1.6378,-1.5168,-1.4278,-1.4211,-1.419,-1.4211,-1.4285,-1.4245,-1.4211,-1.4285,-1.4299,-1.4299,-1.4299,-1.4299,-1.4299,-1.4299,-1.4299,-1.4299,-1.4299,-1.4299,-1.4299,-1.4299,-1.4299,-1.4299,-1.4299,-1.4299,-1.4299,-1.4299,-1.4299,-1.4299,-1.4299,-1.4299,-1.4265,-1.419,-1.4265,-1.4265,-1.419,-1.4265,-1.4299,-1.4299,-1.4299,-1.4299,0.0,0.0,0.0,0.0,0.0,0.0,0.0,0.0,0.0,0.0,-7.2755,-7.3233,-7.2192,-7.0253,-6.8759,-6.847,-6.6121,-6.377,-6.2187,-6.0732,-5.8587,-5.4857,-5.4496,-5.3531,-5.088,-4.8844,-4.7028,-4.5145,-4.3656,-4.1875,-4.0171,-3.9863,-3.9414,-3.8594,-3.5961,-3.3465,-3.1383,-2.9595,-2.7933,-2.6319,-2.656,-2.64,-2.5892,-2.6132,-2.6266,-2.6319,-2.6319,-2.6346,-2.6386,-2.6386,-2.6386,-2.6386,-2.6386,-2.6386,-2.6413,-2.6653,-2.6747,-2.6118,-2.2366,-2.0775,-1.9776,-1.5601,-1.4096,-1.4103,-1.5947,-1.66,-1.6763,-1.6755,-1.6909,-1.6721,-1.4787,-1.4611,-1.4745,-1.4242,-1.4374,-1.459,-1.44,-1.4163,-1.4116,-1.4272,-1.4299,-1.4299,-1.4299,-1.4299,-1.4299,-1.4299,-1.4299,-1.4299,-1.4299,-1.4299,-1.4299,-1.4299,-1.4299,-1.4299,-1.4299,-1.4299,-1.4299,-1.4299,-1.4299,-1.4299,-1.4299,-1.4299,-1.4231,-1.4075,-1.4224,-1.4238,-1.4109,-1.4238,-1.4299,-1.4299,-1.4299,-1.4299,0.0,0.0,0.0,0.0,0.0,0.0,0.0,0.0,0.0,0.0,0.0,-7.1316,-6.9194,-6.8016,-6.6903,-6.533,-6.2964,-6.0843,-5.9335,-5.8313,-5.6734,-5.4246,-5.4387,-5.293,-4.8633,-4.6472,-4.4679,-4.3106,-4.136,-4.04,-4.043,-3.9707,-3.9062,-3.8594,-3.4191,-3.1726,-3.1383,-2.7813,-2.6053,-2.6012,-2.6052,-2.5892,-2.5571,-2.5611,-2.5772,-2.6012,-2.6012,-2.6159,-2.6386,-2.6386,-2.6386,-2.6386,-2.6386,-2.6386,-2.6386,-2.6426,-2.6453,-2.6122,-2.3555,-2.1621,-1.9499,-1.7052,-1.4931,-1.3458,-1.3791,-1.4154,-1.4208,-1.4208,-1.459,-1.4618,-1.4311,-1.5473,-1.645,-1.4242,-1.5227,-1.6291,-1.4416,-1.4089,-1.4116,-1.4272,-1.4299,-1.4299,-1.4299,-1.4299,-1.4299,-1.4299,-1.4299,-1.4299,-1.4299,-1.4299,-1.4299,-1.4299,-1.4299,-1.4299,-1.4299,-1.4299,-1.4299,-1.4299,-1.4299,-1.4299,-1.4299,-1.4299,-1.4231,-1.4075,-1.4224,-1.4292,-1.4272,-1.4292,-1.4299,-1.4299,-1.4299,-1.4299,0.0,0.0,0.0,0.0,0.0,0.0,0.0,0.0,0.0,0.0,0.0,-6.7612,-6.7648,-6.5052,-6.3452,-6.4658,-6.1905,-5.8746,-5.636,-5.5714,-5.4554,-5.2207,-5.2102,-5.0983,-4.7495,-4.6035,-4.4475,-4.269,-4.1334,-4.0586,-4.0527,-3.9687,-3.8906,-3.8223,-3.3674,-3.0986,-3.0788,-2.7078,-2.5411,-2.5705,-2.5705,-2.5558,-2.5277,-2.5277,-2.5438,-2.5705,-2.5705,-2.5879,-2.6132,-2.5972,-2.6092,-2.6373,-2.6213,-2.6239,-2.6386,-2.6386,-2.6386,-2.5898,-2.2499,-2.0716,-1.942,-1.5843,-1.4217,-1.3417,-1.3505,-1.362,-1.3736,-1.3817,-1.4794,-1.5572,-1.4298,-1.5466,-1.6633,-1.4365,-1.4515,-1.5071,-1.4208,-1.4075,-1.4116,-1.4272,-1.4299,-1.4299,-1.4299,-1.4299,-1.4299,-1.4299,-1.4299,-1.4299,-1.4299,-1.4299,-1.4299,-1.4299,-1.4299,-1.4299,-1.4299,-1.4299,-1.4299,-1.4299,-1.4299,-1.4299,-1.4299,-1.4299,-1.4272,-1.4204,-1.4265,-1.4258,-1.417,-1.4258,-1.4299,-1.4299,-1.4211,-1.417,0.0,0.0,0.0,0.0,0.0,0.0,0.0,0.0,0.0,0.0,0.0,-6.3457,-6.3476,-6.1598,-6.0626,-6.2133,-5.9479,-5.6129,-5.3303,-5.3133,-5.2362,-5.0398,-5.0343,-4.9273,-4.65,-4.5529,-4.4211,-4.229,-4.1837,-4.143,-4.1092,-4.0236,-3.934,-3.8465,-3.3536,-3.059,-3.031,-2.6805,-2.5157,-2.5291,-2.5291,-2.5184,-2.497,-2.489,-2.501,-2.5291,-2.5371,-2.5611,-2.5932,-2.5638,-2.5812,-2.6266,-2.6039,-2.6092,-2.6293,-2.636,-2.6056,-2.5092,-2.12,-1.9582,-1.8444,-1.4706,-1.3403,-1.3424,-1.3539,-1.393,-1.4484,-1.4592,-1.6172,-1.7374,-1.5138,-1.6132,-1.7146,-1.4458,-1.4152,-1.4565,-1.4208,-1.4102,-1.4163,-1.4278,-1.4299,-1.4299,-1.4299,-1.4299,-1.4299,-1.4299,-1.4299,-1.4299,-1.4299,-1.4299,-1.4299,-1.4299,-1.4299,-1.4299,-1.4299,-1.4299,-1.4299,-1.4299,-1.4299,-1.4299,-1.4299,-1.4299,-1.4299,-1.4299,-1.4299,-1.4245,-1.4129,-1.4204,-1.4245,-1.4238,-1.4082,-1.4014,0.0,0.0,0.0,0.0,0.0,0.0,0.0,0.0,0.0,0.0,0.0,0.0,-5.4346,-5.7611,-5.9622,-5.5563,-5.3954,-5.2368,-5.0188,-5.0283,-5.0373,-4.9715,-5.0092,-4.8865,-4.5206,-4.443,-4.324,-4.0828,-4.1861,-4.2627,-4.246,-4.1728,-4.0969,-4.0067,-3.3653,-3.0326,-3.031,-2.6805,-2.4943,-2.4676,-2.4676,-2.4676,-2.4649,-2.4369,-2.4409,-2.4703,-2.4983,-2.5424,-2.5932,-2.5638,-2.5692,-2.5972,-2.5959,-2.5972,-2.6012,-2.6293,-2.5092,-2.298,-2.0716,-1.8607,-1.6319,-1.4052,-1.3403,-1.3403,-1.341,-1.4991,-1.6776,-1.6785,-1.8402,-1.9677,-1.7328,-1.8265,-1.8919,-1.463,-1.5255,-1.643,-1.4555,-1.4183,-1.4292,-1.4299,-1.4299,-1.4299,-1.4299,-1.4299,-1.4299,-1.4299,-1.4299,-1.4299,-1.4299,-1.4299,-1.4299,-1.4299,-1.4299,-1.4299,-1.4299,-1.4299,-1.4299,-1.4299,-1.4299,-1.4299,-1.4299,-1.4299,-1.4299,-1.4299,-1.4299,-1.4299,-1.4285,-1.415,-1.4082,-1.4082,-1.3926,-1.3851,0.0,0.0,0.0,0.0,0.0,0.0,0.0,0.0,0.0,0.0,0.0,0.0,-5.115,-5.2723,-5.3736,-5.1656,-5.1669,-5.1614,-5.0767,-5.1013,-5.0977,-5.0193,-4.9323,-4.7488,-4.4523,-4.3643,-4.2852,-4.2076,-4.2645,-4.3467,-4.4451,-4.1988,-4.0456,-4.014,-3.3521,-2.8822,-2.6619,-2.5456,-2.4743,-2.4636,-2.4636,-2.4636,-2.4636,-2.4529,-2.4543,-2.4649,-2.4743,-2.5024,-2.5384,-2.5277,-2.5411,-2.5678,-2.5678,-2.5785,-2.583,-2.466,-2.3792,-2.2682,-1.925,-1.7495,-1.6502,-1.4209,-1.3546,-1.3693,-1.5058,-1.6048,-1.7078,-1.8393,-2.0405,-2.1263,-1.7581,-1.8476,-1.9142,-1.4878,-1.4714,-1.5191,-1.438,-1.4265,-1.4299,-1.4299,-1.4299,-1.4299,-1.4299,-1.4299,-1.4299,-1.4299,-1.4299,-1.4299,-1.4299,-1.4299,-1.4299,-1.4299,-1.4299,-1.4299,-1.4299,-1.4299,-1.4299,-1.4299,-1.4299,-1.4299,-1.4299,-1.4299,-1.4299,-1.4299,-1.4299,-1.4299,-1.4299,-1.4245,-1.4217,-1.4211,-1.4061,-1.3987,-6.5068,0.0,0.0,0.0,0.0,0.0,0.0,0.0,0.0,0.0,0.0,0.0,0.0,-4.7297,-4.7326,-4.9292,-5.0197,-5.0921,-5.1229,-5.1589,-5.1589,-5.0952,-4.9011,-4.6927,-4.4973,-4.33,-4.2669,-4.3152,-4.3911,-4.4932,-4.6443,-4.3338,-4.0108,-3.6838,-3.2263,-2.8237,-2.4636,-2.4636,-2.4583,-2.4489,-2.4489,-2.4489,-2.4489,-2.4489,-2.4543,-2.4649,-2.4743,-2.4903,-2.5077,-2.497,-2.5157,-2.5352,-2.4726,-2.4585,-2.471,-2.2727,-2.1523,-2.0565,-1.7781,-1.6352,-1.5529,-1.4048,-1.3553,-1.386,-1.604,-1.7138,-1.8109,-2.0393,-2.2006,-2.2327,-1.8598,-1.7817,-1.7263,-1.4693,-1.419,-1.4299,-1.4299,-1.4299,-1.4299,-1.4299,-1.4299,-1.4299,-1.4299,-1.4299,-1.4299,-1.4299,-1.4299,-1.4299,-1.4299,-1.4299,-1.4299,-1.4299,-1.4299,-1.4299,-1.4299,-1.4299,-1.4299,-1.4299,-1.4299,-1.4299,-1.4299,-1.4299,-1.4299,-1.4299,-1.4299,-1.4299,-1.4299,-1.4251,-1.4224,-1.4217,-1.4068,-1.4021,0.0,0.0,0.0,0.0,0.0,0.0,0.0,0.0,0.0,0.0,0.0,0.0,0.0,0.0,-4.1028,-4.8164,-4.9388,-4.9829,-5.111,-5.1464,-5.1791,-5.1766,-4.9328,-4.7211,-4.62,-4.3579,-4.2627,-4.4121,-4.5559,-4.6945,-4.8254,-4.5691,-4.0,-3.061,-3.0293,-2.8454,-2.4636,-2.4623,-2.4476,-2.4209,-2.4195,-2.4195,-2.4195,-2.4195,-2.4342,-2.4636,-2.493,-2.5064,-2.505,-2.477,-2.4997,-2.5185,-2.3162,-2.2385,-2.2314,-2.0471,-1.8435,-1.6647,-1.6492,-1.5201,-1.341,-1.341,-1.341,-1.3894,-1.5999,-1.8281,-2.0393,-2.2487,-2.314,-2.2659,-2.0413,-1.6776,-1.3885,-1.4041,-1.419,-1.4299,-1.4299,-1.4299,-1.4299,-1.4299,-1.4299,-1.4299,-1.4299,-1.4299,-1.4299,-1.4299,-1.4299,-1.4299,-1.4299,-1.4299,-1.4299,-1.4299,-1.4299,-1.4299,-1.4299,-1.4299,-1.4299,-1.4299,-1.4299,-1.4299,-1.4299,-1.4299,-1.4299,-1.4299,-1.4299,-1.4299,-1.4299,-1.415,-1.4082,-1.4075,-1.3919,-1.3926,-5.9076,0.0,0.0,0.0,0.0,0.0,0.0,0.0,0.0,0.0,0.0,0.0,0.0,0.0,0.0,-4.162,-4.3916,-4.6426,-4.8666,-4.9824,-5.0325,-4.9914,-4.8006,-4.5864,-4.3756,-4.1989,-4.2194,-4.5472,-4.6089,-4.6945,-4.8415,-4.2398,-3.6131,-3.0086,-2.8664,-2.6805,-2.4636,-2.4422,-2.4289,-2.4195,-2.3995,-2.3888,-2.3888,-2.3888,-2.4048,-2.4329,-2.4409,-2.4569,-2.4783,-2.513,-2.4302,-2.2754,-2.2662,-2.1739,-2.022,-1.8198,-1.7138,-1.6344,-1.5006,-1.4062,-1.3566,-1.3566,-1.4558,-1.6344,-1.8328,-2.0544,-2.2327,-2.298,-2.314,-2.2256,-1.881,-1.5887,-1.4048,-1.4197,-1.4272,-1.4299,-1.4299,-1.4299,-1.4299,-1.4299,-1.4299,-1.4299,-1.4299,-1.4299,-1.4299,-1.4299,-1.4299,-1.4299,-1.4299,-1.4299,-1.4299,-1.4299,-1.4299,-1.4299,-1.4299,-1.4299,-1.4299,-1.4299,-1.4299,-1.4299,-1.4299,-1.4299,-1.4299,-1.4299,-1.4299,-1.4299,-1.4299,-1.4258,-1.4238,-1.4231,-1.4082,-1.4034,-5.7019,-5.4228,0.0,0.0,0.0,0.0,-4.514,-4.5272,-4.4928,0.0,0.0,0.0,0.0,0.0,0.0,-3.857,-4.0288,-4.3249,-4.7121,-4.7536,-4.7882,-4.8921,-4.6811,-4.469,-4.3299,-4.2358,-4.3144,-4.677,-4.7645,-4.7882,-4.7143,-4.07,-3.4752,-3.0153,-2.8175,-2.6446,-2.4636,-2.4342,-2.4142,-2.4022,-2.3848,-2.3701,-2.3594,-2.3714,-2.3861,-2.4035,-2.4155,-2.4369,-2.4541,-2.4303,-2.3316,-2.1881,-2.0537,-1.9304,-1.8105,-1.5959,-1.5185,-1.5043,-1.3999,-1.3532,-1.3686,-1.4441,-1.5562,-1.7173,-2.0128,-2.137,-2.1871,-2.2785,-2.1834,-1.9652,-1.6525,-1.4834,-1.3926,-1.4075,-1.4156,-1.4204,-1.4204,-1.4251,-1.4299,-1.4299,-1.4299,-1.4299,-1.4299,-1.4299,-1.4299,-1.4299,-1.4299,-1.4299,-1.4299,-1.4299,-1.4299,-1.4299,-1.4299,-1.4299,-1.4299,-1.4299,-1.4299,-1.4299,-1.4299,-1.4299,-1.4299,-1.4299,-1.4299,-1.4299,-1.4299,-1.4299,-1.4299,-1.4299,-1.4299,-1.4299,-1.4143,-1.4102,-5.5364,-5.2473,-4.978,-4.862,-4.6545,0.0,-4.4068,-4.313,-4.1766,-3.9823,0.0,0.0,0.0,0.0,0.0,0.0,-3.862,-4.0761,-4.5804,-4.518,-4.5213,-4.8044,-4.5494,-4.3655,-4.3752,-4.359,-4.472,-4.7656,-4.9375,-4.8777,-4.5481,-3.9951,-3.4808,-3.0534,-2.847,-2.6459,-2.4636,-2.4315,-2.4022,-2.3768,-2.3701,-2.3527,-2.3287,-2.3554,-2.3688,-2.3741,-2.4035,-2.4183,-2.4097,-2.2746,-2.2142,-2.1658,-1.7787,-1.6203,-1.5999,-1.4052,-1.339,-1.3376,-1.37,-1.3686,-1.3974,-1.5917,-1.6664,-1.7627,-2.1151,-2.1162,-2.0241,-2.1927,-1.943,-1.5908,-1.4091,-1.3641,-1.3682,-1.381,-1.396,-1.4068,-1.4048,-1.4183,-1.4292,-1.4278,-1.4285,-1.4299,-1.4299,-1.4299,-1.4299,-1.4299,-1.4299,-1.4299,-1.4299,-1.4299,-1.4299,-1.4299,-1.4299,-1.4299,-1.4299,-1.4299,-1.4299,-1.4299,-1.4299,-1.4299,-1.4299,-1.4299,-1.4299,-1.4299,-1.4299,-1.4299,-1.4299,-1.4299,-1.4299,-1.4299,-1.4143,-1.4143,-5.1599,-4.8134,-4.5407,-4.5684,-4.4617,0.0,-4.2746,-4.3387,-4.3345,0.0,0.0,0.0,0.0,0.0,0.0,0.0,0.0,-4.2058,-4.3042,-4.3422,-4.3911,-4.4482,-4.4209,-4.3408,-4.1907,-4.3145,-4.4913,-4.7016,-4.6857,-4.6207,-4.5134,-3.8427,-3.3464,-3.0899,-2.8346,-2.6215,-2.4636,-2.4115,-2.3834,-2.3768,-2.3273,-2.3006,-2.2953,-2.302,-2.318,-2.3434,-2.3728,-2.31,-2.1948,-2.0387,-1.9851,-1.9851,-1.7673,-1.5609,-1.3887,-1.3562,-1.3322,-1.354,-1.5147,-1.553,-1.588,-1.7892,-1.9614,-2.0911,-2.0295,-2.1004,-2.1523,-1.8694,-1.6105,-1.4084,-1.362,-1.3715,-1.3804,-1.3831,-1.396,-1.4041,-1.3912,-1.4102,-1.4265,-1.4143,-1.4217,-1.4299,-1.4299,-1.4299,-1.4299,-1.4299,-1.4299,-1.4299,-1.4299,-1.4299,-1.4299,-1.4299,-1.4299,-1.4299,-1.4299,-1.4299,-1.4299,-1.4299,-1.4299,-1.4299,-1.4299,-1.4299,-1.4299,-1.4299,-1.4299,-1.4299,-1.4299,-1.4299,-1.4299,-1.4299,-1.4143,-1.4089,-5.0002,-4.6963,-4.4465,-4.4048,-4.2886,0.0,0.0,-4.0598,-4.0226,0.0,0.0,0.0,0.0,0.0,0.0,0.0,0.0,-4.1905,-4.1603,-4.2465,-4.3658,-4.5014,-4.3669,-4.2637,-4.2637,-4.4398,-4.6824,-5.0031,-4.8492,-4.6854,-4.5495,-3.7584,-3.2398,-3.1015,-2.7785,-2.5625,-2.4636,-2.4062,-2.3768,-2.3768,-2.3153,-2.2859,-2.2859,-2.2859,-2.3033,-2.3354,-2.3794,-2.3108,-2.1534,-2.0085,-1.8921,-1.7828,-1.6004,-1.4521,-1.3403,-1.3403,-1.3952,-1.4777,-1.5893,-1.6721,-1.7798,-1.9719,-2.0472,-2.067,-2.0754,-2.0348,-1.895,-1.5811,-1.4275,-1.3512,-1.3512,-1.3566,-1.362,-1.362,-1.3797,-1.3933,-1.3858,-1.4082,-1.4278,-1.4197,-1.4245,-1.4299,-1.4299,-1.4299,-1.4299,-1.4299,-1.4299,-1.4299,-1.4299,-1.4299,-1.4299,-1.4299,-1.4299,-1.4299,-1.4299,-1.4299,-1.4299,-1.4299,-1.4299,-1.4299,-1.4299,-1.4299,-1.4299,-1.4299,-1.4299,-1.4299,-1.4299,-1.4299,-1.4299,-1.4299,-1.4143,-1.4116,-4.8934,-4.6463,-4.4401,-4.3475,-4.1914,-4.0455,0.0,0.0,0.0,0.0,0.0,0.0,0.0,0.0,0.0,0.0,0.0,0.0,0.0,-4.2408,0.0,-4.5666,-4.3356,-4.2301,-4.3996,-4.602,-4.8894,-5.3053,-5.003,-4.7417,-4.5721,-3.7226,-3.2023,-3.1131,-2.7511,-2.531,-2.4636,-2.4062,-2.3768,-2.3768,-2.3153,-2.2859,-2.2859,-2.2859,-2.3033,-2.3354,-2.3955,-2.3016,-2.1119,-2.0581,-1.8923,-1.6508,-1.4885,-1.4194,-1.4045,-1.4504,-1.552,-1.679,-1.7235,-1.8188,-1.9688,-2.1204,-2.0134,-1.8542,-2.0436,-1.8746,-1.5671,-1.3887,-1.3403,-1.3403,-1.3403,-1.3403,-1.341,-1.3437,-1.3648,-1.3838,-1.3838,-1.4082,-1.4292,-1.4265,-1.4278,-1.4299,-1.4299,-1.4299,-1.4299,-1.4299,-1.4299,-1.4299,-1.4299,-1.4299,-1.4299,-1.4299,-1.4299,-1.4299,-1.4299,-1.4299,-1.4299,-1.4299,-1.4299,-1.4299,-1.4299,-1.4299,-1.4299,-1.4299,-1.4299,-1.4299,-1.4299,-1.4299,-1.4299,-1.4299,-1.4177,-1.4183,-4.7377,-4.4944,-4.339,-4.3909,-4.2349,-4.0913,-4.1977,0.0,-3.8432,-3.9919,0.0,0.0,0.0,0.0,0.0,0.0,0.0,0.0,-4.4878,-4.4386,-4.3525,-4.2171,-4.2671,-4.3447,-4.4463,-4.6358,-4.8755,-5.2065,-4.7064,-4.4276,-4.5017,-3.8157,-3.3349,-3.1659,-2.8727,-2.6399,-2.4636,-2.4062,-2.3768,-2.3768,-2.3153,-2.2859,-2.2859,-2.2859,-2.3033,-2.3354,-2.3955,-2.2262,-1.9101,-2.1523,-2.021,-1.6664,-1.6535,-1.6493,-1.6467,-1.8229,-1.8827,-1.9093,-2.0605,-2.1288,-2.1372,-2.1499,-1.9183,-1.638,-1.6573,-1.5408,-1.3728,-1.3397,-1.3403,-1.3403,-1.3403,-1.3403,-1.3437,-1.3573,-1.3722,-1.3838,-1.3838,-1.4082,-1.4258,-1.4122,-1.4204,-1.4299,-1.4299,-1.4299,-1.4299,-1.4299,-1.4299,-1.4299,-1.4299,-1.4299,-1.4299,-1.4299,-1.4299,-1.4299,-1.4299,-1.4299,-1.4299,-1.4299,-1.4299,-1.4299,-1.4299,-1.4299,-1.4299,-1.4299,-1.4299,-1.4299,-1.4299,-1.4299,-1.4299,-1.4299,-1.4285,-1.4285,-4.7327,-4.6421,-4.5555,-4.3992,-4.2559,-4.1113,-3.958,-3.7965,-3.7178,-3.857,0.0,0.0,0.0,0.0,0.0,0.0,-4.374,0.0,0.0,0.0,-4.4078,0.0,0.0,0.0,-4.5644,-4.8363,-5.0051,-5.0011,-4.5508,-4.2966,-4.3262,-3.6953,-3.2838,-3.1878,-2.8492,-2.6129,-2.489,-2.4315,-2.3941,-2.3768,-2.3153,-2.2859,-2.2873,-2.3046,-2.33,-2.3621,-2.4209,-2.3105,-2.0836,-2.2084,-2.0867,-1.8409,-1.9504,-1.9433,-1.8588,-1.9473,-2.0337,-2.1112,-2.1785,-2.1895,-2.1383,-1.906,-1.729,-1.5938,-1.4677,-1.3874,-1.3403,-1.3403,-1.3403,-1.3424,-1.3512,-1.3532,-1.3566,-1.3715,-1.3865,-1.3973,-1.3973,-1.415,-1.4278,-1.4217,-1.4258,-1.4299,-1.4299,-1.4299,-1.4299,-1.4299,-1.4299,-1.4299,-1.4299,-1.4299,-1.4299,-1.4299,-1.4299,-1.4299,-1.4299,-1.4299,-1.4299,-1.4299,-1.4299,-1.4299,-1.4299,-1.4299,-1.4299,-1.4299,-1.4299,-1.4299,-1.4299,-1.4299,-1.4251,-1.417,-1.417,-1.417,-4.7672,-4.7319,-4.6587,-4.3645,-4.2108,-4.0548,-3.7885,-3.6766,-3.66,-3.7924,-3.9522,0.0,0.0,0.0,-4.2986,-4.2986,0.0,-4.389,0.0,0.0,0.0,0.0,0.0,0.0,0.0,-4.8142,-4.8812,-4.6917,-4.3547,-4.1656,-4.1783,-3.5739,-3.2225,-3.196,-2.798,-2.5585,-2.5077,-2.4489,-2.4062,-2.3768,-2.3153,-2.2859,-2.2873,-2.31,-2.3407,-2.3794,-2.4302,-2.3629,-2.2283,-2.2971,-2.2004,-2.0411,-2.2447,-2.2443,-2.1486,-2.1419,-2.2119,-2.3052,-2.3052,-2.2189,-2.0572,-1.7141,-1.5745,-1.5093,-1.3654,-1.3281,-1.3403,-1.3403,-1.3431,-1.3492,-1.36,-1.3654,-1.3722,-1.3871,-1.3987,-1.4082,-1.4122,-1.4224,-1.4299,-1.4299,-1.4299,-1.4299,-1.4299,-1.4299,-1.4299,-1.4299,-1.4299,-1.4299,-1.4299,-1.4299,-1.4299,-1.4299,-1.4299,-1.4299,-1.4299,-1.4299,-1.4299,-1.4299,-1.4299,-1.4299,-1.4299,-1.4299,-1.4299,-1.4299,-1.4299,-1.4299,-1.4299,-1.4299,-1.4224,-1.4075,-1.4116,-1.4116,-4.837,-4.6384,-4.4811,-4.2774,-4.0676,-3.8911,-3.8785,-3.8044,-3.7856,-3.9353,-4.0235,-4.1076,-4.2737,-4.2986,-4.2986,-4.2986,-4.3011,0.0,0.0,0.0,0.0,0.0,0.0,0.0,0.0,-4.3974,-4.3411,-4.2616,-4.0813,-4.0076,-4.0675,-3.5176,-3.196,-3.196,-2.7763,-2.5384,-2.5077,-2.4489,-2.4062,-2.3768,-2.3153,-2.2859,-2.2859,-2.2873,-2.3207,-2.3794,-2.4088,-2.3337,-2.2024,-2.4456,-2.4111,-2.2388,-2.4572,-2.5365,-2.5352,-2.5073,-2.4953,-2.494,-2.494,-2.2472,-1.8916,-1.6713,-1.4792,-1.3336,-1.3173,-1.3281,-1.3403,-1.3403,-1.3505,-1.362,-1.3627,-1.3729,-1.3871,-1.4027,-1.4068,-1.4116,-1.4265,-1.4299,-1.4299,-1.4299,-1.4299,-1.4299,-1.4299,-1.4299,-1.4299,-1.4299,-1.4299,-1.4299,-1.4299,-1.4299,-1.4299,-1.4299,-1.4299,-1.4299,-1.4299,-1.4299,-1.4299,-1.4299,-1.4299,-1.4299,-1.4299,-1.4299,-1.4299,-1.4299,-1.4299,-1.4299,-1.4299,-1.4299,-1.4224,-1.4075,-1.4224,-1.4211,-4.8096,-4.7987,-4.7189,-4.33,-4.223,-4.1336,-3.8155,-3.7637,-3.8073,-3.8651,-4.0977,-4.2856,-4.2519,-4.3457,0.0,-4.3184,-4.2986,-4.2625,0.0,0.0,0.0,0.0,0.0,0.0,0.0,0.0,-4.1588,-4.0083,-4.0202,-3.9951,-3.8868,-3.4711,-3.2307,-3.2307,-2.8269,-2.5959,-2.5665,-2.4877,-2.4342,-2.4048,-2.3247,-2.2859,-2.2873,-2.3073,-2.3394,-2.3781,-2.4075,-2.4088,-2.3996,-2.4671,-2.4586,-2.4124,-2.3317,-2.3705,-2.497,-2.5264,-2.5371,-2.4901,-2.2236,-2.11,-2.0152,-1.5569,-1.4569,-1.4954,-1.3781,-1.3363,-1.3403,-1.3403,-1.3512,-1.3648,-1.3743,-1.3878,-1.4034,-1.4183,-1.4224,-1.4238,-1.4292,-1.4299,-1.4299,-1.4299,-1.4299,-1.4299,-1.4299,-1.4299,-1.4299,-1.4299,-1.4299,-1.4299,-1.4299,-1.4299,-1.4299,-1.4299,-1.4299,-1.4299,-1.4299,-1.4299,-1.4299,-1.4299,-1.4299,-1.4299,-1.4299,-1.4299,-1.4299,-1.4299,-1.4299,-1.4299,-1.4299,-1.4299,-1.4224,-1.4075,-1.4231,-1.4217,-4.7998,-4.8021,-4.7433,-4.3258,-4.2716,-4.2173,-3.795,-3.8107,-3.931,-3.931,-4.1762,-4.3781,-4.3473,-4.4126,-4.4297,0.0,-4.2396,-4.1647,0.0,-3.8494,0.0,0.0,0.0,0.0,0.0,0.0,-3.8871,-3.7418,-3.8438,-3.8526,-3.7461,-3.4881,-3.3061,-3.2307,-2.9079,-2.6955,-2.5798,-2.513,-2.4543,-2.4035,-2.3354,-2.2966,-2.2873,-2.3073,-2.3327,-2.3621,-2.3808,-2.4168,-2.4609,-2.4516,-2.414,-2.3689,-2.2992,-2.2967,-2.3612,-2.3983,-2.4644,-2.4888,-2.1299,-2.0946,-2.1111,-1.5955,-1.5093,-1.5926,-1.4002,-1.3403,-1.341,-1.3464,-1.3587,-1.3736,-1.3885,-1.4034,-1.4177,-1.4278,-1.4299,-1.4299,-1.4299,-1.4299,-1.4299,-1.4299,-1.4258,-1.4238,-1.4292,-1.4251,-1.4238,-1.4292,-1.4299,-1.4299,-1.4299,-1.4299,-1.4299,-1.4299,-1.4299,-1.4299,-1.4299,-1.4299,-1.4299,-1.4299,-1.4299,-1.4299,-1.4299,-1.4299,-1.4346,-1.4455,-1.4353,-1.4353,-1.4455,-1.4353,-1.4251,-1.4156,-1.4251,-1.4245]}]]